GFSMA_250_spd_000.txt.gz
Wind_Speed
22 21 23 23 24 24 27 28 31 32 33 37 30 46 31 13 16 15 18 16 14 14 14 20 20 14 14 14 10 8 8 10 8 10 11 9 7 13 8 5 5 7 8
20 19 20 23 26 25 28 29 31 33 34 35 33 40 42 44 14 24 21 22 21 19 19 17 19 20 16 17 16 15 10 11 13 11 12 13 10 11 10 10 8 6 7
18 19 22 20 22 25 26 28 33 34 34 32 32 36 47 42 44 25 25 27 27 26 24 22 21 20 21 21 19 18 17 12 15 17 15 14 15 11 11 12 10 8 7
17 17 17 21 24 27 28 30 32 36 35 37 33 32 39 44 38 48 34 20 32 31 30 29 26 26 25 26 24 25 22 17 22 18 21 19 17 16 15 14 12 10 9
18 19 20 22 26 28 30 30 30 37 38 38 38 37 33 39 46 54 39 41 16 30 36 33 32 29 30 29 29 30 27 25 20 20 22 25 21 21 19 17 15 13 10
22 22 23 21 23 26 30 33 31 35 37 38 40 40 37 37 40 44 50 49 35 16 28 39 37 34 31 33 34 31 30 31 29 24 22 27 29 25 24 22 19 17 13
23 23 25 25 23 26 29 32 36 34 39 38 37 38 39 36 41 43 45 46 56 40 28 27 43 37 35 36 40 39 35 33 33 33 29 26 32 33 29 27 25 21 18
26 25 26 27 27 26 29 31 36 36 42 41 37 36 38 35 38 44 47 46 53 42 48 43 28 44 39 39 40 42 42 37 36 36 37 33 31 36 37 33 30 29 24
26 26 26 27 28 26 28 30 34 37 40 37 37 37 36 40 37 42 48 48 58 56 42 44 50 27 44 45 43 44 46 45 42 41 40 41 37 36 40 40 36 35 31
28 27 26 26 26 27 28 31 39 38 37 35 34 35 34 39 44 41 48 50 54 65 42 45 50 50 26 46 49 46 46 47 45 48 48 46 45 43 39 44 42 39 37
29 29 29 29 28 29 31 38 43 36 38 39 35 33 35 34 42 51 46 52 60 56 50 46 48 52 44 19 48 53 49 49 50 50 52 50 51 49 44 45 46 44 41
33 33 34 32 33 34 39 42 39 40 38 36 37 36 36 32 41 48 40 45 55 58 54 56 54 53 45 42 20 47 57 54 54 57 58 56 54 54 51 46 50 49 46
39 37 36 37 38 41 46 40 39 47 41 40 41 45 40 39 45 45 47 48 52 57 58 46 52 50 56 51 30 25 48 62 63 63 64 64 62 58 58 55 51 54 52
41 40 39 39 36 37 40 46 49 47 47 40 45 49 45 44 42 47 53 56 59 52 58 47 46 55 56 50 53 43 31 49 69 71 70 69 69 66 62 62 57 57 57
42 41 39 39 35 36 40 48 50 50 39 42 58 55 47 46 50 51 57 64 66 55 51 42 49 54 60 62 63 63 44 34 58 77 78 75 73 72 69 68 65 60 60
45 36 39 43 39 46 50 49 47 46 45 56 58 52 50 54 58 60 59 59 60 60 60 50 54 63 70 66 72 72 50 46 50 72 85 84 80 78 76 73 72 68 63
42 42 40 45 43 48 50 52 49 50 54 58 58 56 55 58 65 58 61 60 64 63 54 56 60 71 76 75 82 83 62 62 46 66 80 92 90 85 81 79 77 74 70
45 44 46 45 48 51 49 49 56 56 57 61 58 57 64 69 63 62 64 60 63 59 59 56 62 77 81 85 87 78 78 77 51 53 62 88 96 93 88 84 83 79 75
44 43 47 56 60 62 55 56 61 66 65 65 64 66 67 66 65 63 64 64 62 57 63 62 70 76 88 88 97 92 94 72 49 52 54 69 90 98 94 88 87 86 80
51 51 53 52 56 63 65 68 68 66 67 68 66 67 66 68 68 69 70 60 64 67 67 68 72 80 87 94 94 96 94 79 50 47 50 58 70 92 98 94 89 89 87
50 53 57 59 58 63 67 71 67 65 68 74 66 68 69 73 71 65 72 72 68 68 70 73 77 87 95 97 96 103 96 69 55 43 46 51 61 77 96 100 95 90 90
53 59 56 59 60 63 68 72 71 72 75 77 77 76 73 74 68 69 75 70 71 76 73 80 90 90 99 100 99 88 74 54 48 44 44 53 58 66 86 97 98 93 89
59 62 67 62 64 69 71 71 77 79 78 76 75 75 73 63 69 68 67 72 75 78 84 88 87 89 96 101 92 78 67 54 44 43 42 53 56 66 72 88 95 97 93
65 69 70 68 68 68 69 71 72 75 78 79 73 70 72 74 73 70 70 77 80 82 83 88 94 94 95 91 76 69 64 54 45 43 41 51 55 66 62 76 95 100 96
69 69 71 73 72 65 69 73 75 75 75 76 74 66 64 67 68 75 77 78 82 86 89 93 98 91 79 76 66 66 61 50 44 41 38 42 53 61 62 71 86 97 100
71 70 72 67 67 71 73 76 73 66 65 69 71 71 72 73 75 78 79 80 86 88 88 86 77 75 76 75 61 57 52 48 40 38 33 39 49 56 68 66 80 91 96

GFSMA_250_spd_003.txt.gz
Wind_Speed
21 20 20 22 26 29 28 27 33 31 32 34 30 34 34 41 33 14 24 23 20 18 17 21 21 19 13 13 11 10 10 11 8 7 11 11 7 11 9 4 3 7 8
15 16 14 17 22 27 30 28 32 34 33 34 35 31 29 35 46 41 16 28 27 23 22 20 21 24 19 19 17 15 14 10 10 12 12 14 11 10 13 9 7 5 6
17 12 11 14 18 23 26 29 27 33 38 36 35 37 29 30 38 38 44 36 29 32 27 25 23 20 25 23 21 19 17 18 13 14 15 14 15 12 13 13 11 8 6
17 18 18 19 19 21 22 25 29 32 36 37 38 37 36 33 34 38 41 43 46 16 35 33 28 26 24 25 25 23 21 19 18 13 21 16 17 15 13 14 13 11 10
20 20 21 21 22 22 24 23 25 30 33 36 36 36 36 36 36 44 41 46 57 31 19 35 38 36 32 29 31 31 27 26 24 24 17 20 20 20 17 17 16 14 13
23 22 23 23 21 22 24 24 24 28 32 34 32 33 34 37 40 41 48 43 46 40 36 34 35 41 37 35 36 36 36 31 29 28 23 20 23 24 22 21 20 18 16
21 22 22 23 22 21 23 22 22 29 34 33 34 32 29 31 31 40 47 51 43 47 45 36 31 27 41 38 39 39 38 36 33 33 31 28 23 27 28 26 25 23 20
20 22 22 22 22 21 21 22 23 33 38 32 31 31 37 27 29 33 37 49 44 46 53 44 36 28 19 42 43 42 43 41 38 38 36 35 32 28 31 32 30 29 26
21 23 24 25 24 23 22 25 26 35 33 37 34 35 30 34 26 29 39 40 41 51 52 48 31 25 19 19 45 45 46 46 43 42 42 40 38 38 32 32 35 34 32
23 25 25 25 26 23 23 25 32 36 33 37 36 35 32 35 34 33 33 34 39 44 49 52 47 27 30 19 29 46 47 48 50 47 47 47 45 43 41 38 34 39 38
26 28 27 27 26 25 24 25 27 31 32 36 38 39 37 36 41 38 33 32 37 46 47 49 48 38 25 25 22 12 45 50 51 52 55 51 51 50 48 47 43 39 43
30 31 30 26 26 28 32 28 32 34 36 35 38 44 35 37 42 36 39 37 39 47 50 45 50 47 48 25 23 24 25 23 48 56 57 57 57 57 56 54 52 48 44
34 35 34 31 30 26 31 29 34 41 42 41 43 39 33 37 45 43 37 41 40 43 47 47 47 45 47 49 40 39 27 21 18 26 62 63 62 63 64 61 60 57 51
37 38 35 33 28 36 37 36 38 42 47 46 42 38 40 46 49 44 40 37 50 43 42 42 42 49 45 54 47 42 40 41 33 25 30 64 71 70 71 71 67 64 61
39 40 37 32 35 39 39 38 40 43 48 48 44 46 48 48 49 46 40 48 46 43 46 43 44 46 53 47 51 49 50 51 35 33 31 39 61 77 79 78 77 71 67
42 40 43 39 36 40 42 47 53 56 58 51 52 53 54 51 48 48 52 51 48 47 44 49 54 53 52 55 59 55 60 61 51 63 41 42 47 70 85 86 84 80 74
48 48 44 42 41 42 44 46 49 50 53 55 56 58 57 55 49 53 53 49 47 48 51 54 57 61 59 59 61 65 63 64 72 76 53 48 47 68 89 92 91 89 83
52 50 47 46 49 49 49 51 52 53 55 56 61 65 62 61 55 55 48 48 50 53 48 57 61 64 62 62 62 67 68 74 80 78 71 56 48 65 88 98 97 95 91
55 53 45 48 50 53 51 54 59 62 60 61 64 66 62 52 56 55 49 50 51 54 53 54 56 57 59 62 64 69 72 81 76 81 80 67 53 54 71 88 102 100 97
58 54 53 53 54 55 55 58 62 61 62 65 66 69 71 74 68 52 50 54 57 58 54 54 55 56 63 69 71 74 75 76 82 87 84 66 57 56 60 74 87 104 101
58 58 57 56 58 61 63 68 70 68 67 66 69 73 73 67 57 56 57 56 57 53 54 51 57 63 69 72 75 77 81 87 87 85 70 65 59 54 57 65 75 96 103
58 59 57 60 61 62 70 68 71 69 69 71 70 69 71 69 68 68 62 59 60 64 62 68 70 72 71 73 77 85 88 89 77 79 75 71 59 51 51 55 71 83 102
56 56 58 60 63 66 71 72 72 69 69 70 72 72 73 73 67 66 67 68 68 62 60 67 73 74 71 79 85 90 86 79 78 81 76 67 56 48 50 53 68 76 89
60 59 58 61 64 70 70 71 70 67 69 70 71 74 75 70 65 69 69 68 65 68 68 72 75 76 80 81 82 77 76 77 81 83 76 58 51 47 48 51 61 67 80
63 60 63 63 68 70 71 70 71 71 72 75 75 77 74 72 78 76 72 72 66 69 69 71 75 79 79 76 76 75 77 80 82 77 63 45 46 45 40 48 58 66 73
66 68 69 69 71 70 72 73 70 74 74 72 77 75 75 82 75 72 73 71 75 75 74 75 74 74 78 82 83 82 81 78 68 62 50 43 45 37 41 49 56 65 69

GFSMA_250_spd_006.txt.gz
Wind_Speed
11 11 13 19 21 20 22 25 29 32 34 35 33 30 28 33 33 41 37 8 21 20 17 20 25 20 18 17 15 13 10 4 6 6 8 10 7 9 9 4 1 2 2
12 7 13 17 19 22 22 24 27 31 34 36 36 33 34 35 35 39 40 31 10 21 21 21 22 27 25 19 18 19 16 14 11 6 7 12 11 7 10 9 6 5 4
15 13 13 14 16 21 24 25 26 29 34 29 30 33 32 33 39 43 41 38 33 16 20 24 25 25 28 26 21 24 21 18 19 16 13 12 14 13 9 14 11 8 7
15 15 16 17 19 21 22 23 24 28 33 30 28 26 29 29 31 36 42 39 37 27 20 10 32 32 27 26 28 26 25 23 22 21 15 11 18 16 15 13 15 14 11
17 17 17 19 19 20 20 21 20 24 31 30 28 30 31 30 32 33 35 33 39 37 28 15 11 33 36 31 30 31 29 26 24 24 23 17 13 21 16 16 17 17 14
16 19 19 18 17 18 19 20 20 21 31 28 32 30 29 29 31 34 30 31 33 38 40 28 17 9 29 39 36 36 35 33 33 28 27 25 20 18 21 19 20 20 18
18 17 17 18 18 18 18 17 19 22 27 23 30 34 31 33 29 32 36 31 28 31 39 37 24 21 11 32 40 41 39 38 40 37 31 30 28 24 23 25 22 24 23
16 18 19 20 19 18 17 16 17 22 23 26 28 28 32 32 30 37 37 36 36 30 34 36 28 28 27 15 34 40 44 41 42 40 38 36 32 30 27 26 28 26 27
20 21 21 20 21 21 19 18 19 18 24 25 28 26 31 36 35 30 35 37 35 33 30 36 33 27 27 27 16 32 43 46 42 43 41 39 38 36 33 32 29 32 30
22 25 26 24 24 23 20 20 22 22 26 29 32 30 34 33 33 33 34 40 41 36 29 32 35 31 28 23 22 19 32 46 47 46 45 44 44 43 41 39 38 33 36
25 28 28 28 26 23 25 24 26 28 30 31 32 37 38 38 34 31 34 41 40 38 37 38 33 31 33 34 30 17 10 19 46 51 52 51 49 46 49 46 43 43 39
28 31 33 34 32 28 28 24 31 34 33 36 39 39 43 42 34 34 37 40 40 39 36 38 38 35 34 31 36 26 21 10 13 27 44 55 57 55 52 52 53 48 49
31 33 35 39 38 39 36 34 36 37 38 40 44 46 45 43 44 39 39 38 40 39 36 43 39 35 36 36 39 41 39 11 14 16 15 24 43 55 62 57 56 58 55
33 36 38 42 41 41 41 39 40 41 40 43 44 47 48 45 45 44 45 41 40 37 39 42 40 37 40 40 45 49 48 38 44 35 30 29 22 35 55 64 64 63 65
34 39 41 42 45 45 42 41 41 44 47 47 47 48 52 50 48 47 48 49 43 43 44 40 42 44 43 46 50 52 55 53 50 51 37 34 38 23 35 61 75 73 71
37 41 45 46 47 48 47 42 44 46 47 51 51 55 54 51 51 51 53 52 52 50 50 43 44 47 52 46 51 55 60 58 59 54 50 42 31 45 41 49 72 82 85
41 44 47 51 49 50 47 46 47 51 53 51 53 58 58 57 54 55 57 58 54 51 59 44 46 48 50 50 52 53 63 66 63 59 53 57 55 44 48 37 53 81 91
45 48 52 52 53 53 53 52 49 49 52 56 60 62 61 56 57 58 60 64 58 57 49 50 51 55 56 59 54 57 65 62 62 63 65 64 66 61 49 47 47 55 86
47 51 55 56 55 55 54 54 55 56 58 60 62 63 63 59 58 58 58 57 56 56 53 56 58 61 64 62 60 60 62 63 66 69 71 70 70 73 66 59 54 49 70
52 55 60 62 60 57 56 56 56 58 59 63 64 65 64 65 65 66 62 59 56 58 59 61 64 66 68 69 64 66 63 67 72 79 73 73 78 78 74 69 56 50 63
55 58 61 65 63 60 58 57 58 62 64 66 68 66 67 67 68 64 62 58 65 63 67 63 65 67 67 69 68 67 70 73 76 76 79 83 84 79 79 66 58 56 57
58 60 64 64 63 63 61 59 61 63 65 68 68 70 70 67 69 68 64 64 70 68 67 79 66 63 65 65 64 67 70 74 79 84 81 84 82 76 76 73 68 60 55
61 62 64 63 64 66 65 64 60 65 68 68 67 72 71 66 69 67 68 73 73 79 83 71 68 66 64 66 66 71 72 80 85 86 85 82 85 81 83 77 72 59 53
65 65 66 65 66 68 69 67 68 70 68 69 73 72 70 70 70 69 70 81 87 85 79 78 70 64 64 67 70 72 76 76 80 84 87 84 83 83 79 74 60 49 46
69 69 69 68 69 70 70 71 74 72 71 77 76 74 71 73 73 73 85 89 87 83 78 74 67 63 65 67 67 66 71 75 80 85 91 83 82 79 69 58 49 43 41
75 74 73 73 71 70 74 77 76 74 77 77 77 78 78 77 80 87 87 85 83 79 73 65 62 63 67 70 73 76 80 82 85 87 84 78 73 57 54 48 46 40 40

GFSMA_250_spd_009.txt.gz
Wind_Speed
7 8 13 15 17 19 18 20 25 28 23 25 24 22 30 33 36 32 34 29 13 26 22 20 24 24 21 20 19 14 17 9 6 7 7 10 9 9 10 6 2 2 3
10 11 12 14 15 18 17 18 20 25 21 21 19 24 27 28 30 34 34 34 24 12 21 18 21 24 27 25 24 19 19 17 14 13 8 7 11 12 10 11 6 5 3
9 8 11 13 13 14 16 16 15 20 21 21 22 23 25 28 24 28 28 32 34 20 7 21 22 25 26 27 30 28 24 24 20 18 16 11 11 11 14 12 13 9 8
11 12 12 12 12 14 13 13 13 14 20 19 24 24 21 25 30 27 26 26 29 35 23 6 22 32 32 28 27 29 28 27 27 20 19 17 16 14 15 16 14 15 12
13 12 12 12 13 15 15 12 13 12 16 16 21 22 24 23 28 32 26 27 26 26 35 29 19 15 17 37 34 32 28 31 28 24 24 22 19 12 17 17 16 16 16
13 14 15 16 16 17 17 15 13 14 14 16 21 23 22 23 24 28 32 31 27 24 27 27 26 25 20 11 38 36 34 32 32 31 26 26 26 22 15 19 20 18 19
14 17 19 20 19 18 18 19 19 19 15 20 24 26 26 30 34 27 27 30 30 31 26 25 26 26 27 20 10 37 39 34 35 33 34 30 28 28 25 19 23 22 21
18 19 21 23 23 22 20 20 20 21 22 27 30 29 29 30 32 33 35 30 30 30 30 24 22 25 25 29 21 9 33 40 38 38 38 38 34 32 31 29 24 25 25
18 22 24 25 26 27 26 24 24 24 22 24 29 30 29 31 33 34 30 34 35 35 31 30 24 22 21 21 26 20 15 25 41 43 42 41 44 41 37 35 32 28 28
21 23 25 27 29 30 29 29 28 27 25 31 30 33 33 35 37 38 35 33 29 35 34 29 32 27 26 22 21 23 14 17 18 37 46 46 44 41 41 40 39 37 34
23 25 28 30 30 34 36 35 33 29 30 31 31 31 35 35 35 36 37 37 39 33 33 35 29 25 29 30 23 16 18 21 20 18 30 42 49 47 45 44 46 43 40
23 26 29 33 35 38 42 41 40 38 30 32 34 38 37 35 37 40 38 39 37 38 41 39 36 33 29 32 32 28 22 27 20 21 20 25 44 52 53 54 48 47 48
27 28 31 33 37 38 39 40 41 40 37 35 36 37 38 41 44 45 38 36 38 37 36 40 40 34 40 36 36 35 30 32 38 27 26 25 24 29 45 58 63 59 53
29 31 32 34 37 40 43 44 44 40 40 39 41 43 44 44 46 46 47 43 36 36 39 40 39 44 45 39 43 43 37 39 38 44 37 44 38 29 34 42 55 63 66
30 34 35 38 39 42 44 46 45 45 41 41 42 44 47 50 49 48 48 46 43 42 41 41 42 48 47 49 45 40 46 48 50 47 49 51 48 43 43 42 39 42 53
32 35 38 40 44 45 47 49 47 44 44 45 45 45 45 48 50 49 50 53 48 48 44 40 39 42 43 46 47 48 43 46 48 53 54 54 56 57 53 53 48 45 47
37 38 40 43 45 48 50 50 51 49 45 45 47 48 50 51 51 49 50 49 45 48 44 41 39 40 40 42 46 48 53 57 58 60 62 59 61 62 67 63 59 48 54
40 42 44 45 49 50 52 53 53 51 52 54 53 51 52 56 56 55 54 54 46 50 51 49 48 48 47 46 53 55 53 57 62 64 67 67 66 72 69 70 70 68 53
43 44 45 49 51 53 57 58 55 55 55 55 56 57 58 60 58 59 58 56 54 53 55 48 51 53 55 53 51 59 59 68 68 69 69 68 71 74 72 75 77 75 70
48 48 50 49 50 54 58 62 61 59 61 59 59 61 64 62 60 63 63 61 60 60 59 56 64 66 65 65 62 56 57 53 60 68 71 71 75 75 77 79 82 79 69
52 54 55 55 54 56 58 63 65 64 63 64 64 65 68 63 65 67 66 65 66 66 64 63 70 71 75 73 65 62 61 61 63 59 58 66 72 76 81 82 86 80 82
54 55 57 57 58 59 63 65 65 66 67 64 67 71 68 66 65 69 70 68 67 69 64 73 79 80 75 70 66 63 63 61 60 65 63 69 70 76 80 82 84 85 84
60 60 61 60 61 63 65 67 68 70 68 70 71 72 74 68 69 73 71 73 71 70 71 80 83 82 77 74 64 59 57 57 58 65 63 67 70 71 77 80 82 82 75
66 69 68 60 66 68 70 70 70 70 71 72 75 72 72 72 75 74 75 74 74 79 81 84 81 78 74 70 66 60 61 62 65 69 70 69 74 76 81 82 83 82 76
66 53 48 73 72 72 74 72 74 73 72 75 73 75 74 78 78 74 78 78 77 83 83 84 80 76 71 70 70 70 73 73 74 78 80 75 79 80 81 83 79 75 67
64 73 80 79 75 76 74 78 78 77 76 77 74 75 78 77 79 79 81 81 82 85 85 80 76 74 75 76 78 78 79 79 80 80 82 75 76 73 70 68 62 54 46

GFSMA_250_spd_012.txt.gz
Wind_Speed
9 9 11 11 13 13 12 14 15 13 12 10 14 13 17 21 26 28 29 36 36 12 20 16 19 18 21 22 20 20 16 11 7 8 9 13 12 9 9 11 7 4 4
9 10 11 14 11 10 11 10 11 11 14 15 13 16 18 17 21 26 27 27 30 35 14 19 18 20 23 24 27 24 22 16 19 15 14 11 13 14 10 9 12 9 6
12 13 13 14 15 18 15 13 14 13 11 15 16 17 19 20 19 18 21 25 27 26 31 11 14 24 26 26 28 26 29 27 21 22 19 17 14 12 13 11 12 14 12
14 16 17 19 21 20 19 16 15 17 15 17 22 19 19 23 23 22 20 23 23 24 18 20 20 21 15 21 32 30 28 30 30 26 23 22 19 15 14 14 15 14 16
14 16 18 18 17 18 20 17 16 18 19 21 25 26 24 24 23 24 23 18 20 23 22 17 17 20 21 20 20 34 32 30 26 29 25 24 23 22 20 18 18 18 15
14 17 18 20 22 22 23 23 20 18 19 20 25 27 27 27 26 27 24 24 20 19 22 22 21 21 20 21 19 15 34 32 30 26 26 27 24 26 24 19 17 20 19
14 17 19 21 22 23 23 22 23 23 23 23 23 27 30 32 35 35 31 31 30 25 21 24 25 23 25 23 22 16 21 37 36 33 36 31 31 29 28 29 24 19 22
15 17 19 21 24 26 27 27 26 25 27 25 25 27 27 31 34 35 33 33 34 33 29 23 20 26 26 23 24 23 12 11 38 39 34 38 35 32 30 29 28 27 22
15 18 19 22 24 26 28 31 31 31 29 28 29 31 29 29 32 30 31 35 35 34 36 33 27 21 24 26 21 21 17 11 12 22 42 42 42 39 40 35 32 30 31
18 20 22 24 26 29 32 34 36 36 37 31 25 27 28 31 34 34 35 37 35 35 34 36 35 31 23 24 27 24 17 20 16 14 15 31 46 47 42 44 44 41 38
18 20 23 26 29 31 33 35 37 37 37 34 32 31 33 32 34 35 36 43 40 33 33 30 34 35 34 25 28 29 28 26 25 23 20 19 21 34 48 48 47 48 44
21 22 25 28 30 31 33 34 34 35 35 34 33 32 32 33 35 36 38 41 42 44 39 31 31 31 36 34 30 30 30 33 33 31 28 29 25 25 25 32 42 46 48
23 26 28 30 33 34 34 35 35 36 35 35 35 34 34 35 36 38 39 41 40 39 45 44 36 33 33 33 36 37 35 33 36 37 40 36 33 29 31 31 31 36 44
24 28 30 32 34 36 37 37 37 36 36 35 35 35 36 36 38 38 38 39 36 38 41 39 40 39 35 33 33 38 41 41 41 42 43 49 46 36 41 41 39 39 36
26 28 31 34 36 38 40 40 39 40 38 38 37 38 38 40 39 40 41 40 38 42 39 34 36 35 38 34 31 29 31 42 46 44 48 46 51 54 52 49 46 46 44
30 31 34 36 39 41 43 45 45 43 44 43 41 41 43 43 46 47 49 42 41 39 35 39 39 38 38 35 38 38 39 32 34 38 43 50 55 55 56 57 55 52 50
33 35 37 38 40 42 44 48 50 47 49 48 49 47 47 49 51 52 50 44 45 46 49 51 45 43 41 37 38 46 46 46 45 44 43 50 54 59 60 61 61 61 58
37 39 40 41 44 47 48 48 51 53 53 54 52 50 53 53 53 55 52 49 47 49 53 50 49 50 47 43 42 46 50 52 56 58 55 59 59 65 66 66 67 65 65
41 42 42 45 46 49 51 50 52 55 57 57 58 56 58 59 61 61 58 53 47 53 58 57 56 53 54 50 49 53 56 59 58 56 53 53 56 60 66 70 72 71 71
45 45 43 47 50 53 54 55 55 58 60 63 61 62 65 66 66 67 64 61 57 58 60 61 62 61 58 56 56 58 64 61 57 54 54 57 58 56 60 64 70 72 74
47 48 49 52 54 59 62 60 49 60 66 71 63 71 71 69 71 72 69 64 66 65 65 68 65 67 63 64 62 64 61 60 61 56 48 52 53 57 62 65 71 75 79
50 51 52 53 58 64 58 38 53 63 65 70 69 74 73 73 73 77 72 73 73 71 71 70 71 70 69 70 70 65 60 58 57 59 55 56 53 55 56 59 64 74 80
55 55 54 52 58 57 43 38 63 77 74 68 78 76 76 74 74 78 76 76 72 74 73 73 74 74 72 73 69 65 63 61 63 66 62 63 66 65 66 69 74 72 70
59 58 56 51 52 35 38 49 77 81 76 81 80 77 78 80 79 79 75 75 77 77 76 73 74 75 73 69 67 66 68 70 72 74 71 67 74 74 76 80 82 80 80
62 62 60 60 45 46 63 76 85 82 83 83 80 81 81 82 78 77 74 78 79 78 74 77 79 77 74 73 75 78 80 77 76 79 76 68 73 75 73 71 73 73 76
65 68 67 66 64 60 69 75 78 83 84 81 83 83 81 81 81 75 77 77 77 76 80 81 79 79 81 81 85 89 85 80 77 75 75 69 65 62 61 63 65 63 59

GFSMA_250_spd_015.txt.gz
Wind_Speed
14 16 17 17 15 12 10 9 10 11 12 18 15 17 19 21 23 22 25 28 30 30 9 8 12 14 18 18 19 19 18 13 10 11 10 9 14 14 11 10 9 8 7
16 18 18 19 18 16 13 13 15 14 14 19 21 20 19 18 19 24 27 28 29 22 18 11 12 12 16 20 22 23 24 22 13 17 18 14 12 13 15 12 10 11 9
16 17 18 19 18 17 17 15 13 14 15 15 20 24 23 22 23 19 21 24 26 24 19 17 14 17 14 10 18 23 23 24 24 21 21 20 16 16 15 15 13 12 12
14 17 19 19 20 21 22 20 20 19 17 18 19 21 21 23 25 24 21 17 19 22 20 20 19 20 22 22 17 14 22 26 24 23 23 24 22 20 20 16 15 15 13
16 19 20 22 24 24 25 25 23 22 21 23 24 23 24 25 26 27 24 22 20 19 19 19 19 19 20 24 22 19 16 23 26 25 24 26 23 23 24 22 19 19 18
14 17 19 23 25 28 29 28 28 26 24 23 24 23 26 26 26 28 28 26 29 27 19 18 22 20 20 21 20 22 17 23 27 26 24 23 21 24 26 26 23 17 17
14 16 18 22 24 25 27 29 30 29 29 26 23 23 26 27 28 31 33 32 33 32 29 21 19 21 22 23 23 16 20 16 27 31 26 26 27 26 25 25 25 27 24
12 14 17 20 22 25 26 30 33 34 33 32 28 27 24 25 29 30 33 34 35 36 34 31 25 21 20 19 22 22 19 17 16 27 35 35 35 34 34 31 29 28 28
15 17 20 22 23 27 30 32 35 34 33 34 34 34 34 32 28 29 31 32 35 36 37 34 30 27 23 21 21 21 21 21 18 17 18 36 37 37 38 35 34 31 31
14 17 18 20 24 28 30 33 33 32 33 35 33 33 32 33 33 31 31 31 34 37 35 33 35 33 28 25 25 24 24 23 25 23 22 23 25 40 41 40 40 41 39
15 17 19 22 25 28 30 31 31 32 34 34 33 32 30 31 33 34 35 35 37 37 34 33 36 33 29 28 29 26 27 27 26 31 28 25 26 22 28 42 44 44 45
18 20 22 23 26 29 30 32 33 35 35 35 34 32 33 33 34 33 35 37 40 39 34 34 33 27 28 31 29 31 30 29 31 31 33 36 33 31 30 31 28 36 40
19 20 23 25 27 29 31 33 34 34 34 35 35 34 33 35 36 36 37 38 41 41 39 36 33 35 33 31 32 33 29 30 30 33 36 36 37 37 37 37 36 35 31
20 21 23 25 27 29 32 34 36 36 34 35 36 36 37 34 37 39 43 41 45 40 37 37 38 41 41 36 34 34 34 33 30 30 34 41 41 41 45 45 48 44 43
23 23 26 28 29 32 34 36 38 39 39 37 36 38 39 35 38 42 43 47 46 47 44 41 38 44 41 41 38 36 34 37 35 33 36 37 42 49 49 51 49 48 51
25 27 29 31 32 34 36 39 40 42 42 43 41 40 40 38 43 48 49 50 50 51 52 47 45 48 50 52 47 43 40 35 39 41 36 34 38 42 45 48 51 50 56
29 30 31 32 34 37 39 43 46 49 50 48 42 42 43 38 47 56 57 56 55 55 52 48 49 54 53 51 54 53 51 47 45 44 44 40 45 46 47 54 57 57 57
33 34 34 35 36 39 42 46 51 51 59 50 40 42 48 46 54 65 64 63 61 60 60 57 55 54 52 55 54 53 56 54 53 52 52 51 50 50 54 53 59 62 62
38 38 37 36 38 42 46 51 53 57 62 43 44 50 57 59 66 70 70 69 67 65 65 66 61 60 62 61 59 59 54 52 57 57 58 59 60 53 51 52 54 60 68
43 42 42 41 41 42 46 51 58 64 52 36 47 63 72 69 76 79 76 72 72 71 67 65 64 63 67 65 58 54 56 61 63 62 57 55 56 57 53 49 50 55 62
47 47 46 44 43 43 47 51 59 51 40 39 51 69 70 74 82 86 84 78 72 70 69 66 67 69 68 60 59 62 66 65 63 60 58 57 55 54 56 57 56 54 56
53 52 52 48 49 49 48 48 53 51 44 44 50 56 78 83 84 88 85 80 75 76 76 73 74 69 69 66 65 68 66 65 69 70 65 65 63 64 64 65 65 64 63
56 57 56 53 54 54 55 50 55 61 48 48 66 76 79 85 87 88 86 80 81 81 76 78 76 71 73 75 77 77 75 69 67 70 69 70 76 76 75 72 73 73 73
61 61 61 57 58 59 60 58 54 59 64 66 77 78 85 81 87 87 82 83 81 80 76 75 76 77 77 83 84 84 81 76 74 77 78 75 78 79 78 75 74 74 75
65 63 61 59 63 64 65 68 66 66 66 73 77 79 74 81 84 81 83 86 80 78 78 80 81 82 88 93 92 87 82 77 75 77 77 70 70 69 71 71 70 70 70
68 68 64 64 69 70 72 76 76 75 77 77 75 73 73 78 81 84 82 81 75 76 78 82 86 91 91 97 99 90 85 82 76 71 71 65 59 54 54 60 62 61 62

GFSMA_250_spd_018.txt.gz
Wind_Speed
17 18 18 18 15 15 13 12 12 11 11 17 18 17 17 22 21 23 25 25 26 22 11 6 11 15 11 15 17 17 17 17 12 11 10 8 9 10 13 11 9 9 6
19 20 18 18 19 17 17 15 14 14 14 17 20 21 21 23 24 21 20 23 19 19 19 14 13 18 18 16 16 18 18 18 18 16 13 12 13 12 11 13 11 10 11
20 21 22 24 24 25 24 23 21 19 18 16 17 17 20 23 22 23 21 20 19 19 14 14 17 16 14 20 21 17 14 19 19 18 18 16 18 15 15 14 14 13 10
19 22 23 23 24 25 26 26 25 23 22 19 17 17 21 24 24 23 25 24 26 22 17 16 14 14 17 17 18 21 19 14 20 21 18 22 20 21 18 17 14 12 14
17 17 18 20 22 24 28 29 28 28 29 27 25 20 20 21 22 24 25 27 26 27 25 22 16 14 14 14 15 16 17 17 14 22 20 20 21 21 21 22 22 18 15
15 16 18 22 25 27 29 30 31 32 32 31 31 30 26 23 21 24 26 26 25 29 27 26 24 19 15 14 13 11 13 15 13 13 19 22 22 20 23 21 21 21 21
15 17 18 22 24 27 28 30 32 33 33 32 31 30 29 29 28 27 26 27 27 29 29 28 24 21 23 17 15 15 13 13 14 12 18 25 24 25 22 22 23 25 23
15 16 18 20 23 25 28 30 31 32 33 32 31 30 30 30 29 28 29 29 30 31 32 30 27 28 27 22 18 17 16 16 14 13 13 19 30 28 29 32 30 28 25
14 14 15 18 21 25 26 28 30 33 33 33 31 29 27 29 30 30 31 31 35 35 35 34 32 32 30 25 23 20 21 22 21 19 18 17 17 26 37 40 39 36 36
12 13 14 17 19 22 24 27 28 32 32 31 30 30 28 26 27 29 32 32 34 37 36 34 32 31 30 30 29 25 23 24 26 27 24 25 23 23 25 26 41 41 39
11 12 13 16 19 21 24 25 27 27 29 30 29 28 29 26 27 31 33 37 38 39 38 34 34 34 31 30 30 30 28 28 24 27 30 29 30 29 28 26 23 37 43
12 13 15 16 18 21 23 25 26 29 30 30 29 30 31 29 23 28 33 38 40 41 42 40 37 36 37 36 36 32 30 30 31 28 28 35 36 34 33 33 33 32 28
14 15 14 15 17 20 24 25 28 29 31 32 33 34 32 28 27 26 36 41 43 43 44 46 46 42 39 37 38 38 35 33 33 32 32 29 36 38 40 38 38 38 35
16 17 17 18 19 21 24 25 28 30 34 38 36 40 33 32 32 27 40 47 51 54 56 51 53 43 43 42 41 40 39 34 36 36 35 36 34 37 40 43 45 45 41
20 19 19 21 21 22 25 28 30 34 40 42 46 49 34 23 31 31 43 54 58 61 62 61 59 52 49 47 40 37 42 44 42 37 37 39 40 41 41 38 43 51 52
24 24 23 24 25 25 27 31 31 36 38 46 51 48 24 26 34 44 52 61 65 67 68 62 64 62 55 53 48 45 47 46 46 44 41 39 42 44 45 42 43 47 50
27 28 29 29 30 30 32 35 35 38 44 48 48 30 27 31 34 50 56 66 71 70 70 70 70 67 60 55 55 53 52 48 43 39 39 41 41 45 50 51 53 53 57
33 31 34 36 37 35 35 39 40 40 44 50 45 40 40 42 46 49 56 70 74 74 74 76 77 66 61 56 55 55 51 54 51 51 50 52 53 51 53 54 54 55 60
37 36 36 39 39 38 38 40 43 43 43 48 50 52 50 51 49 50 60 72 78 76 78 74 75 72 66 62 59 58 54 53 59 63 64 63 59 57 55 53 52 55 58
40 41 39 41 42 42 41 43 45 46 46 47 50 53 52 53 55 61 70 74 79 73 75 80 72 72 67 64 63 62 68 67 72 73 74 70 61 59 62 63 60 57 56
44 45 45 46 45 44 45 47 47 49 51 51 51 53 47 53 60 61 72 75 72 73 78 76 73 70 67 66 69 69 73 79 82 84 84 74 62 61 61 63 65 64 61
50 48 51 50 49 49 47 50 51 52 53 55 56 57 53 49 56 64 70 71 69 70 73 74 70 64 71 75 69 73 79 84 91 98 86 72 65 66 63 66 69 70 70
55 54 55 56 55 56 52 55 57 56 56 58 61 62 63 61 56 68 70 64 64 68 72 71 71 75 73 73 79 85 87 92 97 99 85 74 69 67 68 69 69 70 71
61 59 60 61 62 62 59 59 61 64 64 64 65 69 69 67 62 62 60 63 69 69 73 76 78 79 77 83 86 89 93 99 103 99 82 71 66 62 64 65 66 68 68
66 66 64 65 65 67 67 67 66 69 71 71 71 75 71 66 66 55 57 63 67 72 77 80 82 79 84 87 88 92 99 106 105 94 79 67 58 53 56 59 58 58 59
71 72 70 70 71 72 74 72 71 70 75 77 77 75 68 65 55 53 58 65 75 81 74 78 77 76 85 90 90 95 104 108 106 92 77 67 58 51 50 55 54 49 50

GFSMA_250_spd_021.txt.gz
Wind_Speed
19 20 20 19 17 16 14 13 11 11 11 13 16 16 19 22 22 21 23 22 21 15 15 13 9 11 12 13 10 16 20 18 17 13 10 11 8 7 9 13 11 9 9
22 25 26 26 25 24 24 23 22 21 18 15 14 15 19 20 20 21 22 22 21 18 16 13 12 13 10 12 12 15 9 18 20 18 16 12 13 12 11 10 11 11 9
24 24 24 23 23 24 25 24 23 22 21 22 17 12 16 17 18 19 20 19 21 21 17 15 13 14 14 13 14 16 15 7 17 19 19 18 18 17 16 12 10 11 12
17 20 21 22 23 25 26 27 27 25 25 26 26 24 21 18 18 20 20 19 20 19 18 18 16 14 13 15 14 14 15 13 9 12 20 19 23 20 18 19 15 11 10
16 17 21 23 25 26 27 27 29 30 28 29 29 29 28 26 23 23 22 24 23 24 25 24 20 18 18 13 11 12 14 16 15 8 12 21 22 22 19 18 19 17 16
14 17 20 21 24 25 27 28 31 31 31 31 30 29 29 28 27 28 26 27 27 28 30 26 22 22 21 17 16 14 15 14 15 14 11 15 21 23 20 20 19 16 16
13 17 17 20 22 25 26 27 29 30 31 31 30 28 26 28 27 29 30 31 35 34 33 28 25 27 26 22 20 15 18 20 18 16 12 13 20 21 22 22 19 21 20
12 13 15 18 20 23 24 24 26 28 29 29 29 27 27 25 25 28 32 32 34 37 37 35 35 30 28 24 22 21 17 15 18 21 20 17 16 25 28 27 27 23 23
9 11 12 15 18 20 21 23 24 25 26 27 25 25 25 21 23 27 32 33 37 38 42 43 41 37 34 31 26 26 22 19 20 19 20 24 23 19 24 31 33 32 32
8 9 9 12 15 16 18 21 22 24 25 27 25 24 24 22 16 19 28 33 37 41 46 47 49 46 37 34 33 31 28 28 26 24 23 20 28 28 29 26 28 35 40
9 10 9 11 12 13 15 18 19 20 22 25 26 26 29 21 18 17 21 31 44 48 50 52 50 52 51 43 34 32 33 32 31 30 27 27 28 27 31 33 35 33 31
9 11 10 10 11 12 15 16 18 20 22 25 26 31 28 26 18 17 17 25 46 52 56 57 55 51 54 50 37 29 30 30 31 32 31 30 30 31 34 34 38 38 37
9 10 11 12 14 15 16 17 18 22 26 29 33 42 30 19 12 13 19 33 43 49 56 60 54 54 58 51 44 35 33 31 33 34 34 33 34 34 36 39 37 39 41
11 11 13 13 15 18 19 20 21 23 26 31 35 38 34 22 14 21 29 35 44 44 54 57 56 55 57 57 48 43 47 39 42 36 35 36 35 33 37 41 44 43 42
15 14 18 19 18 20 21 25 25 26 28 32 35 37 36 27 27 32 35 39 47 47 55 58 56 54 58 64 55 56 53 47 43 37 37 38 36 36 40 40 43 50 50
22 18 22 23 22 24 25 26 27 28 30 34 36 38 38 36 37 36 39 42 46 46 52 59 58 56 62 66 62 67 59 51 53 53 50 49 49 50 50 44 46 48 54
28 21 24 26 26 26 29 31 31 32 32 36 39 39 40 43 43 47 43 42 49 49 57 60 57 57 63 69 73 68 59 64 60 58 57 56 56 60 59 55 51 51 53
32 28 27 29 30 30 32 36 36 35 36 40 42 42 44 45 47 50 51 53 52 53 57 59 56 58 61 72 77 67 63 63 66 66 59 60 65 72 69 61 48 50 56
33 34 34 34 35 37 37 39 41 39 39 43 47 48 50 52 54 56 58 62 57 54 60 51 57 60 67 71 76 74 64 72 68 69 69 77 80 83 77 64 50 48 59
38 37 38 40 41 42 43 42 43 44 45 46 50 52 53 55 58 59 59 60 60 58 56 50 55 58 68 73 74 70 70 74 76 75 78 87 90 85 76 65 56 50 51
43 43 43 45 46 47 48 47 46 49 51 53 53 55 57 59 61 64 64 58 62 63 53 52 57 61 72 78 74 69 76 75 83 89 87 91 97 88 73 60 55 53 54
49 49 51 50 50 51 51 50 51 54 56 58 58 57 60 62 64 67 67 61 60 55 49 49 59 65 75 78 80 75 79 84 88 91 96 103 103 90 74 59 51 50 53
55 56 57 56 56 56 56 56 57 60 62 61 62 63 62 65 67 68 58 55 51 57 55 61 62 70 79 84 84 79 83 86 94 97 101 109 106 95 80 66 55 48 45
62 62 63 62 62 61 62 61 62 64 66 67 66 69 71 66 66 52 47 50 56 53 59 60 65 73 83 86 70 77 89 99 96 102 108 111 108 100 86 70 59 52 48
68 70 70 69 69 68 68 67 68 68 71 70 71 70 71 63 46 46 53 55 57 59 61 62 67 78 85 79 80 93 101 101 103 109 110 115 111 101 87 73 63 55 50
63 69 73 75 77 77 74 72 73 72 73 72 69 65 49 41 42 51 50 63 64 62 65 66 70 80 85 94 96 96 101 102 113 106 111 109 109 100 87 75 66 56 49

GFSMA_250_spd_024.txt.gz
Wind_Speed
23 24 24 23 22 23 22 22 20 19 15 12 12 15 16 17 18 17 19 21 20 16 13 10 10 10 9 9 7 13 13 13 18 15 14 10 11 8 7 9 11 13 9
23 24 25 24 25 27 27 26 25 21 24 22 17 16 14 15 16 18 17 17 19 18 19 16 15 14 14 14 13 13 13 9 11 17 16 16 15 13 12 10 8 8 9
22 21 25 24 24 26 27 27 27 27 28 30 28 26 24 21 20 21 21 20 21 18 18 18 17 15 17 16 15 13 10 11 10 13 18 19 20 18 17 15 12 9 6
20 19 23 27 24 26 27 29 28 29 29 28 28 28 27 28 24 24 29 28 27 24 19 19 19 18 18 16 14 13 14 12 10 8 12 19 20 22 22 18 17 14 11
19 19 21 24 26 26 28 29 29 29 29 28 27 26 27 28 29 29 32 34 36 37 35 29 24 22 22 18 17 14 15 18 18 13 10 13 18 23 23 23 21 15 14
17 20 18 21 22 24 24 25 26 27 26 26 25 24 24 24 27 30 34 37 41 43 42 42 41 35 25 20 18 20 18 16 16 19 21 15 15 18 21 22 23 22 18
15 17 17 17 17 19 19 18 21 25 23 23 21 20 20 21 23 25 30 35 41 45 44 46 46 46 40 26 22 19 19 20 18 19 19 20 18 18 18 19 23 21 22
12 14 13 13 14 15 15 16 17 18 21 20 20 19 19 14 13 21 26 36 42 46 50 50 50 52 44 37 26 20 17 18 20 20 19 21 22 22 19 22 25 24 23
9 10 10 9 10 12 14 15 16 16 16 19 23 21 26 16 9 10 15 29 41 44 47 50 50 48 57 50 38 33 27 27 27 24 22 20 19 26 27 25 26 31 31
8 7 6 5 7 10 13 13 15 17 20 23 24 28 28 15 13 13 18 18 34 42 44 47 47 44 53 57 57 52 38 25 37 29 26 26 24 22 23 32 32 30 31
6 5 2 3 6 8 10 12 14 17 20 22 25 30 31 20 18 14 14 17 31 40 45 44 47 47 41 51 57 56 60 55 44 52 43 31 31 30 31 27 31 36 38
1 2 2 4 5 7 10 13 15 18 20 21 27 31 31 31 27 20 22 29 37 40 42 43 43 46 38 41 55 56 52 66 46 50 44 32 29 26 27 30 33 31 36
4 4 4 6 9 11 11 15 17 20 22 24 26 29 30 30 30 24 27 33 35 36 41 40 41 46 34 43 49 65 51 50 49 58 61 50 36 29 27 25 28 35 40
8 8 9 9 11 14 15 16 19 22 23 26 26 30 31 31 30 32 35 38 37 40 41 39 40 46 38 40 49 65 55 44 58 57 54 50 51 43 41 43 42 35 35
14 13 15 15 14 14 16 17 20 23 25 28 28 28 31 33 35 35 36 40 43 48 37 45 41 41 39 43 50 62 63 61 56 55 49 46 41 43 49 53 56 51 46
19 19 19 20 19 18 19 21 23 26 28 31 34 33 35 38 39 39 39 42 46 48 43 45 45 43 43 46 55 66 67 56 53 57 52 51 50 53 58 67 60 52 46
23 24 23 23 26 25 25 27 28 30 32 34 36 38 39 41 44 46 45 46 50 54 47 43 45 45 45 48 51 69 64 58 50 52 58 59 56 60 70 74 75 62 50
28 26 25 25 28 30 29 31 33 35 37 38 38 39 43 45 48 49 49 51 54 55 45 36 42 45 45 50 53 67 66 61 56 65 68 62 65 74 79 82 83 63 47
32 32 29 28 31 34 34 34 36 39 40 42 42 43 47 50 51 52 52 53 55 47 39 37 41 51 47 52 54 65 71 65 66 74 74 69 71 82 86 91 86 69 45
37 37 37 36 35 37 40 39 41 42 44 45 47 47 50 52 54 56 57 56 56 41 41 46 44 52 53 59 57 65 69 66 72 77 76 77 78 83 89 86 86 71 51
39 39 40 40 40 42 44 45 45 46 49 49 51 53 54 55 56 56 59 59 52 34 39 43 51 57 59 63 61 68 75 69 74 81 81 88 85 89 89 92 87 72 54
44 45 46 47 48 48 50 52 51 51 52 53 55 56 57 56 56 58 58 58 43 34 38 48 53 57 63 64 68 71 71 78 83 85 92 93 94 95 91 95 88 78 60
51 52 53 54 55 56 56 57 57 56 57 60 61 60 59 58 58 55 55 49 36 37 40 49 63 61 64 71 68 73 78 79 88 92 97 100 103 104 95 97 93 83 67
57 58 60 61 61 61 60 62 62 62 64 67 67 67 66 64 56 50 39 34 33 41 39 50 60 65 66 69 69 77 83 82 89 96 104 98 99 99 98 99 97 89 72
54 52 52 53 53 57 57 58 58 56 60 66 65 65 64 60 51 27 34 33 38 42 39 45 59 64 66 68 76 78 84 85 97 99 105 102 95 99 98 101 99 93 78
41 45 45 47 49 51 52 55 55 54 55 59 58 55 45 38 29 26 34 37 41 46 44 51 57 64 72 72 76 79 84 88 96 106 102 110 102 96 97 105 103 98 84

GFSMA_250_spd_027.txt.gz
Wind_Speed
21 23 23 23 24 26 25 24 24 27 26 19 17 18 20 23 23 22 24 25 23 21 18 16 15 14 14 11 9 10 13 11 9 13 15 13 11 12 11 9 9 10 10
23 24 24 27 29 29 26 27 30 32 29 30 29 27 24 25 27 27 29 27 26 28 27 23 20 19 19 18 17 13 11 10 11 10 14 15 15 16 16 14 13 10 8
25 25 26 29 30 33 31 30 30 29 29 29 31 32 29 28 28 32 33 33 35 34 32 27 25 25 24 18 14 13 13 14 16 12 9 15 17 20 20 19 17 13 10
23 26 26 28 30 30 31 30 29 29 29 29 30 33 36 35 35 38 40 39 40 46 50 40 33 28 22 20 21 18 16 18 18 18 15 11 15 21 21 23 22 17 16
20 21 24 24 25 27 28 26 25 26 24 26 25 24 25 30 33 35 42 44 45 47 47 52 54 37 28 21 17 18 20 20 19 18 16 16 17 17 20 23 25 24 20
19 20 21 22 22 21 22 24 25 25 22 20 18 18 17 19 23 33 38 37 43 47 44 46 49 55 47 31 20 16 17 19 20 20 19 20 18 17 18 20 21 24 24
16 17 17 18 18 17 17 19 19 19 22 22 21 24 16 7 10 16 24 31 40 44 42 36 41 40 50 53 42 30 30 30 26 22 21 19 20 19 20 18 21 23 25
12 12 12 14 14 14 12 15 17 20 23 24 26 26 16 9 8 13 20 26 30 44 40 39 39 36 40 55 44 40 48 41 37 37 38 21 19 19 21 21 20 24 24
8 8 8 10 11 12 12 15 17 19 22 24 27 31 32 19 16 16 22 24 29 35 36 39 34 36 30 35 52 48 46 42 40 53 42 41 23 17 17 20 22 26 28
6 5 4 6 7 8 10 12 16 17 19 22 25 28 29 29 26 21 23 27 30 34 35 34 33 34 30 31 37 47 48 47 47 43 48 44 40 29 21 18 23 24 28
4 2 2 3 6 9 9 12 14 16 18 21 22 23 24 25 26 25 23 27 31 36 33 34 33 32 31 31 33 48 45 47 47 42 49 47 39 36 26 25 21 21 27
1 2 3 3 5 8 11 13 14 16 17 18 21 23 25 27 27 27 27 31 34 35 37 34 33 30 30 28 39 50 53 45 40 38 44 53 45 32 29 30 33 31 27
5 5 5 7 9 11 13 13 15 17 19 19 21 24 25 25 26 28 30 31 34 37 41 34 27 28 30 29 37 55 49 47 44 45 50 45 42 39 35 40 45 46 45
9 9 9 10 11 12 12 13 15 17 19 22 23 25 26 27 28 29 32 33 36 37 40 37 25 26 32 35 44 48 50 48 46 51 47 46 46 41 42 45 55 58 57
13 11 12 14 15 16 16 17 18 19 20 23 25 27 28 29 31 34 37 36 38 41 41 36 29 28 42 41 46 53 53 53 51 48 50 49 51 51 54 55 69 68 63
13 13 15 18 20 21 21 21 23 23 23 26 27 30 32 31 32 34 37 38 38 41 38 32 27 29 38 42 47 51 57 53 54 59 63 58 57 51 54 65 78 78 73
16 15 18 18 23 26 25 25 26 27 27 29 31 33 36 37 38 37 38 40 40 41 41 30 26 31 45 41 52 52 54 50 58 62 69 65 69 62 72 80 85 81 78
21 22 21 20 25 27 29 29 30 30 31 33 36 38 39 41 43 43 41 42 42 44 42 28 24 30 43 47 53 54 55 51 57 62 73 78 84 67 71 80 88 86 95
29 29 29 28 29 32 34 33 33 34 35 36 38 40 43 45 45 46 47 46 46 45 40 25 25 29 41 51 51 56 57 54 54 62 70 81 86 73 82 89 93 99 94
34 34 34 31 31 33 36 38 39 39 41 42 43 46 48 50 50 51 51 52 51 50 40 25 29 32 40 50 50 55 59 63 58 65 70 81 79 79 80 87 92 96 92
38 38 38 37 37 39 42 43 44 45 47 49 50 52 53 54 56 56 57 57 56 53 42 23 27 28 38 44 52 55 59 63 60 69 77 78 78 77 82 88 92 93 92
40 41 41 44 46 46 48 50 54 55 56 57 58 58 59 59 59 58 59 57 56 51 36 26 29 31 34 44 51 53 60 60 64 73 76 79 77 78 79 92 97 103 95
44 47 48 50 52 54 56 57 59 59 59 58 58 59 60 59 61 57 57 54 50 41 31 30 32 32 36 43 51 54 58 63 68 73 81 78 76 80 84 94 102 106 101
49 51 53 56 55 55 53 50 49 48 49 51 52 52 53 52 54 49 45 42 34 29 28 30 37 40 38 39 53 58 61 64 68 75 76 78 71 79 85 98 101 98 113
53 53 47 45 46 45 44 43 42 43 45 49 52 52 51 47 43 41 34 29 22 23 27 34 40 40 37 46 52 58 58 63 69 73 76 81 73 81 86 95 99 105 112
43 37 39 39 38 40 42 43 46 46 49 46 48 48 47 45 35 26 28 20 22 27 23 34 41 50 45 47 49 58 56 60 64 74 80 74 76 76 84 91 94 101 113

GFSMA_250_spd_030.txt.gz
Wind_Speed
22 22 26 25 23 9 19 29 31 35 33 31 29 35 38 41 42 40 37 38 38 33 26 21 18 18 13 11 9 9 9 14 15 10 13 14 14 11 10 12 11 11 12
23 27 29 29 29 27 25 27 29 33 34 35 35 35 38 39 40 44 45 47 46 44 34 29 26 19 17 18 14 10 9 11 12 12 11 13 15 15 14 15 16 16 13
28 28 29 31 32 28 31 30 30 33 31 32 35 36 40 40 42 44 44 44 42 44 45 46 29 22 18 14 13 14 14 15 13 13 11 10 9 15 17 20 20 18 14
27 28 30 29 28 26 28 26 26 24 24 20 23 28 32 34 34 37 41 41 41 43 43 46 44 33 20 20 18 17 18 17 16 14 11 10 12 13 15 19 21 20 20
25 24 26 28 27 26 26 24 18 16 15 17 17 16 21 22 22 29 37 37 39 39 37 36 47 43 40 38 32 31 28 21 18 17 15 13 10 12 16 19 20 18 21
20 20 22 22 20 20 21 21 19 19 22 25 23 15 5 13 20 26 32 35 35 32 34 33 31 39 41 37 36 37 43 33 22 16 11 12 15 14 12 17 18 21 22
16 15 17 17 18 17 18 18 19 21 22 26 32 20 9 12 21 25 30 32 34 34 32 34 33 30 37 43 38 36 38 39 40 26 22 21 14 14 16 14 18 19 20
12 11 14 15 15 14 16 16 17 19 20 24 28 30 24 19 22 26 27 31 35 32 33 32 34 28 29 32 35 42 43 38 41 43 35 26 24 16 11 16 16 18 21
11 9 10 12 12 11 12 14 14 16 18 21 24 27 26 24 25 23 26 29 32 34 32 31 27 30 36 33 34 36 39 41 41 38 39 43 29 28 25 16 13 18 20
8 6 7 7 7 9 10 13 14 15 17 19 20 21 22 23 24 23 25 29 33 35 35 27 26 23 32 35 35 36 42 41 38 42 41 48 47 41 35 26 25 19 13
5 5 4 4 6 9 10 11 13 15 16 16 18 19 19 21 23 24 27 29 32 32 33 28 23 25 36 36 31 35 40 45 49 45 54 51 51 49 46 45 41 24 18
3 3 3 3 6 8 10 11 13 15 16 17 19 21 20 19 21 24 27 28 32 33 34 30 16 28 34 37 34 34 37 41 51 55 54 57 51 49 53 46 50 50 50
3 3 4 3 5 7 10 12 13 15 18 20 21 22 23 22 22 24 27 30 33 33 36 32 15 20 28 30 35 37 39 36 45 52 59 59 50 50 58 60 51 55 62
7 7 8 8 8 9 11 13 13 14 16 19 21 22 23 24 25 25 27 28 30 33 36 35 19 17 21 29 33 38 45 36 40 46 57 59 57 57 60 61 58 58 66
12 11 11 12 13 14 16 17 18 18 19 19 21 23 25 24 26 27 28 30 32 33 36 38 24 14 20 28 32 35 42 48 43 43 56 60 60 58 60 64 68 67 69
12 8 9 12 14 17 20 20 20 20 22 23 25 25 27 28 29 29 29 31 32 35 34 40 33 15 20 24 32 35 38 43 48 51 53 60 59 61 62 66 65 66 76
13 9 10 13 15 19 22 23 24 26 26 26 29 30 33 32 36 36 37 35 36 35 35 37 37 22 23 23 30 34 37 39 40 49 55 55 62 55 59 64 71 73 75
14 13 15 19 22 25 25 26 28 27 27 29 33 35 37 38 39 41 42 43 42 41 39 36 37 31 27 27 24 30 39 41 41 47 54 58 59 56 58 64 70 73 79
21 21 22 26 28 30 32 31 32 33 36 38 41 44 45 47 49 50 51 50 49 48 44 42 37 30 28 27 26 29 33 43 45 44 46 53 59 64 65 64 68 69 82
25 27 29 32 33 35 35 36 37 40 41 43 47 50 51 53 55 55 54 54 53 50 47 41 35 30 28 29 30 32 39 42 44 47 48 52 56 68 69 63 66 76 82
30 33 34 36 37 38 39 40 43 44 48 51 53 56 56 56 55 55 53 47 45 45 42 36 31 24 25 23 25 32 34 37 45 50 50 50 49 64 64 67 69 71 78
34 37 38 41 41 41 43 44 48 51 53 53 50 50 49 51 51 48 50 48 43 38 34 30 28 20 21 26 28 28 36 37 45 48 50 51 49 60 63 67 64 73 78
39 40 42 42 44 44 47 49 51 50 46 42 37 39 42 46 47 47 44 42 40 31 28 25 18 21 25 26 28 30 36 45 48 52 56 57 51 60 60 70 68 73 83
41 43 43 46 48 48 50 48 41 39 37 35 41 41 46 48 47 46 38 37 35 33 19 16 18 19 23 27 34 29 36 45 51 53 55 59 56 60 61 71 72 75 83
43 44 46 50 50 48 41 34 32 34 37 41 46 49 50 51 53 41 31 29 26 19 13 18 25 32 34 35 38 39 39 42 51 55 58 60 62 63 65 72 72 79 84
47 47 48 49 42 37 35 35 33 35 40 43 44 46 48 50 51 43 30 21 19 16 20 24 26 31 35 34 38 42 47 47 53 62 64 62 65 64 65 73 70 76 80

GFSMA_250_spd_033.txt.gz
Wind_Speed
26 25 28 21 24 33 34 34 35 36 36 38 41 42 44 44 42 46 43 41 45 37 28 23 14 14 15 12 6 4 5 8 10 8 7 11 15 15 14 12 12 13 13
23 28 27 26 31 31 32 34 33 34 33 33 35 36 37 42 42 40 42 40 42 46 43 32 25 22 16 16 17 16 13 10 7 7 6 5 8 14 16 18 15 15 15
30 30 26 27 28 29 28 25 26 25 25 25 23 25 29 33 38 37 40 38 33 41 40 38 35 32 28 22 17 15 14 12 11 7 7 5 3 5 10 16 18 18 18
27 25 26 25 23 20 21 18 18 20 14 15 14 15 24 32 34 35 38 37 36 38 38 38 38 36 32 30 32 26 24 19 16 13 8 5 8 10 11 12 13 13 15
26 28 25 23 22 18 15 19 21 26 24 13 8 15 22 31 31 35 37 35 36 31 29 35 35 31 33 36 35 29 25 22 23 22 20 16 11 9 11 14 14 17 16
21 22 21 19 17 17 19 20 22 28 29 22 10 14 21 26 31 33 36 38 34 31 27 30 31 31 35 38 46 36 45 36 25 20 18 15 14 13 12 10 16 18 18
16 15 16 16 16 16 16 18 22 22 24 27 26 19 23 25 27 30 34 35 36 27 26 27 29 29 30 35 41 40 35 44 43 28 24 25 24 21 14 14 14 14 21
14 12 14 13 14 15 16 17 19 20 22 23 24 23 22 23 24 27 30 31 31 23 22 22 27 30 28 30 36 40 45 32 40 46 43 36 29 28 21 18 16 18 20
11 11 12 11 11 12 13 14 16 18 20 20 20 21 21 22 23 25 28 31 34 29 18 17 21 25 26 27 29 35 42 43 47 47 48 47 43 43 36 28 20 20 19
9 7 7 8 10 10 10 13 16 17 19 20 18 17 18 19 21 23 25 28 29 32 17 18 21 25 27 31 34 33 38 43 47 49 51 47 45 47 47 42 45 30 15
8 6 5 6 7 8 8 10 12 14 16 17 17 17 16 16 18 21 24 26 28 29 25 9 16 20 24 24 27 32 38 38 39 41 44 42 46 43 47 53 55 53 53
8 6 5 4 5 7 8 9 10 13 14 15 16 15 15 15 16 17 20 24 27 28 29 25 9 12 17 17 23 24 30 32 35 38 40 41 46 41 46 50 53 53 51
8 6 3 1 2 4 6 8 10 11 12 13 15 16 17 19 19 19 18 22 24 26 26 25 16 9 10 16 22 18 24 29 31 31 34 41 39 40 54 48 52 54 56
9 7 4 2 4 7 9 11 12 13 14 14 15 19 20 21 23 22 24 24 26 26 28 25 22 17 19 19 17 16 21 22 25 30 31 34 35 38 50 48 47 52 53
12 9 7 5 5 7 9 10 11 11 13 17 19 21 24 26 27 29 28 28 27 29 28 27 27 23 23 25 22 17 19 19 27 29 33 34 36 39 49 47 48 52 55
13 9 8 6 7 9 10 13 15 16 17 21 23 24 27 31 33 34 36 39 40 39 38 35 33 33 27 26 28 29 25 26 29 31 38 40 39 39 43 53 54 54 57
13 12 11 11 11 13 14 17 19 22 23 24 27 30 32 33 36 41 42 43 43 44 44 43 37 35 34 31 30 32 30 29 32 34 34 42 44 42 44 47 57 56 60
16 17 18 17 17 18 19 22 24 25 25 28 32 35 38 42 45 47 48 47 44 44 43 42 42 37 32 31 32 30 32 30 30 32 35 42 42 45 47 48 52 56 59
21 23 23 23 22 24 25 27 29 29 31 35 38 41 44 46 46 43 42 41 40 41 39 37 35 35 29 31 28 27 20 25 28 31 34 39 43 45 48 51 51 55 61
25 28 28 28 28 28 29 31 33 33 36 40 44 47 44 39 37 37 41 41 40 38 37 35 33 33 30 28 23 18 21 19 23 31 35 41 47 52 53 53 55 61 64
26 31 33 33 32 32 32 35 35 37 40 44 47 41 35 33 33 38 40 41 39 35 30 35 30 27 23 25 21 17 23 23 30 34 43 45 48 53 55 55 56 60 65
30 33 34 35 35 33 35 37 38 41 43 44 38 33 32 35 36 40 45 48 34 27 30 27 25 20 13 9 12 12 18 17 24 30 40 45 50 51 55 57 56 59 64
35 36 37 37 36 35 36 37 40 43 43 34 31 33 36 39 43 44 45 47 35 31 25 20 17 10 9 12 11 12 18 20 22 29 39 43 50 50 56 59 63 61 62
39 39 38 38 37 37 38 39 41 44 35 32 30 30 32 36 41 45 46 46 39 30 19 9 12 12 14 16 18 21 17 17 24 33 38 47 51 54 56 61 64 63 61
39 37 35 38 40 40 40 40 43 35 33 31 31 31 34 39 40 41 45 42 41 31 27 26 23 20 18 22 27 23 22 26 29 37 42 48 56 62 61 64 66 66 65
41 41 41 43 43 44 44 44 35 32 32 30 33 33 37 41 41 41 37 41 45 42 30 31 31 28 31 29 27 28 31 35 34 41 50 52 57 60 64 67 65 69 69

GFSMA_250_spd_036.txt.gz
Wind_Speed
23 24 30 32 32 32 33 31 31 31 32 34 38 40 37 39 37 37 39 41 38 36 30 25 20 18 18 16 14 12 9 8 9 7 6 6 13 17 16 15 13 13 14
26 28 28 30 30 26 24 21 19 26 19 27 31 34 35 37 37 38 36 39 38 38 36 34 34 31 29 27 25 20 16 13 11 8 6 5 5 9 14 16 17 17 17
29 24 23 22 21 20 21 20 16 11 16 21 29 32 33 35 35 33 30 31 31 30 32 32 31 32 34 33 27 25 23 18 14 13 11 7 6 6 8 10 14 16 18
24 19 18 17 16 16 17 20 17 11 14 23 24 28 32 34 34 33 31 28 28 31 31 29 34 34 37 35 33 25 20 20 22 23 20 15 12 11 12 14 15 15 13
22 20 20 15 13 18 19 22 23 20 24 21 22 23 27 28 32 35 27 24 26 27 28 33 35 37 39 36 40 38 40 36 29 28 31 27 21 10 11 14 15 17 19
18 17 16 15 15 17 19 22 23 24 21 22 21 23 26 26 30 31 28 19 22 23 26 25 31 33 37 43 39 45 49 48 50 37 39 38 29 29 25 18 15 17 19
14 13 13 14 13 15 18 20 21 21 20 20 21 22 23 24 25 27 26 20 17 17 23 21 25 25 29 35 40 43 43 45 39 44 41 48 48 38 34 36 32 24 20
13 10 10 11 11 13 15 18 20 21 20 19 19 19 20 22 23 26 28 25 13 15 18 17 18 23 23 26 29 31 35 31 38 37 37 36 40 43 41 34 31 31 31
13 11 9 7 9 11 14 17 19 19 18 16 16 16 19 20 21 24 26 28 23 12 14 14 21 19 21 24 24 24 27 26 28 36 35 28 37 39 34 32 31 33 31
11 10 7 6 6 8 10 13 13 12 13 13 12 12 12 15 19 22 24 24 24 21 9 10 12 15 14 20 23 24 22 21 21 26 27 25 30 39 35 33 34 41 49
9 8 6 5 5 5 6 7 7 7 7 7 8 10 13 15 17 20 22 25 25 23 22 14 10 12 14 15 19 19 18 23 26 25 29 30 31 34 37 39 38 40 43
10 8 8 5 3 3 4 6 8 10 10 11 13 13 14 16 20 22 24 24 24 26 22 21 18 11 15 18 17 17 15 21 26 26 27 35 34 33 36 37 40 42 43
11 9 7 5 2 1 4 7 10 11 12 14 16 18 18 18 19 21 22 24 27 27 28 25 25 22 21 22 22 17 13 16 23 23 31 37 37 36 34 34 36 38 43
11 9 8 6 6 5 7 8 10 12 11 12 17 21 23 25 26 26 28 29 30 31 31 31 29 28 29 27 25 22 24 21 22 24 31 39 35 33 36 37 39 41 44
12 12 10 11 10 10 9 9 11 14 15 17 18 20 24 29 31 34 36 37 38 38 37 34 35 33 30 29 30 26 26 31 32 32 31 30 34 31 35 38 40 45 46
16 16 13 14 12 9 8 8 12 15 17 16 18 22 27 32 37 41 43 44 41 36 35 34 33 34 34 33 32 29 29 32 33 34 27 24 30 34 38 39 41 46 50
18 19 17 17 15 14 11 11 13 19 20 21 23 28 32 36 41 42 37 33 34 36 36 34 32 30 30 29 29 31 30 31 32 22 18 19 28 31 39 40 47 49 51
20 22 22 21 20 19 17 16 19 22 25 26 29 33 38 42 39 31 28 31 34 37 38 33 28 27 29 29 28 30 30 28 19 17 15 18 29 33 38 41 46 50 56
22 22 23 24 24 24 22 21 23 26 29 31 33 39 42 38 29 29 31 32 33 34 33 31 31 31 31 25 24 26 25 21 15 18 17 25 28 31 34 40 46 50 54
23 23 23 26 27 27 25 25 28 29 32 33 36 39 38 29 30 30 31 33 33 33 29 26 27 30 27 27 20 16 11 7 14 17 22 23 29 31 37 44 48 52 54
28 26 26 26 28 29 28 30 29 30 32 34 39 41 27 25 24 31 35 41 38 35 34 30 31 27 28 21 13 6 2 4 6 18 19 22 20 31 37 41 47 54 56
31 31 33 32 30 28 28 30 30 31 32 36 39 33 26 25 25 29 33 36 41 40 40 31 35 26 23 15 7 7 12 15 19 19 18 22 29 37 38 44 46 53 53
34 33 34 33 31 31 31 30 31 31 33 36 39 30 28 23 25 30 33 34 32 35 33 34 37 36 22 15 17 14 16 19 27 27 28 31 33 42 49 53 50 51 54
34 36 36 35 35 33 32 33 32 32 35 38 35 30 29 29 30 33 35 35 33 33 34 32 33 36 36 29 24 27 28 29 33 32 35 40 41 46 51 56 58 56 57
39 38 38 38 34 31 29 30 34 35 37 38 34 30 29 31 31 34 36 39 41 39 41 39 32 33 35 39 36 32 32 33 39 40 42 39 47 47 48 58 59 61 61
42 43 42 40 37 35 33 33 34 39 39 38 35 31 31 34 34 35 36 38 42 46 47 45 38 33 38 40 39 39 37 38 37 41 45 44 47 50 53 59 60 63 63

GFSMA_250_spd_039.txt.gz
Wind_Speed
29 27 29 28 25 20 21 21 26 28 31 33 36 34 31 31 33 33 37 37 34 35 34 34 31 33 25 21 19 14 13 12 11 10 10 11 9 11 15 16 14 14 13
26 25 24 22 20 17 12 12 23 24 29 31 34 35 32 28 29 28 33 34 30 32 34 37 38 35 33 27 25 24 23 21 18 12 8 7 8 9 9 12 14 15 17
22 21 18 17 18 19 14 13 18 24 24 26 30 34 32 27 25 28 29 32 28 38 40 44 43 40 36 33 37 36 34 33 29 27 21 11 7 9 10 12 14 15 14
19 18 13 16 19 18 19 15 16 19 22 23 27 29 32 30 23 25 24 27 33 34 37 38 43 43 46 45 49 48 48 47 42 39 37 35 25 14 12 13 14 15 17
19 16 11 14 17 19 21 21 20 20 22 23 26 28 30 30 22 17 19 22 23 25 27 28 32 36 34 37 43 41 42 41 45 46 41 40 40 38 35 27 21 17 16
17 15 15 13 14 17 18 19 20 19 22 20 25 26 29 29 26 17 15 20 19 21 26 25 21 23 26 29 31 33 37 36 34 40 39 40 38 35 38 37 37 33 35
13 11 12 12 14 15 16 16 18 17 19 21 21 24 25 26 29 28 15 14 14 14 17 20 17 21 27 22 25 25 26 28 28 29 36 37 35 32 30 34 38 33 32
11 9 9 10 11 14 14 15 16 17 17 18 17 20 21 22 25 26 28 16 15 15 17 18 17 19 24 23 23 23 26 28 27 23 29 32 32 27 28 28 27 30 33
10 9 8 6 8 11 12 13 14 16 16 16 17 18 19 21 23 23 23 22 21 17 13 13 13 13 14 21 21 23 25 24 26 34 31 31 32 30 27 28 28 31 36
11 9 5 4 4 6 8 9 10 11 12 13 15 17 19 20 21 21 21 22 22 21 20 18 18 18 18 15 19 19 18 22 22 27 36 41 33 31 31 33 35 38 38
11 9 6 3 2 1 4 6 7 8 8 11 14 17 18 18 20 24 26 25 24 24 22 22 22 23 22 22 19 22 19 19 22 23 29 37 29 30 31 34 37 38 42
12 11 8 5 3 1 1 3 5 8 11 13 14 17 19 21 22 23 24 25 27 29 29 28 26 24 24 24 22 22 21 17 18 18 25 37 30 28 30 34 36 38 38
14 12 11 8 6 5 6 7 10 12 12 11 12 16 17 21 25 28 31 33 35 35 36 34 32 29 26 24 24 23 24 23 24 25 24 24 27 28 31 33 34 37 38
16 13 11 9 9 8 8 9 9 11 12 13 14 16 20 24 29 33 37 38 38 34 31 31 32 31 29 26 27 26 25 26 27 28 24 21 21 25 25 32 34 37 39
15 14 13 12 11 10 11 9 7 11 13 16 18 20 25 29 33 38 39 31 28 28 31 32 30 28 26 25 26 26 27 27 25 30 30 18 13 20 26 29 32 37 38
16 16 14 13 14 14 12 9 8 10 16 20 23 25 30 35 40 37 28 30 33 34 34 36 35 26 26 26 24 25 24 28 29 29 27 8 9 16 23 28 33 33 35
21 20 19 18 17 17 14 13 13 13 18 23 27 28 32 38 39 30 30 31 32 36 36 35 31 26 26 26 23 26 26 24 28 25 11 12 13 15 23 27 33 34 34
23 23 22 20 18 17 18 18 18 18 21 25 28 29 33 39 28 28 29 32 36 40 40 35 35 33 30 30 27 23 20 17 17 14 10 12 18 16 21 24 29 33 38
25 23 22 20 20 20 21 22 21 22 25 27 28 29 33 34 24 25 25 29 33 36 41 40 37 41 43 38 25 17 15 11 4 5 12 18 20 16 20 26 27 36 39
28 26 23 20 19 20 20 23 25 26 27 27 27 29 33 29 22 21 21 27 29 32 32 37 38 38 40 40 25 14 10 5 5 10 14 17 12 14 22 26 29 33 39
32 29 27 24 21 20 21 24 25 25 26 27 27 29 34 29 26 25 26 28 26 28 31 35 43 42 35 35 26 15 6 6 9 17 19 21 16 16 25 28 32 31 42
36 32 30 28 26 26 26 26 26 26 28 27 27 29 32 30 26 26 26 28 28 27 33 36 37 41 39 35 32 25 17 18 19 17 25 31 25 32 32 29 29 42 46
38 36 33 32 30 29 28 27 28 27 28 28 28 32 33 33 28 28 27 27 23 26 30 35 37 36 40 37 35 31 25 25 26 28 26 31 30 31 33 40 41 42 47
40 39 38 36 32 31 29 29 29 29 26 27 30 33 36 36 28 30 29 29 23 26 30 30 32 32 30 37 37 37 34 28 32 34 30 30 30 34 35 41 44 49 51
41 40 40 39 36 34 31 31 31 29 29 31 32 37 40 40 31 30 29 31 31 30 33 35 33 29 27 34 37 34 35 34 35 37 37 34 37 38 42 46 47 51 50
44 43 43 42 41 38 34 35 34 35 34 35 36 39 42 42 34 31 30 32 32 31 34 36 34 34 30 33 34 36 37 35 31 33 39 44 44 44 48 50 50 51 44

GFSMA_250_spd_042.txt.gz
Wind_Speed
26 27 21 17 18 21 29 28 29 33 36 33 28 28 30 35 36 40 41 43 46 39 42 43 44 43 41 39 38 32 29 20 16 10 9 9 11 12 11 12 12 12 14
26 22 18 15 15 19 24 25 25 30 36 36 31 28 31 30 30 37 40 41 42 42 43 47 44 47 49 48 48 46 43 41 33 24 16 15 14 15 17 17 16 13 14
23 21 19 17 17 18 23 24 26 28 32 32 32 28 27 31 29 31 33 35 34 37 34 37 37 41 43 44 45 48 48 49 46 48 44 39 33 29 27 25 27 26 22
17 19 19 19 17 22 23 22 24 26 29 30 32 31 28 23 25 24 25 28 30 28 28 24 29 32 34 37 37 42 43 39 43 47 47 45 42 40 42 42 41 38 38
16 15 15 15 16 20 22 22 22 26 27 30 31 32 33 27 20 22 21 23 26 27 25 25 27 27 27 29 33 33 35 39 39 36 35 34 34 34 34 35 36 36 36
15 13 13 14 14 17 19 20 20 23 25 26 27 27 28 30 27 18 19 20 21 23 21 22 26 26 27 28 28 32 38 33 33 34 33 30 29 33 33 34 35 35 32
12 12 13 12 12 15 18 18 18 21 23 23 24 24 25 27 27 28 21 18 19 19 21 21 19 21 25 26 28 30 30 38 40 36 37 36 31 33 31 31 29 30 30
10 11 9 11 10 13 16 17 19 19 21 22 23 24 25 25 24 23 21 21 22 22 21 22 19 20 20 22 23 23 27 29 28 34 37 34 28 29 31 32 33 33 34
7 7 9 10 10 10 13 14 15 16 17 18 20 23 25 25 24 23 22 21 21 20 20 20 20 20 19 21 20 21 21 20 20 27 34 39 26 29 33 35 33 34 34
8 7 4 6 7 7 8 10 10 11 13 15 18 19 20 20 22 26 26 26 26 27 26 24 22 21 20 18 18 17 19 16 16 20 28 32 27 29 32 33 32 31 33
8 6 2 3 4 4 4 5 9 12 14 15 15 18 18 20 23 25 28 31 32 31 29 26 25 22 20 20 17 17 16 16 15 18 21 18 24 25 26 29 32 34 33
8 6 3 2 1 2 3 8 12 14 14 13 15 18 20 23 27 31 34 35 31 27 26 24 22 20 19 18 19 18 16 16 17 19 19 11 17 19 20 26 28 30 34
11 9 7 6 2 2 5 8 12 13 14 16 17 19 21 26 31 36 36 29 27 29 29 28 27 24 19 17 17 19 18 18 16 16 20 20 13 11 17 22 23 26 26
13 12 10 9 6 6 6 7 6 9 13 16 19 20 23 27 34 36 29 29 31 35 35 35 31 28 22 18 20 20 21 21 19 19 18 22 12 7 10 16 20 23 30
15 15 12 11 9 9 7 5 3 4 10 15 20 23 25 29 36 28 26 28 31 34 36 35 33 27 19 17 19 21 20 22 23 24 25 24 15 12 10 16 21 23 27
18 17 15 13 13 12 11 9 8 7 12 17 21 24 26 30 36 27 26 25 29 31 35 39 38 34 32 22 16 16 18 18 21 20 20 14 14 14 7 12 17 19 25
20 21 18 16 15 15 13 13 14 13 15 19 24 25 26 29 34 27 24 26 28 30 32 38 41 42 36 35 24 17 15 16 16 16 12 10 19 11 8 10 13 18 25
25 24 23 19 18 17 15 15 16 17 17 21 25 26 27 28 33 28 24 27 28 28 31 38 39 40 40 34 31 28 22 14 11 8 4 13 11 8 9 10 11 16 20
28 28 25 20 18 17 16 15 15 17 20 22 24 26 26 27 32 30 26 26 29 28 30 37 40 38 37 36 27 24 23 17 12 5 4 11 14 15 15 15 19 23 31
33 32 28 23 17 16 15 12 14 17 21 21 22 23 24 26 29 31 28 26 26 26 29 32 35 37 37 35 32 26 14 12 12 13 13 13 17 22 21 22 27 30 33
35 34 31 26 21 18 17 18 19 21 22 22 23 23 24 24 27 29 28 26 24 22 24 25 27 30 32 31 30 31 28 20 15 14 22 25 24 21 22 25 28 28 30
38 36 35 32 26 24 23 21 22 22 23 23 23 26 24 23 26 31 30 27 24 23 23 25 24 26 28 26 27 28 30 29 28 20 20 27 24 27 26 27 30 30 35
41 38 38 36 32 28 26 26 26 25 25 24 24 23 23 24 28 31 31 28 24 23 23 26 26 26 26 24 28 30 29 27 31 30 29 33 29 29 29 33 38 39 39
42 42 40 38 36 33 30 30 30 28 26 25 24 25 25 26 28 31 34 29 21 23 21 22 22 22 22 22 22 24 25 28 32 34 32 30 37 37 37 43 45 53 56
44 42 41 40 40 38 35 33 33 32 31 30 29 29 31 31 30 32 36 34 26 25 25 24 20 20 21 22 23 24 26 28 31 36 38 34 39 39 41 47 50 54 56
46 45 43 43 41 40 39 37 36 37 37 33 32 35 36 36 34 34 37 37 31 25 27 28 26 24 24 26 27 29 30 33 34 35 45 38 45 46 45 45 45 49 54

GFSMA_250_spd_045.txt.gz
Wind_Speed
20 18 23 25 25 26 30 35 37 37 33 36 34 34 38 39 40 40 43 41 40 43 47 47 48 50 53 53 52 54 49 40 31 26 23 22 22 22 20 17 14 13 15
20 20 19 23 23 25 29 31 35 36 35 32 32 29 30 33 34 34 34 34 32 34 37 38 39 41 41 44 47 46 46 47 48 45 45 45 46 40 38 34 32 31 30
18 24 25 23 21 25 28 30 33 36 39 38 31 29 27 29 31 31 32 30 27 27 27 27 30 34 38 39 37 38 41 41 41 42 45 44 44 42 40 39 40 38 36
18 20 24 24 24 24 25 29 30 33 35 36 35 28 23 25 23 25 25 27 26 24 27 27 31 31 29 41 41 38 38 35 35 34 37 35 34 33 34 33 33 35 34
15 18 18 21 22 22 23 25 27 29 29 30 31 32 29 21 20 23 23 25 25 25 25 26 28 30 30 31 37 40 41 38 40 34 34 35 35 35 35 34 35 33 30
11 14 18 19 20 20 20 21 24 25 26 27 27 27 26 26 25 23 24 22 20 21 20 19 20 21 24 27 30 31 32 32 40 32 31 32 33 33 32 31 31 31 30
11 13 16 17 19 21 20 21 22 22 24 25 25 26 25 24 21 19 19 20 20 20 20 19 20 20 16 17 19 21 22 26 31 34 26 25 27 28 28 29 29 30 29
9 9 14 14 15 17 16 17 20 21 21 22 22 21 22 22 23 22 21 20 19 17 16 17 17 16 14 13 13 15 15 16 18 24 27 22 27 28 28 30 30 32 34
5 7 10 11 12 12 13 14 16 16 17 18 20 20 21 22 24 26 27 27 25 21 19 16 13 12 11 11 9 10 10 11 12 15 21 19 23 23 26 27 28 31 33
4 3 7 9 8 8 10 12 13 14 16 17 19 19 21 25 28 31 32 29 26 24 21 19 16 12 10 9 9 9 6 5 8 11 13 11 15 17 19 21 26 27 28
3 1 3 6 5 5 7 10 13 15 16 16 17 18 23 27 32 33 29 29 29 30 27 22 18 18 15 11 11 10 9 7 7 11 11 5 9 11 16 19 21 21 24
4 4 3 1 2 2 6 9 12 14 15 16 17 19 22 27 34 31 29 29 30 32 34 24 17 13 15 16 14 15 15 12 13 10 15 10 11 7 12 15 17 21 19
7 8 7 4 1 2 6 8 10 11 13 16 19 21 24 29 36 31 29 28 31 36 35 30 23 16 10 14 16 16 17 19 19 17 16 16 12 6 8 9 12 13 16
11 8 8 7 5 4 6 8 6 6 10 14 19 22 26 28 32 32 29 28 32 32 34 37 29 26 16 11 11 13 15 17 19 21 21 24 18 8 4 5 6 9 14
13 11 9 8 8 6 6 8 7 5 9 15 18 22 24 25 30 32 28 28 30 31 33 35 36 30 32 27 19 14 13 13 16 16 19 22 24 17 9 8 7 10 14
16 13 12 11 11 9 9 9 11 10 10 15 18 21 22 24 27 29 28 24 27 29 31 33 33 31 28 31 30 24 17 11 10 14 14 14 15 19 10 10 12 12 10
18 16 16 15 13 13 13 13 13 15 15 15 18 21 21 22 23 27 26 22 24 27 30 33 33 31 28 26 25 25 25 22 16 10 7 9 11 13 14 14 18 17 15
20 20 19 18 16 15 15 16 14 15 15 16 19 20 20 21 21 24 25 22 24 23 27 32 32 32 28 23 21 17 18 19 17 15 14 14 8 8 10 18 23 22 24
23 24 23 22 20 18 16 17 14 13 13 17 19 19 19 19 19 21 25 23 22 22 22 26 29 29 27 27 27 22 14 14 16 15 12 12 10 10 15 19 21 22 25
27 27 26 26 25 20 17 16 13 13 15 18 20 20 21 19 19 19 22 25 21 24 22 21 25 26 24 25 28 29 26 18 13 15 15 16 18 21 21 20 23 25 28
31 30 30 29 28 26 22 18 18 19 20 21 22 21 23 21 21 19 19 23 22 22 23 20 20 21 20 21 22 22 26 28 22 22 22 17 21 20 22 23 27 31 34
35 35 34 32 33 32 29 24 23 24 24 23 23 23 25 25 20 21 21 23 26 20 22 22 19 17 18 20 21 22 22 24 27 29 30 30 29 29 30 33 33 35 36
39 40 37 37 34 34 35 32 29 29 27 26 25 25 26 25 23 24 23 22 24 24 23 23 20 17 16 16 15 17 19 22 26 25 26 33 31 36 39 38 39 38 37
43 43 41 39 38 37 37 37 35 33 31 30 29 28 27 28 27 27 28 25 25 27 25 26 27 23 18 16 15 16 17 21 27 25 23 33 34 40 44 49 52 46 43
40 45 44 43 41 40 40 39 39 38 36 34 33 32 29 30 31 31 32 31 27 29 30 29 29 29 26 23 22 22 21 24 28 35 30 33 39 39 45 51 56 60 61
40 41 47 47 46 44 42 41 42 41 40 39 38 36 34 33 33 33 35 34 33 31 33 35 32 35 33 29 26 26 28 31 30 33 37 38 38 40 43 54 59 64 67

GFSMA_250_spd_048.txt.gz
Wind_Speed
22 27 27 31 32 36 36 30 32 34 31 35 33 35 33 34 35 31 32 34 36 37 41 44 41 43 47 47 48 49 49 44 40 37 35 33 31 30 27 27 26 27 28
23 22 26 28 31 35 37 38 33 31 29 29 31 31 32 31 32 31 30 32 31 31 32 38 40 39 39 39 42 43 43 44 45 43 41 41 41 38 35 33 32 30 28
21 21 22 28 29 31 33 35 36 33 27 27 25 26 27 28 29 30 29 29 28 29 34 34 32 38 37 38 35 35 34 37 36 34 35 33 30 30 31 30 30 28 28
21 18 21 26 27 27 30 31 31 31 32 29 24 23 24 25 25 26 24 23 22 22 23 27 28 29 31 35 34 34 31 33 35 34 33 34 32 33 34 32 32 32 31
18 17 18 22 23 23 24 26 26 27 27 26 24 24 24 25 24 24 22 21 21 20 20 20 17 18 22 22 26 31 31 28 26 26 29 31 29 31 30 29 31 33 35
16 16 18 18 18 23 24 25 25 25 23 22 21 22 22 21 20 19 18 16 16 16 15 15 16 14 16 16 20 17 26 28 23 23 25 26 27 27 28 29 30 35 35
15 14 17 16 18 19 21 20 20 20 19 19 20 20 21 22 21 19 18 16 14 13 12 10 9 9 10 11 11 12 15 18 20 20 21 22 25 25 27 28 30 32 30
12 14 13 13 16 17 17 16 17 16 17 20 18 21 23 25 26 24 21 20 19 18 13 9 6 4 3 4 6 8 8 12 14 16 17 20 19 23 24 24 25 29 26
10 11 10 12 12 12 13 15 14 14 15 18 17 21 25 30 28 24 22 24 24 21 15 9 8 5 5 5 3 2 3 3 4 7 9 11 14 18 19 20 21 22 23
8 9 9 7 8 9 11 12 12 13 15 17 17 22 26 31 30 27 27 27 29 30 25 14 7 5 5 8 10 8 5 4 2 2 5 7 9 11 13 14 13 15 19
6 5 6 4 7 6 10 10 12 12 14 15 18 22 25 30 32 29 27 29 30 33 32 22 14 8 8 7 11 13 12 11 8 7 9 2 4 4 7 9 11 12 14
8 4 3 2 3 4 6 7 10 12 13 15 19 22 25 29 32 29 27 30 30 32 35 33 25 16 11 12 12 14 16 17 15 14 15 7 2 2 5 5 4 6 10
7 5 3 2 2 1 3 5 6 8 11 16 19 21 24 26 30 29 27 30 31 33 33 35 33 31 20 13 10 12 12 14 18 20 20 18 11 8 6 6 5 7 11
8 7 6 5 6 3 2 3 1 4 8 13 18 21 22 24 27 30 26 28 30 32 34 33 32 31 32 27 18 8 7 7 13 14 21 25 21 21 12 9 9 11 14
12 10 8 7 7 4 3 5 5 5 10 13 18 20 21 22 23 27 27 25 29 30 34 34 30 28 26 27 28 22 15 9 7 9 12 15 17 24 18 17 15 15 17
15 13 11 11 9 7 5 6 9 9 11 14 17 18 20 20 21 22 27 25 25 27 30 32 32 23 22 22 23 25 27 24 18 12 9 8 11 13 11 16 18 18 21
20 17 15 14 12 10 9 9 11 11 13 14 16 17 19 19 19 20 22 26 25 24 28 30 32 25 23 20 18 17 19 19 19 21 20 16 14 13 11 13 18 23 28
24 22 19 17 16 14 12 12 11 14 14 13 13 17 18 18 18 19 19 22 24 23 24 26 29 27 22 26 24 20 20 18 17 18 17 16 14 14 16 17 20 21 26
26 25 22 20 20 19 16 13 12 12 13 12 14 17 19 19 18 19 18 19 22 24 22 24 26 28 22 22 21 23 19 19 17 13 14 14 13 15 17 18 20 22 26
29 26 24 23 22 21 20 16 15 14 14 15 18 19 20 19 19 20 18 18 19 22 23 20 22 24 24 22 18 19 19 21 20 20 20 20 20 19 18 19 23 28 32
31 29 28 26 25 24 25 22 19 19 19 20 21 21 22 21 21 21 17 19 20 20 22 21 18 18 20 19 18 19 15 17 19 20 19 20 18 20 22 25 23 23 30
35 33 33 30 27 28 28 29 27 25 25 24 25 25 24 24 23 21 20 21 21 21 20 21 21 20 18 20 21 18 18 15 15 18 19 20 25 25 28 28 30 32 37
34 38 37 36 33 31 31 31 33 34 32 29 29 29 28 27 26 25 24 23 24 24 23 23 22 23 22 20 20 18 16 17 14 15 27 26 27 31 33 36 38 42 46
38 36 37 39 37 35 34 34 33 34 34 34 33 33 31 31 30 29 29 27 28 28 27 28 26 26 25 25 24 23 25 27 26 25 23 33 33 35 37 38 40 45 50
35 35 35 36 39 39 39 38 39 38 37 37 37 37 36 35 33 32 33 32 32 32 32 34 33 32 32 31 29 31 28 29 32 32 31 31 33 35 40 38 43 48 52
35 30 34 41 39 41 44 44 43 41 41 39 40 41 40 39 38 36 36 37 38 36 36 38 37 36 35 37 36 35 35 34 33 35 33 32 36 37 36 46 43 47 52

GFSMA_250_spd_051.txt.gz
Wind_Speed
29 31 33 31 31 32 30 28 31 31 31 29 34 33 33 31 32 32 35 37 37 42 41 37 41 42 44 46 46 46 45 44 44 43 40 36 36 34 33 31 30 26 26
26 29 32 34 33 30 30 27 26 26 26 27 30 29 30 29 29 27 29 31 33 33 35 36 36 37 36 36 35 35 34 36 35 33 31 28 28 30 27 27 31 32 36
22 26 28 31 32 33 32 30 26 25 23 23 25 27 28 26 23 21 20 22 22 23 26 28 30 32 31 30 32 33 33 29 31 31 32 32 36 34 33 31 30 32 31
20 22 26 25 26 27 28 26 26 26 25 25 25 26 25 23 22 20 19 18 20 20 17 17 18 23 28 28 27 28 28 30 32 31 29 31 32 34 32 34 35 31 29
19 17 21 21 21 22 23 22 21 22 22 22 22 22 20 18 17 17 17 17 16 15 15 14 13 16 20 22 25 24 23 25 25 26 26 31 31 31 31 31 31 30 30
18 17 16 18 18 17 18 18 18 20 21 22 22 22 21 18 17 16 16 15 13 12 11 9 10 11 11 13 16 19 20 21 20 23 22 25 27 25 25 28 25 26 29
17 15 17 16 16 16 15 15 15 17 20 22 23 25 25 21 22 22 21 19 16 14 9 6 4 4 5 5 9 10 13 15 17 18 17 19 21 21 20 23 20 21 24
16 16 16 13 13 15 16 14 14 17 20 22 24 29 28 24 22 23 24 25 25 16 9 7 3 3 2 1 2 5 4 8 8 7 11 11 15 19 18 19 19 20 19
13 11 13 11 12 13 14 12 14 17 20 21 23 27 30 27 23 26 28 30 32 29 20 6 4 3 7 7 5 4 2 2 3 2 6 8 11 13 14 12 13 14 16
12 11 10 8 8 11 12 11 13 16 19 21 24 25 29 30 26 26 29 33 33 33 33 20 8 7 7 10 12 11 10 8 6 5 3 3 5 6 7 7 7 9 11
10 11 6 7 6 8 9 10 12 14 17 21 23 24 26 29 30 27 30 33 34 34 35 33 25 12 5 9 10 13 14 13 10 9 10 2 2 2 2 2 2 5 10
7 8 5 4 4 5 5 7 8 10 13 17 21 23 24 27 31 29 28 30 32 36 36 36 32 28 14 2 9 11 11 13 16 13 15 11 7 3 7 9 7 11 11
7 6 5 3 2 2 2 3 4 7 10 15 20 22 23 25 29 31 29 28 29 33 37 37 34 31 30 20 8 3 8 10 14 16 15 18 15 13 15 13 14 16 19
9 7 6 5 5 4 1 2 5 7 10 14 19 22 22 23 25 28 31 30 29 31 34 36 34 32 30 32 27 16 9 4 6 8 14 16 18 18 21 19 19 20 21
12 9 7 5 5 7 5 4 5 8 9 13 17 19 20 20 22 23 26 29 30 30 32 34 30 29 26 26 27 28 28 23 17 10 6 8 12 14 15 17 17 22 22
14 12 9 8 9 9 8 6 6 8 10 12 14 16 18 18 19 20 22 26 29 30 30 30 28 27 28 24 22 22 22 23 23 22 19 16 13 13 12 13 14 18 20
19 16 13 12 13 13 12 9 9 10 10 12 13 13 17 17 17 18 19 21 25 28 27 26 26 26 23 23 24 23 20 17 19 19 18 15 14 15 15 14 15 17 20
24 22 18 16 17 17 16 14 10 11 10 11 10 12 16 19 17 17 18 18 20 23 24 24 25 26 23 18 19 20 18 15 14 14 15 15 14 13 14 15 15 17 20
27 26 23 21 21 20 19 18 15 12 10 10 10 12 15 18 18 17 19 13 18 21 22 23 22 24 25 22 19 16 15 13 14 13 13 14 14 15 18 18 19 22 23
26 26 24 24 25 23 23 22 21 16 13 12 15 15 16 19 20 20 16 14 15 17 19 22 23 21 21 24 23 19 16 15 10 11 12 13 17 19 17 16 15 20 23
29 28 27 27 27 27 26 26 26 23 18 16 16 18 20 21 22 21 20 18 17 16 17 19 21 23 23 21 22 23 19 14 16 12 14 20 19 21 23 27 30 30 30
31 31 30 29 29 28 28 31 30 28 26 23 22 23 23 25 26 25 23 22 21 20 19 19 20 21 21 23 22 21 24 25 23 23 25 23 29 30 32 34 34 32 35
31 32 31 33 34 32 32 33 33 33 32 31 29 29 28 27 28 28 28 26 25 24 23 22 22 24 27 25 25 26 23 26 29 29 31 32 35 39 40 39 38 39 42
33 32 32 36 36 36 36 37 37 36 36 34 31 31 31 31 31 33 34 33 32 30 29 29 30 29 29 30 31 31 31 30 29 32 29 35 34 37 40 41 41 40 42
34 33 32 35 37 37 36 37 40 40 39 37 36 34 35 35 35 37 38 37 38 36 35 34 34 34 34 34 35 35 36 35 35 33 31 36 41 38 41 41 41 44 47
38 36 30 31 36 38 40 40 40 39 41 41 41 40 39 39 39 40 41 41 41 39 39 39 39 40 39 40 40 38 37 38 36 37 33 40 39 36 39 45 44 45 48

GFSMA_250_spd_054.txt.gz
Wind_Speed
29 30 28 26 29 30 29 27 25 27 28 28 27 28 29 28 29 30 31 33 35 39 40 37 39 38 41 44 43 41 41 39 37 35 33 32 31 29 33 38 31 31 31
32 28 26 25 21 25 24 22 22 26 27 27 27 26 25 24 25 27 27 27 27 29 33 34 30 35 35 32 31 31 32 32 30 31 31 32 31 35 32 30 28 27 25
30 30 29 26 25 26 24 25 26 27 26 27 27 26 24 22 21 21 20 22 23 21 23 28 29 29 30 30 30 31 31 31 31 31 31 31 27 27 28 27 25 26 28
26 25 24 22 22 22 24 23 24 25 26 26 25 23 21 20 18 17 15 14 14 15 16 18 22 24 26 26 27 27 27 30 30 28 30 29 31 26 26 26 26 26 27
20 22 21 20 20 21 21 21 22 24 25 27 27 25 24 23 22 22 20 17 12 9 10 11 13 16 18 22 21 22 22 25 26 26 26 25 23 23 23 25 28 25 22
16 18 18 19 18 17 18 19 20 22 24 29 30 26 23 24 24 25 24 19 14 11 5 5 6 7 11 12 15 17 17 21 21 20 18 18 18 18 20 20 19 18 19
15 17 15 16 16 16 16 16 20 21 23 27 30 29 23 23 24 25 28 27 20 11 8 4 2 3 4 7 10 13 13 15 15 15 15 12 12 13 15 17 15 15 14
14 14 13 13 14 15 17 17 20 22 24 26 29 32 27 23 25 27 28 29 31 23 7 3 1 4 3 2 2 6 8 7 8 7 9 12 9 9 10 9 13 13 9
10 12 10 9 12 14 15 17 20 22 25 26 27 29 31 28 25 28 31 32 33 31 22 6 4 5 7 6 5 3 2 4 3 3 5 7 5 5 5 4 7 11 9
9 10 6 6 9 12 12 15 17 19 22 25 26 27 29 31 30 26 28 31 34 35 30 23 8 4 7 9 9 9 8 6 6 6 4 2 3 1 4 4 5 6 9
8 8 5 3 7 8 8 11 13 15 19 23 25 27 27 29 32 31 25 28 32 35 36 31 25 9 6 11 8 7 9 11 10 10 9 6 5 5 7 9 12 13 18
6 6 3 4 4 5 5 6 10 12 14 19 23 26 25 28 29 32 30 28 29 35 37 35 32 30 18 5 6 9 9 8 11 14 12 14 11 11 11 14 17 20 21
6 5 3 2 1 2 4 5 7 10 13 15 18 22 24 26 28 30 33 31 28 31 35 38 33 30 31 25 16 8 2 3 7 10 11 13 16 18 19 21 23 24 25
8 5 3 2 2 4 4 5 8 9 11 13 15 18 21 23 24 26 29 32 31 30 32 34 35 33 29 25 27 24 19 13 8 6 7 7 8 10 13 17 20 21 22
10 8 6 5 4 6 7 7 9 9 10 12 14 15 17 20 20 22 25 28 31 31 29 31 30 30 31 29 25 22 22 23 22 20 19 15 14 14 15 17 19 18 20
14 12 9 9 8 7 9 9 10 10 12 11 12 12 15 19 19 20 22 24 27 29 30 28 28 24 27 26 26 24 23 22 20 18 18 16 15 15 15 15 15 18 19
19 16 14 12 12 10 11 12 11 11 11 10 10 10 13 17 18 18 21 19 23 25 27 29 27 24 20 21 21 21 19 15 14 15 15 14 14 18 20 15 14 19 22
23 21 19 17 15 15 14 14 14 13 11 11 8 6 10 13 16 17 18 16 19 20 21 23 25 26 25 22 20 17 16 16 16 17 15 14 15 18 17 18 20 24 27
25 23 21 19 20 20 18 17 18 17 14 12 11 9 9 11 13 15 16 16 16 17 18 20 21 22 24 25 24 23 20 18 14 14 18 17 15 16 17 19 22 25 27
24 24 21 21 21 22 21 20 21 21 20 18 16 14 13 13 13 14 15 16 16 16 17 19 20 22 22 23 24 24 24 23 20 20 21 23 24 27 27 29 32 36 37
26 25 23 23 22 22 22 23 24 24 25 24 23 20 18 18 18 16 16 17 18 18 18 19 20 22 24 25 24 25 24 25 27 28 30 33 35 33 34 34 36 39 41
28 26 27 26 26 25 24 25 27 26 27 27 27 28 26 26 25 24 22 21 21 21 22 21 21 23 24 26 28 27 26 26 26 28 33 33 36 38 39 38 38 39 40
30 31 30 29 29 27 28 28 29 29 29 30 30 31 32 31 31 32 30 28 27 27 27 27 25 23 22 24 26 30 30 30 31 33 33 35 33 32 36 40 43 44 41
34 34 32 31 31 31 30 30 30 32 33 33 33 33 34 34 34 33 34 32 32 32 30 30 31 30 30 30 29 31 33 36 35 35 35 40 34 36 39 40 41 46 45
35 36 36 34 33 32 32 34 34 36 36 34 35 36 36 37 37 37 38 38 38 36 34 35 36 35 35 35 32 34 34 36 40 37 32 34 33 39 43 46 49 47 44
34 35 36 35 36 35 34 35 35 36 37 37 38 37 38 38 38 40 42 42 42 40 40 39 39 39 38 38 36 36 37 39 40 41 34 34 35 39 51 51 41 41 44

GFSMA_250_spd_057.txt.gz
Wind_Speed
28 24 22 22 24 23 22 27 29 29 28 26 25 24 24 25 28 29 29 32 35 36 37 36 39 41 41 38 37 36 35 34 33 34 35 38 33 28 26 26 24 26 22
25 20 22 21 21 23 28 29 28 27 25 24 24 21 21 21 22 21 22 25 28 32 32 34 34 31 30 30 32 32 32 33 33 33 34 30 28 25 21 20 21 19 17
26 25 24 26 25 24 25 26 26 27 28 29 24 24 26 24 21 17 16 18 21 25 29 31 30 30 29 30 29 30 30 29 30 30 27 25 23 20 22 23 21 21 19
22 21 24 25 24 23 23 25 26 30 32 30 29 29 30 29 25 21 18 13 13 15 19 21 24 24 24 24 26 25 26 27 25 27 27 23 23 24 21 18 18 20 19
16 18 19 21 21 21 22 23 25 28 33 31 27 27 27 26 28 24 18 13 9 8 11 14 16 19 21 20 21 21 23 25 23 22 16 19 18 19 17 15 16 18 17
16 15 18 18 19 20 19 20 23 27 33 33 28 28 28 24 25 27 27 19 8 7 6 7 9 12 14 15 17 18 19 17 18 16 14 13 13 14 14 13 13 13 10
14 13 15 16 18 20 20 21 24 27 31 33 30 28 28 27 28 28 30 26 18 5 6 5 6 7 10 11 10 12 14 14 12 11 8 8 8 6 8 11 10 11 9
11 11 12 13 15 18 19 20 23 27 28 30 32 31 26 25 29 31 31 29 25 16 5 7 6 5 5 8 6 5 5 6 6 6 8 5 4 4 6 8 10 9 7
9 8 9 12 14 15 16 17 21 24 26 28 30 30 32 27 25 29 32 32 27 26 17 4 6 5 7 6 6 6 5 4 4 2 1 4 3 4 8 8 10 11 15
7 4 5 9 12 12 13 15 17 21 24 26 26 29 30 32 29 28 29 31 31 28 29 20 6 5 7 7 7 7 8 7 8 7 7 5 4 6 8 11 13 19 22
7 4 3 4 8 9 9 11 14 18 20 24 27 26 28 29 33 33 28 29 34 31 31 32 25 12 3 4 6 5 9 12 12 11 11 12 11 9 13 16 18 24 27
8 4 2 3 5 6 6 6 11 15 19 20 23 24 25 25 29 32 32 29 32 33 35 33 31 30 21 12 2 5 9 8 9 12 13 13 16 15 15 18 21 24 25
6 6 3 3 2 3 5 7 11 14 16 17 18 21 23 24 24 28 30 32 29 30 32 34 34 30 28 28 24 16 10 6 6 6 6 6 8 11 13 18 20 18 18
9 6 5 3 2 1 2 4 7 10 13 14 15 18 19 21 22 23 26 28 30 29 29 30 32 33 31 27 25 25 24 21 17 13 12 14 14 14 11 14 14 16 17
11 10 7 6 5 5 3 2 5 8 11 11 12 14 17 17 18 21 21 24 25 29 28 29 29 29 30 31 31 27 27 25 21 18 17 18 21 22 20 16 15 17 20
15 13 11 10 9 8 7 4 3 5 9 12 10 9 14 16 17 20 18 20 21 23 25 28 27 27 27 27 26 26 25 23 23 24 22 18 15 19 19 20 16 21 27
19 17 16 13 12 11 11 9 7 6 7 9 9 6 10 12 15 17 18 17 18 21 22 24 24 25 24 22 21 19 19 20 17 20 18 15 17 17 16 19 25 28 31
25 23 21 18 17 14 12 12 12 9 8 9 10 9 7 8 11 14 16 17 17 17 19 21 22 22 22 22 21 21 20 19 18 20 24 25 24 24 25 28 30 31 34
30 28 25 23 21 19 17 15 15 14 12 11 12 12 13 12 11 12 13 14 16 17 18 18 18 20 21 22 23 23 22 22 22 23 24 23 26 28 30 32 33 34 35
30 29 26 25 24 22 20 18 19 17 15 15 15 16 17 17 16 15 14 15 15 16 17 18 18 20 21 21 21 22 23 26 27 27 28 32 31 32 30 30 34 39 39
26 26 24 26 25 23 21 20 20 19 18 18 18 19 20 21 22 21 21 22 22 21 20 18 18 20 21 21 22 24 24 24 24 28 29 29 35 35 36 32 33 41 41
26 27 27 25 26 25 23 24 25 23 22 20 21 22 22 22 25 25 26 26 25 25 25 23 22 21 21 22 24 26 28 29 30 30 33 33 35 35 34 33 33 41 43
25 28 29 30 29 29 27 28 29 28 27 25 24 24 26 27 27 28 29 29 29 29 29 29 27 28 27 26 26 27 29 31 31 30 36 35 37 37 34 34 36 41 47
27 27 26 28 29 29 29 30 30 29 28 27 26 27 28 29 31 31 31 32 32 32 32 33 32 32 31 29 28 29 31 32 34 34 34 37 38 38 35 36 39 43 41
29 29 29 28 30 30 31 31 32 33 32 31 31 30 30 31 31 33 33 33 34 34 34 35 35 34 32 31 31 31 33 34 36 37 36 37 38 39 35 40 42 43 37
31 29 28 28 28 29 30 31 32 33 32 30 31 29 28 28 29 32 33 34 34 35 36 35 34 33 32 32 33 33 35 37 37 37 36 36 36 33 38 42 42 42 37

GFSMA_250_spd_063.txt.gz
Wind_Speed
21 22 26 30 33 33 32 30 31 29 28 27 26 24 21 25 29 33 34 35 34 36 37 36 33 30 29 32 29 31 33 32 30 27 25 21 19 16 13 11 9 12 15
19 22 25 28 30 31 31 30 31 31 30 29 29 27 22 23 21 24 28 30 30 29 28 30 32 34 36 35 31 31 31 28 27 24 18 16 12 11 12 13 11 11 10
19 22 23 24 27 28 31 31 30 31 31 31 30 30 29 23 17 16 18 23 28 26 28 28 30 29 29 30 29 30 24 25 22 17 14 11 11 12 12 10 13 15 14
21 20 19 23 24 26 29 30 31 32 30 30 29 32 32 25 17 13 13 17 19 25 23 24 27 24 25 27 27 24 21 18 15 14 12 9 9 10 11 13 14 15 17
18 19 16 20 23 23 25 29 31 32 31 28 30 34 33 28 22 15 9 11 14 17 20 20 20 20 22 22 21 20 17 14 14 11 9 8 8 9 10 13 15 17 17
15 14 15 18 20 22 23 26 28 32 33 35 34 33 32 30 25 23 12 6 11 13 13 15 16 16 18 17 16 16 13 12 10 7 5 5 6 10 14 17 18 19 22
14 13 14 16 19 21 22 24 26 28 32 35 36 32 32 32 29 29 22 10 4 10 13 13 15 15 14 12 12 10 8 7 6 6 5 4 7 10 13 18 20 21 24
14 13 12 13 15 17 21 26 25 24 25 30 33 33 33 32 33 34 30 24 9 6 9 11 13 12 11 10 9 8 5 2 3 3 5 7 10 13 17 19 22 24 25
11 11 11 10 10 15 19 22 21 22 21 23 28 30 34 32 30 33 34 31 28 11 7 8 9 8 7 6 5 5 4 4 5 7 9 11 14 18 20 23 25 22 22
8 7 8 8 7 10 16 18 17 19 21 20 22 27 30 34 32 32 34 35 37 34 22 8 5 3 4 5 6 9 9 10 12 13 13 15 19 19 22 18 19 22 21
7 7 5 7 5 7 11 14 16 16 20 19 21 23 25 30 32 31 32 35 38 40 39 36 27 16 7 3 4 7 11 12 12 12 11 13 18 18 19 22 21 20 21
8 5 4 5 2 4 8 12 13 16 17 18 21 23 23 25 27 29 31 33 32 32 33 35 36 35 33 31 29 26 22 18 17 16 19 23 24 23 25 23 21 25 28
9 7 4 3 1 2 5 8 11 13 14 15 20 21 22 21 24 27 28 28 31 33 34 31 29 31 30 30 30 31 29 23 25 24 21 21 18 14 17 18 26 31 32
10 6 3 3 1 2 3 4 6 11 13 12 16 17 20 21 22 23 25 25 26 27 28 27 26 27 27 27 26 25 24 24 20 23 22 20 20 14 17 21 26 27 29
12 10 6 5 3 3 3 2 4 7 11 11 10 13 14 16 18 21 22 23 24 24 24 25 25 26 26 25 24 23 24 23 23 22 19 18 18 18 22 25 27 25 31
15 13 10 10 8 6 4 3 3 4 6 9 9 8 9 12 15 17 18 19 20 20 21 21 22 22 22 22 22 23 22 22 21 19 18 20 24 27 27 26 27 28 28
20 18 15 14 11 10 5 4 4 4 5 5 7 9 8 9 10 12 15 16 17 18 20 20 18 18 18 18 18 18 18 17 16 18 19 20 21 23 24 25 26 27 30
25 22 22 19 15 13 10 7 7 6 6 6 6 8 9 10 11 11 13 15 17 19 21 19 17 17 18 17 19 19 21 19 18 21 22 23 23 27 29 30 31 31 31
29 27 26 23 20 16 15 14 12 10 11 12 10 9 10 11 12 13 14 16 18 18 19 19 19 19 20 21 21 21 22 24 25 24 27 27 27 30 31 31 33 31 29
33 30 28 25 23 21 18 16 15 13 14 12 11 12 13 14 14 15 16 16 17 18 19 18 19 20 21 22 23 24 24 23 26 27 29 31 31 32 33 31 31 30 28
33 30 29 27 25 22 19 17 18 16 14 13 12 14 15 16 17 17 18 19 20 21 21 20 20 21 21 21 22 25 25 26 26 29 27 27 26 26 30 30 30 31 30
32 31 28 26 24 21 18 16 15 16 16 16 16 16 16 17 18 19 20 23 22 22 21 22 22 22 22 22 24 26 26 27 24 24 25 27 27 25 27 28 29 30 29
25 27 26 22 21 19 18 18 17 16 17 18 18 17 17 19 20 21 23 24 22 22 22 22 21 22 22 23 24 25 26 23 19 25 29 31 30 31 30 27 28 28 29
27 27 26 25 23 20 18 18 17 18 18 17 18 19 19 20 21 22 23 21 20 18 18 22 20 19 20 20 24 23 20 20 25 26 30 30 31 27 27 26 28 29 30
29 31 29 27 25 21 20 20 19 20 19 18 17 17 17 19 21 23 22 21 20 19 22 24 22 19 20 18 20 18 20 23 25 24 24 25 27 25 25 25 27 28 32
29 25 25 27 26 22 22 20 19 17 16 14 14 15 17 16 17 20 22 22 23 20 25 25 23 18 20 20 19 19 20 17 18 19 20 21 22 23 23 23 27 27 26

GFSMA_250_spd_066.txt.gz
Wind_Speed
27 30 32 33 32 32 33 34 34 33 33 30 25 22 26 26 32 35 35 37 39 37 32 30 30 32 32 35 34 33 30 31 28 22 19 17 14 13 13 13 15 17 17
25 28 27 30 33 33 35 34 33 33 35 33 31 22 20 22 28 31 32 32 34 36 37 35 34 33 33 33 32 30 29 26 22 18 15 15 13 14 15 15 17 16 16
22 26 26 28 30 32 35 35 31 30 34 36 34 27 19 20 24 25 27 30 30 29 29 29 29 29 30 31 28 28 26 21 16 14 11 12 15 15 16 16 16 18 21
21 24 23 25 27 29 33 35 35 34 33 35 34 30 27 22 18 21 21 24 27 26 24 24 24 24 25 23 22 21 19 18 14 12 13 12 11 10 12 15 19 22 26
17 20 22 24 25 27 29 32 35 37 36 36 35 32 32 28 18 15 18 19 21 23 22 20 20 20 20 17 15 16 15 14 11 10 9 8 7 10 15 18 22 25 28
14 18 19 22 24 25 25 28 32 35 37 36 35 35 36 33 25 14 14 16 17 17 20 19 19 17 16 14 13 11 10 8 5 5 5 5 9 14 18 21 26 26 23
14 14 15 18 21 23 24 26 28 31 34 36 36 35 36 34 30 24 13 14 13 14 14 17 16 16 14 12 9 6 6 3 3 3 7 10 14 18 21 24 22 21 23
11 11 11 16 19 19 21 23 24 26 30 33 37 37 37 35 34 33 22 13 15 14 13 12 14 15 12 9 8 5 2 1 3 8 10 13 15 18 21 19 19 23 21
9 7 8 13 16 18 19 21 23 24 25 30 34 37 37 36 37 38 35 25 13 14 13 11 10 8 6 5 3 4 6 8 10 12 13 15 15 15 19 20 22 21 25
4 4 7 9 12 14 17 17 21 22 24 26 30 32 35 34 32 35 37 38 32 18 11 9 5 2 1 5 6 8 10 10 9 11 15 20 24 25 25 24 25 26 29
2 2 5 6 8 12 14 16 18 20 22 24 26 27 29 32 35 36 36 36 36 37 37 32 25 20 18 18 17 16 16 14 16 21 19 18 20 23 21 19 27 30 29
3 2 3 2 5 8 11 15 15 17 19 20 23 25 25 27 30 31 33 35 34 33 32 32 31 31 30 31 27 29 30 26 24 22 19 21 19 16 19 24 27 26 26
7 4 1 1 3 5 7 10 13 15 15 15 19 22 23 25 25 26 27 28 30 30 30 30 29 28 27 26 26 23 21 21 20 19 19 20 20 19 23 24 26 27 29
8 7 3 3 3 4 4 6 9 12 13 11 14 17 19 21 23 25 25 26 27 27 27 27 26 25 24 24 24 23 21 21 21 21 21 21 21 21 24 26 27 27 26
12 9 7 5 5 4 5 4 7 7 9 10 10 11 13 15 17 18 20 21 23 23 23 22 22 23 23 23 23 22 21 22 22 23 22 20 21 22 25 28 28 26 27
15 13 11 8 8 5 4 4 3 4 6 6 7 7 8 10 11 13 15 17 18 20 20 18 19 19 18 18 18 18 18 18 17 16 19 21 22 24 27 28 31 30 27
21 18 16 13 10 7 6 7 6 6 7 8 7 6 7 8 9 10 11 12 14 16 15 15 14 15 14 15 15 15 16 17 19 20 22 24 25 25 26 28 29 31 30
27 24 20 17 13 10 8 10 8 8 7 9 9 8 8 8 8 9 10 12 12 13 12 12 12 12 14 16 16 16 17 19 19 22 24 26 28 28 26 27 27 28 29
32 28 25 21 19 15 13 12 12 11 10 11 11 9 8 9 9 10 11 12 13 14 14 12 10 11 12 15 17 18 19 21 23 24 25 26 27 26 25 23 24 28 31
33 31 29 26 23 20 18 16 14 11 11 11 11 9 9 10 10 10 11 12 13 15 15 14 14 14 14 14 16 18 19 20 21 19 20 23 25 27 28 26 26 30 29
33 30 30 29 25 23 20 19 16 14 12 11 11 12 11 11 12 11 11 11 14 14 14 15 15 15 15 15 17 19 20 19 19 15 18 20 23 24 24 26 25 26 25
33 31 30 30 27 24 21 21 19 14 12 13 13 12 12 11 12 14 15 15 14 14 13 12 14 15 16 16 17 18 17 13 13 18 18 20 22 22 21 20 22 23 25
32 32 31 31 30 25 22 21 20 19 16 15 15 15 14 13 13 14 14 14 13 12 11 13 15 17 16 17 15 14 14 17 16 16 19 18 18 18 20 19 19 20 23
24 26 26 24 24 23 21 21 20 19 20 19 17 17 16 15 14 14 14 14 14 12 13 15 16 15 15 17 13 10 12 12 12 14 14 16 16 16 18 19 21 21 20
25 24 23 24 24 23 21 21 21 23 21 18 16 15 13 11 12 14 14 13 13 10 12 13 13 13 14 13 11 8 4 10 7 8 10 12 14 16 16 19 22 22 22
29 27 26 27 27 26 24 23 22 24 23 15 10 11 12 9 10 13 12 13 11 9 13 12 11 11 11 12 8 2 5 3 3 8 10 9 9 11 16 16 18 20 25

GFSMA_250_spd_069.txt.gz
Wind_Speed
28 30 32 34 35 32 31 32 34 32 24 20 25 29 29 34 36 40 36 34 35 34 33 31 30 33 34 34 31 29 27 22 20 16 16 16 17 16 14 15 16 18 21
27 27 29 32 34 35 34 34 34 33 31 23 20 25 27 31 35 38 39 38 37 36 36 35 35 35 34 32 32 28 22 18 16 18 17 14 13 13 14 17 21 24 28
26 27 28 30 33 35 37 37 35 35 33 30 23 19 22 26 33 35 34 34 36 34 34 33 32 32 30 28 26 21 17 16 17 15 11 12 12 15 17 20 26 28 26
25 26 28 28 30 32 35 37 35 35 35 34 30 20 16 21 29 31 32 30 29 27 28 29 29 29 26 23 20 17 16 15 14 11 9 9 13 17 21 25 28 25 23
21 24 26 29 30 30 33 35 35 35 35 35 31 26 16 17 24 28 28 29 27 26 25 24 22 21 21 19 16 14 12 11 8 7 10 13 17 20 23 26 25 24 26
19 20 24 26 29 29 30 33 34 36 37 35 34 31 26 16 20 22 23 23 26 24 23 21 19 15 13 12 11 10 7 6 6 9 11 13 18 21 24 20 20 23 25
16 18 21 23 25 27 28 29 31 33 36 37 35 35 35 27 18 21 19 19 19 21 21 20 18 15 12 10 7 5 5 6 7 10 13 15 18 17 17 19 21 23 28
13 15 18 21 22 23 26 26 28 30 33 34 34 33 36 38 27 17 19 17 15 13 14 13 11 10 8 5 2 1 3 4 7 11 13 14 15 15 20 25 27 30 30
12 14 14 17 19 19 22 24 26 27 29 31 34 35 36 39 39 29 16 16 15 12 10 10 9 6 2 1 3 6 7 7 8 10 17 21 22 21 21 26 31 30 28
8 10 12 15 15 17 18 21 23 24 26 28 29 31 36 38 39 39 33 18 13 11 7 5 4 2 1 3 3 3 3 7 20 20 18 20 19 15 19 27 28 30 29
4 4 7 9 12 14 17 19 19 21 23 25 27 29 30 34 37 35 36 35 30 22 19 20 21 24 25 25 26 28 29 24 16 19 16 17 20 22 24 25 26 28 27
0 3 6 7 10 10 12 15 16 17 21 22 25 27 27 28 31 32 32 32 29 28 26 24 26 26 26 26 26 23 21 19 17 19 20 21 20 19 23 26 28 25 26
2 2 3 4 6 7 8 11 13 14 17 18 20 23 24 26 29 28 28 27 26 24 24 25 25 23 23 23 22 21 20 19 20 19 17 17 17 20 22 26 29 26 25
8 2 1 2 4 6 6 8 9 11 12 13 14 17 19 20 22 23 24 24 23 23 23 23 23 23 22 22 21 19 17 16 16 16 17 17 17 20 23 26 28 30 27
11 7 4 3 3 5 5 5 5 7 9 9 9 12 12 13 15 16 17 19 18 18 19 19 18 17 17 17 17 16 16 17 18 17 17 19 19 20 22 25 26 30 28
14 11 7 4 4 2 4 4 4 3 5 6 6 6 7 8 9 10 12 13 13 11 10 10 10 12 13 13 12 12 13 14 15 16 16 18 20 20 21 23 23 27 27
20 15 12 8 7 4 1 2 3 3 4 5 6 6 6 8 8 8 9 10 10 9 8 8 7 9 9 9 9 10 12 13 14 16 18 22 22 24 24 24 25 26 26
25 21 18 14 10 9 7 6 6 7 6 5 6 6 7 8 9 10 10 11 11 11 12 11 9 9 10 11 12 12 14 15 15 16 18 19 21 23 25 23 23 23 26
29 26 23 19 16 14 13 10 9 8 9 7 7 4 5 7 8 8 8 9 10 11 12 11 10 10 10 12 14 15 14 12 11 15 18 21 22 20 23 21 22 25 25
31 30 27 24 20 19 18 15 13 12 12 9 8 6 4 6 7 7 7 7 10 9 8 8 10 11 10 12 12 12 11 10 11 15 16 19 19 23 21 20 21 21 22
34 31 30 28 25 21 20 18 16 14 13 12 10 9 9 7 7 6 7 8 9 7 7 8 9 10 11 11 13 10 8 10 11 12 16 17 19 19 19 23 24 22 24
34 33 33 31 29 26 22 20 18 16 14 13 11 12 13 11 10 10 10 8 9 10 9 8 10 12 12 10 7 8 9 10 11 10 13 13 16 18 16 17 16 18 28
29 33 33 32 32 28 25 22 20 19 16 15 13 14 16 15 13 12 13 11 9 8 9 10 9 10 10 9 5 6 6 7 6 5 7 7 11 13 13 19 23 18 17
30 31 32 33 32 30 27 25 22 20 20 17 16 15 16 15 13 14 14 13 11 7 9 9 6 7 8 5 2 3 9 8 5 5 5 6 5 7 13 14 19 22 25
31 30 28 28 30 29 25 23 22 23 22 21 18 15 14 13 11 13 12 11 10 5 10 8 5 5 5 4 4 8 14 13 7 7 7 4 4 5 6 9 17 18 24
31 27 28 29 29 28 27 25 25 25 24 21 16 15 11 9 9 12 10 8 4 6 10 7 6 7 7 6 8 12 19 11 10 9 11 5 4 2 7 11 18 21 25

GFSMA_250_spd_072.txt.gz
Wind_Speed
33 32 34 33 31 30 29 27 21 17 19 22 29 32 32 31 30 29 29 29 30 28 27 26 27 27 29 28 26 23 20 19 14 13 12 12 12 15 18 23 28 24 21
33 31 31 34 35 33 33 32 28 21 18 20 25 30 31 32 32 33 34 33 33 33 35 36 34 33 30 28 24 20 18 17 14 13 9 12 15 19 21 25 24 22 25
31 30 30 33 34 35 32 33 32 27 18 18 22 26 28 31 33 36 38 37 36 36 35 35 32 29 29 25 21 19 17 15 11 9 11 14 17 19 23 22 20 24 27
26 29 31 32 33 35 35 35 34 32 27 16 18 21 24 25 29 32 35 34 33 32 31 30 28 28 23 20 18 17 15 12 10 10 12 14 18 21 20 19 22 25 27
23 26 29 30 31 32 34 35 35 36 34 27 16 19 22 21 25 27 30 31 31 30 28 26 24 20 17 15 13 12 11 8 7 11 13 15 20 20 17 21 23 27 28
21 23 24 27 28 29 32 34 33 34 35 34 28 15 21 22 22 24 26 30 29 26 24 22 19 17 13 10 8 8 6 6 9 12 13 16 15 16 22 25 27 28 29
17 21 22 22 26 27 29 31 32 33 35 37 36 25 18 21 23 22 22 21 19 18 17 15 13 11 8 6 5 5 7 8 9 12 12 11 13 18 25 28 28 29 28
14 18 21 22 23 25 26 28 30 31 34 36 38 36 22 18 19 22 20 18 18 15 13 10 7 5 2 2 3 4 5 7 9 8 14 18 15 19 22 25 28 29 29
12 14 18 20 21 23 23 26 28 29 30 32 34 37 37 21 17 16 15 14 12 10 7 5 3 1 2 4 7 8 6 5 12 17 19 15 16 20 24 27 28 25 28
7 11 12 16 18 20 21 22 25 27 28 31 31 33 36 37 30 15 11 8 7 5 3 1 2 4 4 3 4 9 16 17 12 12 13 14 19 21 23 28 30 27 27
5 8 9 12 14 16 19 19 21 23 25 28 30 31 32 34 34 34 31 24 19 16 14 14 16 18 23 26 26 23 17 15 14 14 16 19 19 20 24 28 31 26 29
4 7 7 9 11 12 15 17 17 19 22 24 26 28 30 31 30 30 30 28 25 22 21 20 20 21 20 19 17 17 16 15 17 18 17 16 18 20 23 27 28 25 26
2 5 3 5 7 6 10 13 14 14 15 18 20 22 24 26 27 27 26 24 22 20 19 18 18 18 17 16 17 15 15 16 16 16 17 18 18 20 23 25 25 26 28
3 3 2 4 5 6 7 9 10 10 10 12 14 16 18 19 20 21 21 22 20 19 17 17 16 14 14 13 13 13 12 14 14 15 17 17 19 20 22 21 23 24 27
5 4 3 2 2 4 4 5 5 7 6 7 8 10 11 12 14 15 16 15 12 11 10 11 10 10 9 9 10 11 12 15 16 16 15 17 18 19 20 22 21 22 24
10 7 5 4 3 0 2 2 4 4 4 4 4 6 7 7 8 10 10 11 9 8 7 7 7 9 10 11 12 13 13 13 14 15 16 18 20 22 22 21 21 22 24
15 12 9 8 4 4 3 1 1 3 4 4 4 3 3 4 6 7 8 9 8 8 9 8 8 9 9 10 12 13 12 11 12 13 16 19 20 21 21 23 22 22 22
20 18 16 13 10 6 6 5 4 3 4 3 4 3 1 3 4 4 4 5 6 7 7 8 9 10 11 12 12 12 11 11 12 15 15 17 18 19 21 22 22 21 22
27 23 21 20 17 12 8 7 7 7 6 6 5 3 4 2 3 4 3 3 4 5 5 5 7 8 10 10 10 9 8 10 12 14 17 16 19 19 18 25 26 21 21
31 30 27 25 22 18 15 12 10 9 10 8 7 5 4 5 6 5 4 5 6 6 4 4 6 7 7 8 6 4 7 8 13 19 18 18 17 19 20 23 24 24 25
34 34 33 31 28 24 20 17 15 12 11 11 8 9 6 5 6 6 6 7 6 6 7 6 5 6 5 5 5 5 6 9 15 20 18 21 20 16 12 20 25 25 22
30 34 36 35 33 30 26 23 20 16 15 15 13 10 9 10 9 8 7 5 7 8 7 6 7 8 6 1 3 3 5 11 14 14 15 14 17 14 15 19 24 22 21
30 32 34 36 36 34 31 28 25 22 20 20 18 16 13 13 11 10 10 8 7 7 8 8 6 7 5 0 7 7 9 13 11 9 8 8 9 9 9 17 24 22 23
30 32 32 35 37 36 34 32 29 26 25 24 23 20 19 17 12 12 13 12 11 8 9 8 7 8 6 3 9 12 14 16 13 12 11 10 6 4 10 18 21 25 24
33 34 35 33 36 37 36 34 32 31 29 28 26 24 21 19 15 14 13 12 12 9 14 11 9 7 6 5 12 18 18 19 16 16 17 12 6 7 11 16 21 23 26
39 36 36 36 36 37 37 35 34 33 32 31 26 26 24 20 16 15 16 14 12 12 15 13 11 9 7 8 11 18 20 21 21 17 20 19 13 14 15 17 20 20 22

GFSMA_250_spd_075.txt.gz
Wind_Speed
32 33 33 30 30 29 24 13 13 17 21 24 24 24 23 23 23 22 20 18 17 18 20 20 22 21 22 23 20 17 14 10 8 9 12 13 15 20 22 18 21 26 31
32 34 33 33 32 32 29 21 12 16 18 22 25 27 24 24 23 22 24 25 25 25 24 25 25 26 24 21 17 15 11 10 9 9 12 16 19 22 18 21 27 28 31
32 32 32 33 34 34 33 29 18 12 15 18 25 27 28 27 27 27 28 29 32 33 32 32 29 25 21 17 14 12 10 10 9 12 14 16 21 17 20 26 29 28 28
29 30 31 31 33 33 34 35 30 17 11 14 18 25 28 31 31 32 32 33 33 31 29 26 25 21 16 14 12 11 9 8 11 13 14 19 17 21 25 29 28 28 29
26 28 29 30 31 33 35 35 35 32 14 12 15 19 24 25 26 25 27 27 27 26 24 23 19 13 13 11 9 8 8 10 12 14 16 17 16 25 27 27 29 27 29
25 24 26 28 30 30 33 35 36 36 29 13 15 17 20 21 20 21 22 21 21 19 20 17 12 10 7 5 7 8 10 10 13 16 13 11 16 23 25 27 26 26 31
23 23 24 26 28 28 31 32 34 37 37 24 16 19 20 18 18 21 21 18 16 14 13 10 6 4 4 5 6 8 9 12 15 10 11 17 17 23 26 27 24 26 31
20 20 22 23 25 26 29 32 33 34 36 36 18 19 19 19 18 17 13 11 9 7 5 2 3 4 6 7 6 8 12 11 10 14 13 16 21 24 26 27 25 24 28
14 16 18 20 21 23 26 29 30 33 33 36 35 18 17 14 13 11 9 9 6 3 0 2 5 9 11 11 10 9 6 11 13 13 13 17 21 23 25 26 25 25 30
13 12 14 16 18 20 23 25 27 30 32 32 36 36 19 13 8 6 4 3 3 3 5 6 7 7 10 12 16 17 12 8 11 12 15 17 19 21 24 25 24 21 26
11 10 11 12 14 17 19 21 23 25 29 30 31 32 33 31 23 17 16 15 17 18 19 19 21 21 23 21 16 13 14 13 12 14 18 17 17 22 24 22 23 25 26
6 8 8 8 10 12 15 16 18 20 23 25 26 28 29 27 25 22 22 22 23 22 19 17 16 15 15 15 15 15 14 14 16 16 17 20 22 22 21 21 22 26 26
3 6 5 5 6 8 10 12 13 15 17 19 21 22 23 24 24 22 22 23 21 19 18 17 16 15 13 12 12 13 15 14 15 17 19 20 21 22 21 23 24 25 24
2 3 4 3 6 6 6 8 10 11 12 13 14 15 16 17 18 17 16 17 16 15 14 13 12 11 11 11 12 14 13 13 14 16 17 20 23 24 25 26 23 23 23
5 3 3 2 2 5 4 3 6 8 8 8 9 9 9 11 12 13 13 11 11 10 9 9 9 10 11 12 14 14 14 13 14 16 19 21 25 26 28 27 24 22 22
9 7 5 3 4 1 3 3 4 4 6 5 5 5 5 6 8 9 10 9 8 8 7 6 8 9 11 13 13 13 11 10 12 15 20 25 24 26 27 25 22 23 24
17 14 9 7 5 4 2 1 1 3 4 5 5 3 1 3 5 6 6 6 6 7 7 7 8 9 10 11 11 9 9 9 12 15 18 21 19 22 21 21 21 22 28
23 21 16 13 11 9 6 5 3 3 3 5 6 6 3 4 4 3 3 3 5 6 6 7 9 10 11 10 9 8 8 10 14 17 17 17 18 26 22 22 22 22 30
27 27 23 19 17 15 11 8 6 5 4 5 7 7 4 3 4 6 4 4 5 7 6 6 9 9 9 10 9 6 8 12 13 12 16 12 18 23 23 24 26 24 24
30 32 29 26 23 19 17 14 12 9 7 5 6 8 7 6 4 4 4 5 7 7 7 7 6 6 7 7 9 6 7 11 9 13 15 12 17 19 24 24 25 24 21
30 31 33 33 31 27 23 20 17 15 12 10 9 10 10 9 7 6 6 6 5 6 7 6 5 4 3 3 4 2 4 9 14 15 14 10 10 15 21 17 21 23 24
33 29 29 34 34 34 31 27 24 21 18 16 14 14 13 14 12 11 9 8 8 8 9 9 7 6 4 5 6 5 4 11 11 17 12 6 5 13 18 17 21 21 25
35 34 31 29 32 32 34 32 31 28 25 21 20 18 17 17 15 13 13 12 12 11 11 12 11 9 6 7 11 10 13 18 16 13 10 5 1 7 10 13 14 18 20
37 37 34 32 32 34 35 36 35 32 30 27 24 23 22 21 19 15 16 16 16 14 14 15 13 11 9 9 14 20 17 21 20 17 14 12 9 7 12 15 14 15 18
39 37 35 32 32 35 34 36 37 37 36 34 31 28 25 23 21 18 18 16 17 16 18 17 15 13 12 9 14 20 21 19 21 19 17 17 19 17 16 18 20 23 19
37 38 38 35 34 36 36 35 37 39 39 39 32 28 26 25 21 19 20 19 20 16 21 17 15 14 14 12 13 15 21 23 23 22 22 22 22 24 25 25 29 26 28

GFSMA_250_spd_078.txt.gz
Wind_Speed
34 34 34 35 25 14 6 12 18 24 21 19 19 22 23 21 18 17 16 14 13 13 13 17 17 19 22 18 13 9 7 5 7 12 16 20 22 18 20 25 28 28 32
33 35 34 35 34 27 17 10 17 24 22 21 22 19 19 18 15 14 15 13 13 15 18 20 23 21 18 14 12 8 4 8 12 14 19 22 17 18 24 27 29 27 31
33 31 33 34 34 34 29 17 12 18 23 22 23 24 22 18 15 14 13 16 19 23 23 24 21 17 15 11 8 5 8 11 14 16 18 16 20 23 26 28 27 27 28
29 29 29 33 35 35 35 27 13 11 19 23 25 26 25 24 22 23 24 26 26 25 25 21 18 14 10 10 7 8 10 12 16 18 17 12 22 24 27 26 22 28 26
27 29 30 29 32 33 35 34 22 11 13 19 23 26 28 29 29 29 28 26 24 22 21 17 11 12 9 7 9 10 11 13 17 17 12 15 23 26 26 23 23 28 24
26 27 28 29 30 31 32 34 33 15 14 14 19 22 23 23 23 23 21 20 18 17 15 9 7 7 5 8 9 10 12 16 15 11 15 19 23 24 27 24 24 28 25
23 25 25 27 30 30 31 32 34 26 16 13 16 17 18 20 20 19 17 15 14 11 6 5 5 7 8 9 8 11 14 12 13 16 18 17 21 23 27 26 24 31 25
19 22 23 24 27 28 30 32 34 34 18 19 15 15 18 19 17 14 10 8 6 4 3 6 8 10 10 10 10 11 12 13 11 14 15 17 18 22 27 27 25 26 26
16 19 20 21 24 28 29 31 33 34 30 21 18 14 12 11 9 6 4 3 4 4 7 9 11 10 9 6 6 9 8 6 12 15 16 16 18 23 24 25 23 23 25
13 16 18 19 20 23 25 28 31 32 32 28 18 14 12 10 8 5 4 4 5 8 11 15 20 22 23 20 17 13 9 11 13 14 16 22 24 24 23 21 21 23 23
11 14 15 15 17 19 20 22 25 28 30 29 30 24 18 16 16 18 16 19 19 21 19 19 18 17 16 16 14 12 11 12 13 19 24 25 25 23 22 21 20 23 23
7 7 12 10 12 14 15 17 19 22 25 25 24 22 22 21 21 20 20 21 20 18 17 16 18 17 15 14 12 13 14 16 19 23 24 24 25 26 26 23 23 22 23
2 5 5 9 9 10 12 13 14 16 18 19 20 20 20 20 21 19 19 19 19 18 16 15 14 14 14 14 15 16 15 17 19 20 21 24 28 29 27 27 23 23 25
2 2 2 4 7 7 8 10 11 12 12 13 14 15 16 16 17 15 13 13 13 12 11 12 12 12 13 13 15 17 16 16 20 20 22 28 31 28 28 28 25 26 31
3 1 4 2 2 5 5 6 7 8 10 11 10 10 11 12 12 12 10 9 10 9 10 9 11 12 12 14 14 14 14 18 17 21 24 27 26 26 27 25 25 29 33
5 5 6 8 3 1 3 4 5 5 6 8 8 7 8 9 10 10 9 8 8 8 8 8 8 10 11 14 13 13 15 15 17 20 20 23 23 21 23 24 22 29 28
15 20 23 15 7 5 2 2 3 3 2 4 6 6 6 6 8 8 8 9 11 10 9 9 9 10 11 11 12 13 12 12 16 16 20 23 20 19 19 20 20 21 23
18 21 21 19 11 10 7 7 6 4 2 1 2 3 4 4 5 7 6 6 10 12 10 10 10 11 10 11 9 9 10 12 14 15 18 21 20 21 19 16 20 21 21
22 24 24 22 21 17 14 12 10 9 9 6 5 3 2 4 3 3 5 5 6 8 8 8 8 8 8 9 7 8 10 10 12 11 15 19 18 20 22 18 19 16 18
27 26 28 29 29 28 21 17 17 14 10 10 8 7 6 6 6 6 6 7 7 8 8 8 6 4 3 4 3 7 7 9 8 10 10 13 11 15 18 20 19 19 20
33 31 30 30 29 28 26 24 22 20 20 19 15 11 9 10 8 7 7 9 10 9 9 9 7 8 4 3 4 6 10 10 10 7 8 9 8 14 17 17 17 19 20
35 35 32 31 30 30 30 30 29 28 25 24 21 18 13 12 11 12 10 10 12 12 13 12 9 7 5 4 8 9 13 13 11 8 5 5 7 8 11 15 18 19 26
38 36 38 35 33 31 30 30 33 33 31 29 27 22 19 16 15 15 13 12 13 14 14 14 12 10 6 10 12 12 15 16 16 11 9 4 7 11 13 13 16 19 21
39 41 39 38 37 38 35 34 33 35 37 34 32 29 25 22 19 18 18 15 14 15 16 15 13 11 9 10 15 19 16 18 22 16 13 13 14 20 20 20 22 22 21
44 44 44 41 40 39 37 36 35 34 35 37 36 34 31 29 23 20 21 18 19 18 19 19 15 12 12 11 13 17 20 23 24 25 24 19 21 25 24 23 24 26 23
45 42 44 45 42 41 39 35 35 35 36 38 35 33 32 31 26 22 22 21 24 18 21 21 17 12 14 14 15 15 17 22 27 25 24 26 26 27 26 26 27 27 28

GFSMA_250_spd_081.txt.gz
Wind_Speed
33 32 31 27 23 18 18 26 22 19 19 20 23 23 22 21 21 19 15 9 9 11 11 12 14 17 16 12 7 5 7 10 14 17 19 16 17 22 24 25 23 29 26
32 35 33 34 32 23 20 21 25 20 17 18 18 20 18 16 16 13 10 10 10 11 13 14 15 15 12 9 6 7 8 14 16 17 16 19 22 25 26 24 26 28 25
29 32 33 36 35 30 18 17 21 21 20 19 16 14 15 19 16 13 12 13 15 16 17 18 16 12 10 7 6 9 12 14 17 16 12 22 23 25 27 24 26 25 26
28 30 31 34 33 32 24 13 16 23 23 21 22 21 20 20 20 20 20 20 20 20 20 16 12 8 5 7 9 10 12 16 16 14 13 20 22 26 28 23 27 22 26
27 30 31 34 34 34 33 16 15 19 23 29 30 28 27 28 27 27 28 25 24 21 17 12 9 7 7 8 10 11 14 14 14 14 18 20 23 26 27 25 27 24 26
25 30 30 34 32 34 36 25 12 17 20 23 27 30 30 28 26 24 24 21 20 14 11 9 9 9 9 8 9 12 12 12 14 17 18 19 24 26 26 22 24 23 24
23 24 30 30 33 34 36 33 14 15 17 20 20 21 25 25 23 20 18 16 13 9 7 8 8 7 7 7 9 11 12 11 17 17 18 20 22 25 24 22 21 23 26
19 21 22 28 32 34 34 36 21 16 19 18 20 19 18 19 17 15 13 9 6 6 8 8 7 7 6 7 10 11 12 13 14 18 21 21 22 24 23 21 22 26 29
16 18 20 24 26 31 35 36 32 17 18 18 17 15 13 12 11 12 8 8 7 6 8 13 14 16 17 16 13 10 13 14 18 19 20 22 21 23 22 22 24 27 30
16 15 17 20 24 26 29 32 34 26 15 14 12 12 10 8 7 6 7 8 14 18 18 19 18 18 18 18 13 12 12 15 18 24 24 21 21 21 24 24 27 29 30
10 12 14 15 20 21 24 27 29 30 27 23 20 18 19 17 16 16 19 19 18 17 17 17 17 20 17 15 13 14 16 19 22 23 22 23 26 27 27 27 30 29 32
8 7 9 11 14 17 18 21 23 24 24 23 21 20 20 18 19 16 17 18 18 17 16 16 16 16 17 17 14 14 17 20 21 21 25 28 29 28 27 29 31 30 33
6 6 6 7 9 12 13 16 17 19 18 19 19 20 19 18 16 18 15 16 14 14 15 15 16 16 14 13 14 16 19 20 20 24 31 29 27 28 27 31 35 33 33
8 7 4 4 4 7 7 8 11 13 13 13 14 15 15 16 14 13 12 13 12 12 13 14 15 13 14 13 13 17 21 20 26 26 28 26 23 26 25 28 31 33 33
8 7 6 6 2 2 3 4 5 8 9 9 10 10 11 12 13 13 12 12 11 11 11 12 12 13 13 13 12 15 20 22 23 23 23 22 18 21 21 23 27 34 29
13 7 9 8 7 3 2 3 3 2 4 5 6 6 7 8 9 10 11 13 13 11 10 10 10 11 12 12 13 16 19 19 19 20 19 18 16 15 16 17 21 26 32
16 12 11 10 14 12 6 5 5 5 4 3 4 4 3 4 5 7 7 8 11 10 10 10 9 10 12 12 12 14 20 19 20 19 17 15 14 12 14 16 18 24 28
16 20 20 20 14 15 13 12 10 9 8 6 6 6 5 3 3 5 5 5 8 8 6 7 8 10 11 11 10 12 12 12 15 18 18 19 15 14 14 14 14 16 22
22 20 21 24 23 23 18 18 14 13 12 11 7 8 7 7 7 6 7 6 8 9 7 5 4 6 8 9 8 6 8 13 12 16 15 15 19 18 15 14 16 17 20
28 24 21 21 26 26 26 23 20 19 17 14 13 10 10 8 8 7 7 7 7 8 8 6 3 2 4 6 9 7 7 7 6 10 6 12 12 14 20 22 24 27 26
31 30 27 27 24 26 29 27 23 23 21 23 23 17 14 13 11 9 7 8 8 9 7 5 4 2 5 9 10 10 7 6 6 5 6 7 8 12 16 22 24 25 26
37 33 33 31 28 27 27 30 28 26 26 26 27 23 20 18 15 12 10 10 11 11 11 8 4 1 4 10 14 12 11 9 10 4 3 4 7 6 14 16 20 22 24
32 34 39 37 33 31 29 30 33 32 32 32 31 29 25 22 18 18 15 12 13 13 13 11 9 4 5 9 11 15 17 15 13 9 8 8 12 16 17 22 24 23 25
35 40 42 40 40 38 35 33 34 35 36 35 34 34 30 27 23 21 20 17 16 15 16 15 12 11 7 11 12 14 19 22 21 21 17 13 15 18 18 21 24 21 21
60 55 52 51 46 45 39 37 36 37 39 37 37 35 33 30 27 23 23 22 22 18 19 19 16 13 13 13 14 15 20 22 24 23 25 22 23 25 19 20 25 26 27
68 62 59 49 48 46 43 42 40 38 39 41 39 38 35 33 27 27 26 24 28 20 22 23 22 16 15 17 18 19 20 23 27 23 30 29 26 23 25 26 20 20 20

GFSMA_250_spd_084.txt.gz
Wind_Speed
34 34 35 31 20 23 27 24 20 23 27 28 26 25 26 25 23 21 14 9 7 8 10 10 13 13 11 8 6 7 11 14 18 16 18 22 23 24 24 24 28 26 28
34 35 36 35 27 22 28 26 18 20 22 20 20 20 20 20 18 13 8 7 8 11 12 13 13 10 8 6 8 10 13 17 17 13 17 21 23 25 27 24 27 26 28
35 35 36 37 34 21 24 24 19 21 21 19 18 14 13 12 10 12 11 11 12 15 15 14 10 9 7 7 8 12 15 17 13 13 18 22 24 26 27 25 27 28 30
32 36 37 35 36 23 21 27 25 22 21 18 15 16 14 15 16 16 17 17 19 17 15 12 9 8 7 7 10 12 15 13 16 16 20 23 27 25 26 26 26 29 31
34 32 35 36 37 28 21 26 28 30 25 24 24 25 26 23 24 23 26 22 20 16 12 11 9 7 6 7 8 13 11 13 19 20 22 24 23 25 25 25 27 30 30
30 30 34 37 37 32 21 25 26 29 31 31 30 30 30 29 26 22 21 19 14 12 9 7 6 5 5 8 11 10 12 18 19 22 23 22 22 24 25 25 27 29 31
26 27 31 35 36 35 22 23 23 24 24 26 27 24 23 24 22 18 15 11 8 9 8 6 5 4 6 8 10 15 16 18 19 20 19 22 22 24 24 25 28 32 34
21 25 29 32 35 35 26 24 23 23 22 22 23 22 20 17 17 12 10 9 7 9 8 5 4 4 6 10 12 15 16 17 18 19 20 22 23 25 25 28 31 35 37
17 20 24 27 30 33 30 21 22 22 19 18 16 15 15 13 11 10 10 7 9 17 20 19 17 16 17 14 13 14 14 15 19 19 21 25 25 28 29 30 34 36 42
15 18 18 22 25 28 29 29 22 20 17 15 14 14 12 11 9 8 11 17 17 16 16 18 18 17 17 14 13 13 15 17 20 18 23 29 30 31 29 31 33 40 43
10 14 14 17 19 22 24 25 25 24 22 20 20 20 19 18 17 16 15 15 15 16 15 15 16 15 16 15 13 14 16 19 19 22 29 30 30 29 30 31 35 40 40
9 10 11 11 13 17 19 19 21 21 22 21 21 21 19 18 18 17 18 15 14 14 13 14 14 15 18 16 14 14 19 22 24 27 29 31 30 28 29 31 34 39 40
8 9 8 8 9 11 13 14 14 16 16 18 17 18 17 17 16 15 14 12 13 13 13 12 14 15 15 16 16 20 24 25 25 27 26 26 27 27 26 28 34 40 37
8 8 9 8 7 7 8 10 10 11 10 11 12 13 14 14 13 12 11 10 11 10 12 12 14 14 14 15 19 24 25 24 21 19 17 19 21 29 29 30 28 32 36
10 6 6 9 10 7 7 9 7 8 8 8 7 9 9 10 10 11 11 12 10 10 10 10 12 13 16 17 18 22 22 20 18 16 15 16 15 21 24 29 31 35 34
12 7 10 8 7 12 12 9 8 7 9 9 9 8 8 7 8 8 9 10 9 9 9 10 12 13 15 16 18 17 16 15 13 13 12 13 15 18 23 23 22 25 29
11 11 12 13 11 13 15 13 10 10 11 8 11 9 9 8 7 7 7 9 9 8 10 12 13 12 14 16 18 18 14 12 10 8 8 9 10 11 14 17 20 23 26
13 12 13 17 18 17 15 16 13 13 14 11 10 13 11 9 8 8 7 9 11 8 7 9 10 8 10 12 13 13 13 15 15 14 12 10 9 17 18 22 25 30 33
20 17 15 16 17 18 19 20 23 15 17 14 11 10 14 12 10 7 6 5 7 8 6 5 5 9 8 8 9 6 10 12 14 13 15 19 19 23 25 31 32 29 30
26 23 19 18 19 17 18 19 21 18 18 18 16 14 14 15 14 11 7 6 5 5 5 4 4 5 10 8 10 3 7 6 4 7 8 10 13 17 18 21 24 24 26
22 32 27 24 25 24 21 20 20 20 20 22 20 20 17 15 15 15 10 8 5 3 4 1 2 6 13 15 12 8 7 6 7 5 1 3 7 9 13 16 22 25 24
21 27 33 36 35 30 27 24 25 21 24 25 24 25 24 20 17 15 13 11 11 7 4 5 3 8 12 13 16 14 12 11 7 6 2 4 3 10 16 19 22 24 24
36 26 28 35 38 32 29 27 28 28 28 28 27 29 30 26 21 20 19 15 13 12 9 7 7 9 16 17 21 21 18 14 11 9 6 7 8 13 16 18 24 22 24
35 33 28 36 33 33 33 35 36 35 34 33 30 29 30 30 28 23 22 21 19 15 15 12 10 11 13 17 23 28 29 25 23 23 19 22 21 21 18 19 19 18 19
41 46 43 39 37 43 47 46 43 44 43 39 37 34 34 32 31 29 27 25 24 21 19 19 14 13 13 14 17 19 22 27 27 29 24 24 24 22 22 21 18 15 17
51 53 53 55 59 47 53 47 47 44 44 41 38 38 39 37 34 31 31 30 30 26 24 24 23 19 15 15 18 21 23 24 23 23 29 28 29 27 21 19 16 15 15

GFSMA_250_spd_087.txt.gz
Wind_Speed
37 38 28 23 29 26 24 24 29 31 32 32 31 26 23 22 21 18 15 11 9 8 8 9 12 10 8 10 10 11 16 18 14 17 22 25 28 27 27 29 26 27 32
38 41 35 23 30 25 23 20 23 25 30 29 27 25 24 22 18 16 14 10 8 8 12 12 10 8 9 10 10 13 18 15 16 18 21 26 29 27 28 25 27 31 34
41 42 39 22 29 29 25 22 19 17 20 23 22 19 16 14 12 10 10 11 12 15 14 11 10 9 9 9 10 15 13 18 17 20 25 25 25 27 25 26 29 34 34
41 42 40 25 28 34 30 25 21 19 17 17 15 13 13 10 11 12 18 21 19 15 12 10 9 8 8 10 13 17 13 17 19 23 25 24 24 25 25 27 32 35 33
38 41 41 27 26 32 34 32 30 29 28 24 21 18 21 21 23 24 23 20 16 13 11 8 5 6 9 11 15 14 17 18 23 24 23 22 23 23 25 29 36 38 36
36 37 40 31 27 28 31 32 33 31 32 31 30 27 27 26 25 22 17 14 12 9 6 4 4 6 9 13 16 16 18 22 21 22 21 24 25 27 29 33 38 40 42
30 34 37 32 25 26 26 27 28 28 28 26 27 25 21 18 16 15 10 9 9 7 4 3 3 7 11 13 17 18 21 19 20 22 23 26 27 31 33 37 41 42 48
25 29 33 33 24 24 25 26 23 23 21 20 19 17 17 14 13 10 8 9 9 10 8 6 5 11 13 14 16 19 18 17 21 26 28 29 33 31 34 39 43 45 48
22 25 28 30 29 23 23 23 21 18 17 16 15 13 12 10 10 10 10 18 17 16 18 19 20 18 14 15 17 17 16 21 27 31 29 30 29 31 35 38 43 45 50
18 20 22 25 27 25 25 24 23 23 23 22 20 17 15 14 15 17 18 16 16 18 16 15 16 16 15 16 14 15 17 27 31 29 27 25 30 30 35 37 39 45 48
17 17 17 19 22 23 24 22 22 21 21 21 19 18 18 18 17 15 16 15 14 15 15 13 15 19 18 14 14 19 24 29 31 27 26 31 35 37 37 38 41 42 45
14 15 15 14 17 18 20 20 20 19 20 20 20 20 19 18 17 17 17 15 13 14 15 14 14 18 17 15 19 23 27 29 27 27 25 24 24 32 35 35 41 44 44
12 12 13 11 13 15 17 17 18 16 16 16 18 18 18 16 15 14 13 11 11 12 12 13 16 18 17 17 19 25 25 24 23 24 26 28 27 27 34 33 33 36 41
10 9 10 11 12 12 13 15 15 16 16 15 15 16 16 15 12 12 12 11 10 11 12 15 16 16 19 21 21 21 18 17 15 18 17 21 24 26 28 28 31 34 36
11 9 9 8 9 12 16 13 12 17 16 17 14 14 14 14 12 11 11 11 11 12 13 15 16 18 20 22 19 19 15 16 14 14 15 16 19 20 22 24 29 34 36
9 10 11 9 11 10 14 14 13 13 17 15 16 15 14 14 13 12 13 13 13 13 14 17 17 18 17 17 16 15 12 13 14 13 14 14 15 17 23 31 32 34 38
12 12 12 11 11 9 15 12 12 10 13 14 14 16 15 14 13 12 11 13 12 12 12 14 16 15 15 15 14 10 10 9 10 11 12 17 27 26 30 32 33 36 36
13 14 12 13 11 10 12 11 12 13 15 10 10 13 16 16 14 10 9 8 9 7 7 8 11 14 16 17 15 13 11 16 18 19 24 21 23 24 29 29 28 30 28
20 18 18 15 12 10 10 12 13 15 12 16 10 11 11 13 14 14 10 8 7 6 4 5 7 9 11 9 9 9 9 12 13 13 15 16 15 17 19 20 24 23 23
21 19 24 25 20 13 13 15 15 15 14 15 16 11 14 11 13 12 10 8 6 3 1 5 10 11 9 10 10 7 8 4 4 7 6 8 7 12 17 22 24 24 23
29 26 25 21 23 23 23 21 19 18 15 16 18 14 16 14 13 12 11 10 9 6 2 3 8 11 16 13 13 8 8 8 7 3 2 2 6 10 15 18 21 23 24
27 24 22 20 21 22 25 27 25 24 19 18 22 20 18 18 16 16 13 12 9 10 7 5 7 12 17 17 17 16 13 9 10 8 4 8 5 10 16 17 20 20 19
34 38 31 25 22 22 20 31 28 30 24 20 22 22 22 22 21 19 18 17 14 11 10 9 10 12 16 22 25 22 20 18 18 14 9 6 9 13 18 19 17 16 15
44 43 38 35 28 26 26 30 35 32 28 26 27 28 27 25 24 22 23 22 19 20 17 15 14 15 16 22 25 26 28 26 24 20 17 20 20 20 17 19 20 19 19
55 53 50 45 41 37 38 32 34 29 30 32 35 34 32 28 27 28 27 26 26 27 24 23 20 19 20 22 27 29 30 32 33 35 33 24 32 25 21 22 22 19 18
65 57 55 47 50 42 43 36 38 37 38 36 33 33 32 32 30 30 32 29 32 28 29 31 29 24 21 20 22 26 29 33 32 29 31 23 21 27 23 20 17 18 19

GFSMA_250_spd_090.txt.gz
Wind_Speed
29 27 30 26 26 28 31 33 35 36 32 31 28 25 23 22 22 18 15 13 13 12 12 13 12 13 13 13 15 19 17 18 19 23 24 27 25 25 24 25 26 28 32
33 28 31 29 25 24 26 28 31 30 28 26 26 26 23 21 19 18 16 15 14 14 14 13 13 11 12 14 16 19 17 19 22 24 25 24 24 24 24 26 31 32 31
38 31 32 34 30 24 21 23 26 26 23 23 25 20 17 16 15 16 18 17 17 15 13 12 10 10 13 15 18 16 19 22 23 24 24 25 24 25 27 29 30 32 30
41 32 33 34 34 30 26 22 18 18 16 16 15 13 13 17 22 23 22 19 16 13 13 11 9 12 14 16 17 19 22 23 24 23 25 26 27 28 31 34 33 34 32
41 32 32 33 35 34 32 29 23 21 20 18 19 21 24 26 26 24 20 16 13 11 10 9 11 12 13 16 20 22 23 26 22 24 25 31 33 34 36 37 37 37 35
40 35 32 29 29 31 32 31 31 30 29 28 28 26 27 26 22 19 16 13 10 7 6 7 8 11 14 20 21 22 25 21 23 29 31 33 35 38 43 42 43 42 39
38 36 32 29 28 25 26 27 26 28 26 24 24 23 21 18 16 14 12 11 9 6 5 5 8 10 17 19 21 23 20 26 29 30 31 33 36 41 45 45 47 48 48
33 34 32 29 27 24 23 21 21 22 22 21 19 18 16 13 12 12 13 17 16 15 14 14 16 15 16 18 22 22 26 30 30 30 30 35 35 42 45 48 53 54 56
28 30 30 29 29 28 26 23 23 20 19 17 16 14 13 11 12 17 15 16 18 17 17 17 16 17 15 17 21 24 29 26 28 32 34 35 36 39 42 45 50 53 54
24 24 25 28 26 26 26 25 25 23 22 22 20 18 19 19 19 15 15 16 14 14 14 14 17 18 17 17 24 28 29 30 33 33 34 34 37 39 41 40 44 48 51
22 20 20 21 25 26 26 25 24 24 23 22 21 20 19 20 18 18 16 17 15 15 16 17 18 16 17 22 28 28 27 26 25 24 31 29 30 34 37 39 40 45 48
19 19 19 20 21 23 24 26 23 23 22 21 19 18 18 17 16 16 14 15 15 15 14 16 18 15 21 24 27 27 27 28 26 24 25 27 31 32 33 34 34 37 42
17 16 17 19 20 22 21 21 23 23 22 21 21 19 16 14 14 14 12 15 15 17 16 15 17 19 22 24 23 22 21 22 22 23 21 23 26 27 32 37 32 35 39
14 14 11 14 16 21 20 20 22 20 22 20 20 19 17 18 17 15 13 15 16 17 15 14 17 20 19 20 18 17 16 17 18 18 15 18 23 27 31 33 34 32 34
11 13 14 10 10 13 19 18 17 21 19 20 19 18 18 17 17 18 16 16 16 16 17 16 18 19 17 19 18 17 17 15 15 14 16 20 27 33 33 35 36 35 35
8 4 9 12 7 8 13 14 13 16 16 17 20 18 17 17 16 16 16 16 17 17 17 19 18 16 16 17 15 13 13 12 13 13 23 25 27 29 30 31 30 30 28
7 7 6 6 8 4 8 10 9 13 12 12 14 17 18 16 14 13 15 13 12 12 14 16 16 14 14 12 14 13 14 15 18 20 24 24 25 26 27 27 27 27 29
14 15 13 10 7 5 4 7 7 9 11 10 10 11 14 16 16 13 11 12 10 8 9 11 13 14 12 12 11 11 16 21 19 19 19 18 19 21 22 26 26 27 23
18 14 15 18 16 15 9 6 6 7 8 8 8 11 10 12 13 13 11 9 9 6 4 8 10 13 8 9 11 12 15 16 15 12 12 11 13 18 21 24 24 26 26
23 19 22 20 15 20 20 13 12 10 8 6 8 10 12 9 8 9 9 9 8 6 3 6 7 8 7 7 6 7 8 6 5 5 5 6 10 15 20 21 22 23 22
27 19 21 26 25 18 17 16 14 14 17 13 10 11 11 13 12 8 6 6 7 4 3 4 10 13 14 10 12 8 9 8 5 3 3 3 6 9 14 17 17 18 18
31 27 25 24 27 26 19 18 17 15 17 18 10 10 15 15 14 13 13 10 7 7 7 7 11 14 16 19 20 18 18 12 12 10 7 4 8 5 12 18 18 15 15
42 36 32 27 27 25 28 24 17 16 13 24 20 12 12 14 18 15 14 14 14 12 10 11 12 14 18 23 24 22 22 21 18 14 15 14 13 12 15 21 17 20 19
50 48 47 39 36 37 33 32 27 24 22 22 23 19 16 14 16 18 18 17 17 16 15 16 16 18 17 22 23 25 28 27 26 21 19 19 15 17 23 20 20 21 20
57 51 48 49 44 40 42 44 45 35 30 29 27 23 24 21 16 19 21 22 25 23 20 21 21 22 22 20 25 27 25 32 29 30 28 24 25 32 31 30 20 23 19
64 62 59 54 50 51 50 47 48 45 43 39 37 30 28 30 26 26 30 30 31 29 28 28 28 27 24 24 24 28 29 35 36 32 30 39 36 29 28 24 23 20 19

GFSMA_250_spd_093.txt.gz
Wind_Speed
25 27 28 27 33 36 39 40 38 35 30 25 20 22 21 21 19 17 18 17 16 18 15 14 13 14 15 17 19 16 19 20 21 22 21 21 22 24 23 26 26 26 26
31 29 28 27 28 33 34 34 31 29 27 24 24 22 20 17 19 21 20 19 18 15 13 13 14 15 16 17 17 20 21 22 22 22 23 23 23 26 27 29 26 25 24
34 34 31 27 25 26 27 29 28 26 25 24 21 18 14 14 19 23 22 20 16 14 13 14 15 16 16 18 19 21 21 22 23 26 26 25 26 27 27 29 27 25 25
35 34 34 33 29 22 19 21 22 20 18 16 14 14 16 21 24 23 21 18 15 14 12 13 15 14 17 19 22 22 22 23 28 31 32 33 30 30 32 31 29 27 26
35 31 30 32 33 32 29 23 18 17 16 16 17 22 25 23 20 18 16 14 14 11 11 11 12 14 19 21 22 23 23 26 29 33 36 36 37 38 39 38 33 29 26
37 34 29 28 29 29 28 27 26 25 23 23 24 23 20 17 15 13 12 11 10 9 7 8 11 18 20 21 23 24 28 27 29 34 39 38 42 45 46 48 44 38 34
36 36 32 29 26 25 25 25 25 24 21 22 21 17 15 13 13 13 13 12 8 5 7 10 14 17 22 22 27 28 28 24 31 33 39 36 40 45 47 50 52 52 44
36 35 34 33 31 29 25 22 19 18 17 16 15 13 11 12 15 17 15 15 13 11 14 15 15 20 22 26 29 28 30 32 32 34 38 39 35 42 46 48 50 50 54
31 32 33 33 31 30 31 27 23 20 17 16 14 13 14 18 16 17 17 15 15 14 13 15 20 22 24 28 28 29 32 31 29 32 36 36 35 37 41 42 44 45 50
27 27 29 29 31 30 30 29 27 23 21 20 19 19 20 18 18 17 17 17 14 14 14 20 23 26 26 27 31 29 28 26 23 26 30 31 31 32 36 37 38 40 44
25 27 26 25 27 30 28 26 27 26 24 22 21 20 20 18 17 15 17 17 16 15 15 21 25 26 26 26 25 21 22 21 22 27 26 30 28 27 30 31 35 36 38
20 21 23 24 23 25 26 26 25 25 25 24 20 18 19 17 16 15 15 17 17 16 16 18 24 25 24 25 26 25 23 19 17 22 26 28 30 29 23 28 31 31 32
18 16 19 22 23 21 23 25 24 24 23 23 21 21 20 18 15 14 15 15 16 16 16 18 22 21 20 21 19 19 18 18 14 15 25 26 26 24 23 29 30 31 36
16 16 12 16 16 20 18 22 22 23 22 20 20 19 19 21 19 16 14 14 14 14 15 18 18 18 15 15 16 16 15 14 13 19 25 28 28 30 31 29 33 30 38
11 14 12 11 12 15 16 16 19 17 20 19 17 17 17 18 19 18 17 14 14 13 14 15 17 14 12 14 15 15 15 11 14 23 24 27 28 27 27 30 29 29 31
6 7 9 10 8 11 12 12 13 14 15 18 18 16 14 15 16 16 17 15 13 13 13 13 15 16 14 11 11 12 12 12 22 21 23 25 26 26 26 26 26 26 28
8 10 10 8 6 6 7 12 8 9 12 13 14 16 16 14 14 14 14 13 12 11 10 9 9 12 10 11 13 18 20 19 18 19 20 22 21 24 25 28 29 29 25
9 8 8 8 9 7 2 3 8 9 8 9 11 11 13 14 13 13 12 10 9 10 10 8 8 9 9 10 14 15 16 15 15 14 17 17 19 21 23 25 27 27 25
15 16 17 12 10 6 8 5 3 2 5 9 7 12 10 9 11 11 11 10 6 5 7 10 8 8 8 9 9 11 10 11 12 9 11 12 16 18 21 24 24 25 23
21 21 22 18 18 13 12 15 11 6 4 4 6 9 8 11 9 9 8 7 7 2 3 10 11 11 7 6 7 10 9 5 3 3 3 5 8 11 15 20 22 22 22
30 25 24 22 21 16 16 16 12 12 3 1 2 4 6 10 8 6 7 7 6 4 3 6 16 15 13 11 11 10 12 9 6 7 5 4 3 5 8 15 18 18 18
35 30 29 25 24 20 18 22 22 18 12 7 2 3 3 1 3 4 5 6 6 7 8 6 8 16 18 19 16 15 16 18 16 14 12 7 7 7 7 11 16 19 20
42 36 33 33 31 29 26 22 25 23 23 17 12 10 15 9 7 4 6 8 10 13 13 12 13 13 15 21 22 24 24 25 24 22 18 20 15 16 14 14 14 22 24
48 47 41 41 40 39 35 33 29 29 28 25 21 15 19 15 16 15 11 7 7 12 14 16 15 17 15 17 20 23 26 28 28 28 25 25 25 20 16 19 21 29 24
58 55 52 47 47 50 49 48 44 40 38 34 33 27 22 26 22 26 25 16 16 8 15 17 17 19 19 16 19 23 25 29 29 30 32 27 30 27 25 22 27 25 24
64 61 60 59 58 56 55 56 58 51 45 43 44 43 44 34 36 34 31 29 20 16 20 21 20 20 19 20 21 20 24 30 32 33 28 38 33 33 31 31 36 34 26

GFSMA_250_spd_096.txt.gz
Wind_Speed
27 29 34 36 37 42 39 39 32 27 23 20 16 19 17 17 15 15 17 18 17 14 12 12 13 14 14 15 16 17 18 19 19 18 17 20 22 20 20 20 21 23 26
29 29 32 33 34 35 36 33 28 25 19 20 19 18 13 13 15 19 20 17 15 14 13 13 15 14 14 17 17 19 20 21 23 21 19 20 22 22 21 20 21 22 25
32 29 28 28 27 27 27 27 24 23 21 19 18 14 12 14 19 18 17 16 14 13 13 13 13 14 16 18 19 20 22 26 28 28 24 24 25 23 22 21 22 22 25
33 30 27 25 23 23 23 23 23 21 17 14 13 13 16 18 16 14 14 14 13 12 12 11 14 14 18 20 19 22 23 27 32 35 35 36 32 29 25 22 21 22 22
32 30 29 26 22 18 16 14 14 14 15 14 16 19 18 15 12 11 11 11 10 11 9 12 15 15 19 19 21 20 25 29 32 38 41 41 40 37 31 25 22 22 21
35 31 29 27 25 23 22 21 19 18 19 21 18 16 14 13 10 9 8 7 7 7 8 14 15 20 22 21 21 23 28 31 27 33 41 42 42 43 44 39 23 18 20
38 36 32 28 25 22 20 20 20 20 20 19 15 13 12 11 12 12 10 7 3 7 12 15 19 22 23 21 20 29 29 33 32 28 34 39 38 37 45 48 48 39 28
36 37 35 33 33 28 24 20 17 15 12 10 10 11 12 16 16 16 15 16 12 13 16 18 22 24 21 23 27 27 30 28 28 30 32 34 34 35 39 41 42 45 45
31 33 33 33 33 32 30 27 23 18 15 13 13 16 16 17 17 15 14 14 14 15 19 20 26 23 24 25 23 20 22 27 24 25 24 26 29 30 32 36 35 35 38
30 28 31 32 31 30 30 30 29 26 22 18 19 16 16 17 17 16 17 18 18 18 20 25 25 22 21 21 18 18 22 25 25 25 25 20 25 25 27 30 30 33 36
26 28 26 28 29 28 27 27 27 26 25 22 19 18 16 16 17 18 17 18 19 19 23 23 21 19 15 13 13 15 20 23 25 26 27 21 21 25 30 29 27 28 32
21 24 25 23 25 25 23 24 24 23 23 24 22 19 15 16 15 16 17 18 20 21 22 22 18 15 17 17 17 13 16 16 24 21 22 18 20 23 25 29 33 33 38
16 19 19 19 19 23 23 23 21 21 21 20 20 20 18 16 15 16 17 17 19 20 19 18 17 18 16 15 14 13 14 16 20 23 27 30 31 31 31 28 32 26 35
14 13 13 15 17 17 20 18 20 20 18 19 19 19 19 17 15 15 17 16 18 16 18 15 13 12 12 11 10 10 14 17 18 21 23 28 24 25 25 26 26 30 30
9 11 9 11 13 14 16 18 16 17 18 17 16 16 16 17 15 15 16 16 15 14 13 13 10 10 10 9 9 9 11 17 20 19 22 25 26 25 25 24 26 27 26
5 7 7 11 7 11 8 12 16 13 13 15 17 15 15 15 15 14 13 13 13 15 13 9 8 9 9 8 8 10 12 17 16 18 19 21 25 25 27 28 28 27 27
7 3 4 6 9 9 8 6 9 11 10 12 14 15 15 15 13 11 11 10 10 10 11 10 9 8 9 9 12 11 11 12 11 14 17 19 21 25 26 27 28 27 26
10 9 8 4 6 5 7 4 2 7 4 6 11 12 13 13 13 11 8 6 6 7 6 7 7 6 9 12 12 10 9 8 8 9 12 14 17 20 25 25 25 24 27
16 14 14 12 11 10 9 9 4 1 4 4 7 7 8 12 13 12 10 7 4 5 6 6 6 5 7 8 7 5 3 7 3 3 5 9 12 14 20 23 23 24 24
22 21 21 19 18 17 16 14 13 10 4 2 2 2 4 5 5 7 8 7 5 2 5 8 7 7 7 6 6 6 5 2 4 4 5 6 5 8 11 18 20 22 22
31 29 28 26 24 23 18 18 17 12 11 9 8 4 5 4 2 1 4 3 5 5 4 7 11 12 11 9 8 9 12 12 10 11 11 9 7 4 9 11 16 20 24
39 38 37 32 29 29 26 21 21 20 18 16 15 12 7 6 4 4 5 8 6 4 5 6 7 9 16 19 20 20 19 19 19 19 19 15 15 11 10 8 11 13 22
39 39 41 36 36 33 33 29 26 22 25 23 20 21 16 12 11 10 7 5 9 5 5 7 7 9 11 12 14 18 23 28 28 26 26 27 24 21 19 12 13 12 17
46 43 41 41 39 39 37 36 36 34 28 31 27 26 26 23 24 19 14 11 14 12 9 9 9 8 11 12 13 16 18 21 23 26 24 29 31 26 25 24 16 13 15
58 57 52 52 52 51 49 46 45 42 41 39 36 36 36 32 35 29 25 23 22 23 16 13 14 17 15 11 14 16 16 22 21 24 25 24 25 29 29 33 33 27 24
69 69 67 65 64 63 59 56 54 52 50 48 47 49 48 44 41 37 35 32 28 25 29 28 22 23 22 14 12 14 15 19 23 24 24 28 27 28 30 34 32 36 34

GFSMA_250_spd_099.txt.gz
Wind_Speed
35 35 39 39 38 37 36 30 27 21 18 14 12 12 13 10 7 7 12 15 12 9 9 11 12 13 12 15 18 21 19 16 15 15 14 16 16 13 15 18 18 23 23
32 33 33 32 35 34 28 25 23 20 17 16 14 11 8 5 7 12 14 12 10 9 11 12 13 13 13 17 23 24 22 21 17 16 18 18 15 15 17 19 18 23 19
26 27 27 28 27 25 24 23 22 20 17 16 10 9 8 9 14 11 12 10 10 10 12 12 13 13 15 22 21 24 30 28 27 27 23 20 15 14 17 17 20 22 19
25 23 23 24 22 23 21 20 19 16 13 10 10 11 10 10 9 9 8 9 12 12 11 13 14 16 17 15 19 24 27 33 34 33 36 31 21 16 17 18 16 18 19
30 27 22 18 17 16 16 14 11 10 11 12 14 13 11 9 8 6 6 9 10 11 10 13 15 14 13 18 20 20 24 35 35 36 39 40 39 28 19 19 19 18 20
31 28 26 24 21 17 15 13 14 15 17 15 13 11 8 7 7 6 4 4 6 9 12 17 18 14 18 20 24 24 20 24 29 30 30 38 42 41 39 32 26 27 27
36 33 29 25 22 20 17 15 17 17 13 12 9 8 9 12 14 14 10 7 9 12 16 18 16 15 14 22 25 23 24 23 26 28 28 30 37 33 34 34 31 31 33
33 33 34 32 29 25 20 16 12 10 9 10 9 14 14 14 14 14 15 14 15 17 18 19 16 16 19 20 22 21 22 22 20 21 23 26 29 32 32 34 35 34 33
33 33 32 31 32 31 28 24 19 16 15 16 16 15 13 11 11 12 13 17 16 20 20 19 15 18 16 15 21 24 24 24 22 21 18 20 21 24 26 28 27 30 33
26 28 30 30 28 28 28 27 24 20 19 17 16 16 15 13 13 15 16 20 21 22 20 20 16 16 15 15 19 21 25 28 26 22 24 25 29 27 27 25 27 28 31
24 22 25 26 25 25 25 24 25 23 21 18 16 15 15 15 13 13 17 23 24 23 19 16 14 12 11 12 17 19 22 26 23 22 25 26 29 25 26 30 29 28 30
22 21 21 24 24 25 23 22 20 20 20 18 16 15 15 18 14 14 19 23 24 17 16 16 16 14 17 16 14 18 22 24 24 30 33 34 32 31 29 35 33 26 31
19 23 20 20 23 22 23 21 18 18 16 16 15 14 15 17 12 16 17 21 21 20 19 15 13 13 13 13 15 20 21 21 23 25 24 30 30 30 29 30 31 33 30
18 17 18 17 18 21 23 21 20 18 16 15 15 14 14 15 15 17 18 18 19 17 14 15 12 14 14 12 13 13 16 19 20 23 27 30 30 32 31 29 26 27 30
7 17 14 12 18 18 19 21 20 18 17 15 15 13 13 14 14 14 16 16 14 27 25 5 9 8 9 4 10 9 15 15 17 21 25 28 31 32 32 31 28 27 30
9 10 6 10 11 14 15 18 17 16 15 16 16 14 14 12 12 13 12 15 13 9 4 12 10 8 7 5 7 7 10 13 14 18 23 27 32 33 31 31 30 31 32
7 7 5 5 8 10 11 9 13 14 13 12 14 15 13 12 11 11 11 11 12 11 9 9 7 3 2 5 5 5 3 6 10 14 19 20 26 30 30 30 29 29 30
13 9 7 6 8 11 7 10 8 8 11 9 10 9 12 13 10 8 8 8 10 13 11 14 11 10 9 6 5 5 5 4 3 7 14 14 17 22 28 30 29 24 23
17 17 14 14 11 11 12 11 11 6 7 8 5 6 7 9 11 10 7 5 6 9 9 7 6 5 7 6 4 2 2 3 6 8 8 9 11 15 19 24 27 27 20
28 26 23 20 21 20 18 15 15 15 13 8 5 2 2 3 6 8 9 8 4 2 6 8 8 6 7 6 6 8 8 8 8 8 10 7 7 9 12 14 21 23 27
28 32 31 28 26 26 23 21 20 17 14 13 12 11 6 3 2 5 8 8 8 6 4 5 6 9 10 11 10 11 14 15 18 17 17 16 13 12 12 12 12 17 20
33 32 32 34 35 35 30 28 24 22 22 22 23 18 14 12 10 8 3 3 4 4 6 6 5 6 6 9 13 19 22 22 21 21 23 26 23 22 19 17 14 11 18
41 38 37 40 41 39 37 33 31 27 24 26 28 26 24 20 18 15 13 12 5 8 12 12 7 12 10 13 11 13 13 17 17 19 21 23 24 24 25 22 17 15 11
48 48 44 44 45 47 44 38 33 31 30 28 29 32 30 31 29 24 21 24 20 14 12 16 13 14 12 14 15 15 15 17 16 15 15 16 22 17 18 22 23 18 18
52 56 58 55 50 51 50 50 45 45 42 38 39 36 33 35 34 35 30 27 32 25 20 17 20 18 23 27 20 18 16 19 21 21 17 18 15 18 18 19 23 26 25
71 64 64 66 63 60 61 58 56 53 53 52 51 50 49 47 44 43 44 43 43 38 33 28 29 28 28 27 28 27 23 17 17 19 18 25 22 19 17 15 18 19 26

GFSMA_250_spd_102.txt.gz
Wind_Speed
39 36 40 36 22 30 30 24 18 12 11 7 9 6 7 4 4 4 6 8 9 11 11 11 14 18 20 21 21 20 20 19 16 14 14 15 17 16 16 19 21 16 14
31 30 35 37 31 28 24 17 17 16 10 10 9 8 7 8 7 8 7 10 12 10 11 12 15 18 21 24 30 28 26 24 20 16 14 14 15 14 14 21 18 14 12
26 20 27 27 30 22 19 23 18 14 12 8 8 7 9 9 8 6 9 10 10 11 12 14 15 11 17 25 29 29 31 31 28 22 20 17 18 15 9 13 19 21 22
22 22 21 20 21 20 18 17 15 12 8 5 9 10 10 8 7 6 9 9 12 13 13 17 14 18 17 18 24 32 29 34 38 38 34 26 20 18 16 14 19 23 25
26 24 20 17 15 14 12 11 9 8 11 12 13 10 9 8 6 6 7 8 12 14 15 15 13 17 21 18 17 18 27 28 31 37 35 34 28 24 23 22 28 33 39
26 25 22 22 20 15 12 11 13 14 13 12 9 7 6 8 9 8 6 6 13 18 14 12 16 18 21 24 24 26 23 25 26 30 34 32 33 33 31 32 32 36 43
30 26 25 26 22 13 16 13 11 10 10 10 10 13 13 15 15 16 13 14 19 21 16 15 14 21 27 24 26 27 26 24 21 21 23 27 28 28 27 29 28 31 33
33 29 31 26 20 19 18 14 11 11 11 14 13 13 14 13 13 16 16 21 22 19 13 14 21 21 22 29 31 33 33 30 29 21 21 20 21 21 22 23 26 26 28
36 38 21 29 20 26 24 16 17 16 17 16 17 18 18 17 16 13 18 26 21 17 13 18 21 20 23 32 32 33 31 31 33 34 29 26 25 25 26 29 28 29 34
34 43 36 29 29 20 20 18 16 15 17 19 19 18 20 20 18 15 23 24 18 16 16 17 20 24 30 33 34 37 29 35 39 39 39 34 32 31 30 26 30 31 32
33 38 38 32 28 32 26 23 19 17 17 18 17 21 27 28 20 19 21 19 16 15 19 21 28 28 24 29 33 32 26 31 34 38 38 38 36 34 33 34 30 33 29
32 31 34 39 41 18 28 24 22 21 20 16 14 12 16 22 17 23 24 6 11 19 24 29 25 24 28 18 31 27 24 28 33 35 37 35 34 31 31 33 31 34 35
13 23 28 31 34 32 31 30 25 21 22 21 18 18 15 9 17 8 14 11 3 16 22 19 18 21 23 29 16 16 20 23 27 32 35 34 34 34 29 31 33 32 34
12 22 24 24 27 32 31 29 25 25 25 24 20 19 15 14 16 20 24 11 17 15 6 12 9 2 10 10 12 15 15 18 22 31 33 36 36 35 33 32 33 33 31
2 6 15 18 19 20 22 27 25 29 18 21 19 16 14 9 9 7 6 16 21 10 4 10 9 11 5 7 6 7 13 14 18 26 28 34 36 37 35 32 34 36 35
7 9 8 12 14 14 16 17 23 25 18 16 18 15 14 11 9 6 5 6 5 3 6 7 9 3 4 5 1 6 8 8 12 19 24 26 30 34 35 31 32 34 34
2 3 6 9 9 11 11 14 14 16 19 17 14 14 14 11 8 7 6 5 5 6 9 8 6 4 5 4 3 6 5 5 8 14 18 20 22 27 32 33 26 27 30
14 12 10 10 10 11 10 11 10 8 11 13 12 10 10 11 10 6 4 5 5 6 7 9 2 3 5 3 1 3 5 5 7 9 11 13 17 20 23 28 30 26 24
15 16 17 14 15 15 14 15 14 9 7 9 5 7 6 7 8 7 3 1 6 5 5 4 4 5 5 7 7 9 10 11 9 7 10 14 15 16 17 21 23 27 24
18 19 22 24 22 21 20 18 16 14 15 9 6 3 3 6 1 3 5 4 4 7 8 10 12 12 10 13 14 14 14 14 14 15 15 13 14 16 17 19 18 18 23
30 26 25 25 27 27 23 21 16 19 17 16 14 14 13 7 4 2 4 7 7 4 1 2 6 8 9 13 15 19 19 19 19 20 23 20 21 19 16 17 16 13 14
35 35 29 27 30 31 29 29 30 29 25 22 21 23 20 20 16 13 8 8 9 6 5 4 5 7 8 8 11 14 16 18 19 22 18 23 22 22 22 17 12 13 12
44 44 39 42 40 39 34 34 37 36 31 26 26 25 22 27 23 21 21 20 14 12 10 11 11 11 8 7 10 14 14 17 14 13 14 15 18 16 20 19 16 13 12
53 51 50 49 46 43 43 43 42 41 40 37 30 29 30 29 30 32 29 28 28 26 24 21 21 17 18 16 17 19 19 22 19 12 15 16 17 21 17 20 20 17 15
57 59 59 55 55 54 51 49 51 52 48 45 45 41 38 36 36 32 33 36 34 31 31 27 29 27 23 23 25 23 23 25 25 20 12 22 17 22 23 22 21 22 19
69 68 68 66 62 64 60 58 56 57 58 56 55 55 55 52 50 48 47 45 44 46 44 41 40 39 41 34 31 32 33 33 27 28 19 26 29 29 29 25 23 23 24

GFSMA_250_spd_105.txt.gz
Wind_Speed
23 28 30 30 28 27 22 19 18 12 11 11 10 13 11 10 14 14 12 12 12 11 13 17 21 23 31 34 33 37 34 27 21 17 16 14 11 15 21 25 22 26 21
17 27 25 26 25 22 21 15 12 11 12 14 12 12 11 15 15 12 11 12 12 12 14 15 16 27 32 35 34 39 43 39 28 24 22 22 17 13 19 27 31 30 26
26 23 25 22 17 13 17 16 15 13 11 13 10 12 13 13 12 9 12 12 11 16 15 17 18 17 22 25 31 34 36 38 36 35 33 26 24 20 21 29 39 40 31
20 21 20 19 15 13 13 13 11 10 12 11 10 11 10 10 9 8 13 12 17 17 18 20 27 24 23 25 27 26 28 31 36 35 36 36 32 28 27 34 37 41 39
23 23 21 19 14 13 12 12 14 15 17 12 9 10 9 9 8 8 13 18 18 17 17 21 26 29 28 29 30 25 27 25 27 31 32 28 28 28 26 29 31 35 40
20 21 29 24 21 19 15 16 15 13 12 8 9 10 12 12 11 13 20 20 20 16 15 21 29 36 40 42 37 34 31 28 26 24 24 24 25 24 22 22 22 30 31
32 25 14 15 19 16 13 9 8 8 11 15 14 12 13 12 14 18 22 20 17 15 14 19 32 40 38 37 36 35 34 28 28 28 27 27 28 30 33 27 31 28 33
33 28 21 24 29 21 17 17 16 17 16 17 14 14 14 13 15 23 22 18 17 18 17 30 34 39 37 35 37 41 43 44 38 32 32 31 31 26 29 28 33 29 32
38 33 23 29 28 27 24 20 20 19 19 19 17 17 18 18 21 26 19 18 18 19 27 31 35 36 36 37 42 43 45 46 42 39 36 35 35 32 31 36 26 30 32
44 36 28 35 35 34 29 24 22 22 19 22 30 28 27 30 30 21 18 15 19 22 30 26 23 29 30 40 40 37 40 46 42 38 36 33 35 35 30 33 31 31 31
38 40 40 38 39 40 38 32 27 25 17 18 27 31 28 31 26 22 13 12 14 17 13 30 37 27 13 9 30 32 33 39 41 39 36 32 29 31 33 35 32 29 31
28 32 34 36 40 38 38 32 29 25 17 16 11 16 25 22 15 10 13 12 13 10 24 23 20 19 23 13 14 19 23 31 35 39 41 36 30 33 31 31 35 28 29
22 31 29 28 32 36 32 34 24 30 20 22 21 22 24 24 16 15 13 6 3 10 12 14 15 9 15 9 8 11 17 23 28 33 38 39 37 34 33 33 36 40 39
6 18 20 21 23 28 32 32 29 25 22 19 20 19 15 10 15 17 4 7 2 7 9 4 11 7 3 11 1 7 9 16 22 29 33 36 39 37 36 35 37 38 41
2 5 9 15 18 20 23 23 25 26 23 17 17 15 13 11 5 4 10 7 5 6 11 11 6 5 13 3 0 4 7 11 18 25 28 31 35 39 39 37 37 39 39
6 3 8 10 13 15 16 19 20 22 22 21 15 14 12 9 7 2 2 6 4 6 10 10 10 11 9 2 5 8 9 12 16 19 19 23 29 33 38 39 36 34 34
1 4 6 5 8 12 12 15 14 13 19 20 17 13 11 10 9 4 2 5 9 6 1 5 6 4 2 3 6 8 11 11 12 14 14 19 22 25 30 33 34 30 28
7 6 6 7 7 9 12 11 14 11 13 16 14 9 10 10 7 4 3 3 4 5 5 0 6 7 6 6 9 10 11 10 10 10 14 17 16 20 22 26 26 28 21
12 11 10 7 13 12 15 15 14 11 12 12 11 7 7 8 8 4 1 4 6 8 8 8 9 10 11 13 16 15 16 16 17 17 15 16 17 17 17 18 19 19 21
20 21 20 17 15 15 13 18 14 11 10 12 11 10 11 6 3 1 3 4 4 3 4 8 11 12 13 15 15 17 19 20 21 23 25 22 22 23 20 15 17 14 13
29 32 24 22 20 20 16 17 16 15 18 14 16 12 14 18 14 9 8 9 10 8 5 6 6 5 4 4 8 11 13 17 19 18 21 23 23 22 21 19 17 10 11
39 40 39 33 28 26 23 27 25 24 25 25 20 17 22 20 21 21 21 17 13 14 13 9 8 10 10 5 7 9 12 15 17 20 12 16 19 20 19 18 14 14 13
45 45 42 42 40 35 36 35 34 33 31 35 31 27 26 23 24 24 27 26 23 24 22 19 16 17 17 18 13 10 14 20 16 16 17 13 12 14 20 23 21 18 18
52 51 49 46 48 50 45 43 41 40 39 38 40 38 34 31 32 30 31 31 30 31 34 33 32 31 26 22 26 27 24 23 21 21 23 19 15 11 16 20 24 22 19
56 59 58 56 53 53 54 54 54 51 47 47 46 44 44 44 42 41 41 37 35 38 38 38 36 34 34 31 34 35 36 33 30 25 23 29 25 23 19 20 24 24 21
72 71 68 67 63 65 64 62 58 61 60 57 57 57 55 56 56 55 53 52 51 51 50 51 53 49 49 46 44 46 47 47 44 40 34 31 33 34 33 29 27 30 27

GFSMA_250_spd_108.txt.gz
Wind_Speed
29 32 34 33 30 26 24 22 20 16 18 16 14 13 12 18 15 13 13 16 18 16 19 22 24 26 31 33 35 36 34 33 31 28 25 23 21 21 34 38 32 26 24
27 26 28 25 24 23 20 19 19 17 14 14 12 14 18 16 14 14 15 18 15 15 16 16 19 24 27 30 29 31 34 33 33 29 28 27 24 30 31 34 36 29 23
23 23 21 18 16 21 21 16 14 13 9 15 17 13 14 12 14 15 18 20 17 21 21 22 22 23 23 27 29 27 27 29 31 28 27 25 20 23 27 29 32 35 27
23 22 20 25 13 19 17 14 12 14 13 12 13 11 10 10 16 17 19 19 19 20 22 26 32 32 30 24 27 32 29 24 25 27 26 23 22 20 22 23 28 31 31
23 24 18 16 13 17 12 14 17 13 9 8 9 11 11 12 18 20 22 18 18 21 28 32 35 34 36 33 30 32 32 31 29 30 30 28 27 22 26 24 28 32 31
24 24 20 12 13 14 12 13 13 8 6 11 12 10 11 18 24 23 21 17 17 20 34 34 37 39 44 43 42 41 42 37 33 30 29 27 27 26 28 30 26 36 34
24 27 28 23 18 14 12 10 14 13 10 11 14 15 18 21 25 20 18 18 22 22 29 37 33 36 38 45 44 42 43 42 39 40 33 28 29 30 28 28 29 30 36
38 36 34 28 23 23 22 20 19 17 15 15 17 19 19 21 18 21 18 24 24 18 23 31 32 38 39 39 42 43 44 43 38 37 36 38 35 28 29 29 32 31 32
43 43 42 38 34 29 27 26 32 31 26 25 26 27 24 25 23 21 20 17 16 21 26 28 23 24 28 33 35 42 43 43 43 34 33 35 35 32 27 33 28 36 35
43 41 44 40 35 31 27 26 28 34 33 32 30 31 27 26 24 19 16 13 17 27 32 24 26 24 25 24 28 29 37 43 44 41 35 36 32 35 31 30 31 37 38
38 39 41 41 35 34 31 28 25 22 30 29 27 28 22 21 16 16 14 11 18 17 17 13 18 19 24 15 20 25 29 39 42 44 43 39 37 35 43 42 36 35 41
34 36 34 37 39 37 33 32 28 24 24 25 26 24 17 9 10 15 14 12 12 15 20 25 23 16 19 9 17 22 25 28 37 42 43 42 43 40 40 42 41 40 42
20 30 30 31 34 35 36 34 28 25 24 21 23 17 13 11 10 10 9 11 12 15 18 18 22 19 19 15 16 21 21 26 31 36 38 42 44 44 38 39 40 40 40
11 17 23 24 27 29 30 32 32 27 20 18 17 11 7 10 7 2 8 12 9 11 12 15 18 15 19 14 14 15 18 21 26 30 32 38 39 41 43 36 36 38 40
12 13 16 19 20 24 23 25 27 29 27 17 12 11 11 12 6 4 6 12 10 11 11 15 9 13 12 13 13 14 16 19 23 27 27 32 35 33 39 37 35 35 35
8 8 10 11 11 15 18 18 17 22 23 24 16 11 10 5 2 3 6 6 6 11 12 14 16 18 18 8 12 14 15 15 20 23 26 30 30 29 31 31 32 31 30
7 6 6 7 7 10 13 15 16 16 17 19 18 19 14 9 5 5 4 5 5 7 9 10 13 14 14 10 11 13 14 17 18 21 23 25 24 25 27 25 24 26 26
10 6 4 3 2 6 9 12 14 11 11 11 14 14 14 15 13 9 8 10 10 10 9 8 10 12 14 15 16 15 17 18 20 21 23 24 23 24 25 20 21 21 23
15 11 6 6 10 8 7 5 5 6 6 9 9 9 11 12 14 14 12 13 11 11 14 17 15 13 12 14 15 17 17 20 22 25 26 25 23 21 22 20 21 17 15
25 19 18 18 15 12 10 12 9 10 10 8 6 7 12 12 13 12 10 12 14 14 13 14 14 12 11 10 12 13 15 14 16 16 20 22 22 22 19 18 18 16 16
36 32 25 24 26 25 20 18 13 12 14 16 16 12 14 16 15 16 16 14 14 15 15 18 17 17 18 14 13 13 13 13 18 16 18 17 20 18 18 21 20 17 15
47 45 38 34 35 36 34 29 25 22 21 22 20 21 19 19 23 23 21 23 25 24 21 21 18 18 19 18 17 15 15 10 18 20 16 19 15 19 16 17 19 21 20
56 52 49 43 37 37 39 40 35 34 34 33 29 28 29 29 27 25 25 26 27 27 28 26 23 27 29 31 29 27 26 20 21 23 22 23 24 19 19 20 19 18 20
60 56 53 52 47 45 45 45 44 43 42 42 42 44 43 37 34 32 33 35 35 33 33 33 32 30 30 34 34 33 34 31 32 30 33 29 30 28 25 27 25 22 21
62 60 58 59 57 53 52 50 50 51 50 49 51 55 55 49 47 45 47 46 41 44 41 39 44 44 43 41 43 43 44 48 46 40 41 42 43 40 36 31 33 32 28
64 63 62 63 63 69 59 58 60 59 60 60 59 60 62 62 60 56 56 55 56 57 56 51 55 48 54 56 55 53 54 56 55 53 50 49 47 47 47 44 39 38 37

GFSMA_250_spd_111.txt.gz
Wind_Speed
32 33 34 32 28 25 22 20 21 19 18 15 13 11 17 15 17 19 16 13 14 14 18 21 24 28 26 24 28 31 31 31 29 26 25 22 26 30 30 30 31 23 26
27 26 23 22 23 22 19 19 19 14 15 15 14 16 14 14 21 19 15 19 19 19 19 23 26 27 31 32 29 26 29 30 30 30 28 27 27 28 27 29 29 27 30
23 23 25 21 23 18 14 14 15 17 21 20 14 11 9 20 22 19 18 19 22 31 36 35 36 35 34 33 32 30 28 31 32 30 30 25 25 27 25 30 27 26 26
21 23 19 14 16 18 20 23 23 20 15 12 10 10 14 24 22 22 20 24 32 41 39 40 43 44 42 40 35 32 29 28 29 28 26 28 31 31 24 29 32 29 31
19 18 17 17 20 19 19 20 19 15 11 11 14 16 23 26 23 20 20 26 34 35 36 39 42 44 45 46 42 38 38 37 38 32 27 27 27 32 29 29 32 33 32
22 22 21 18 16 16 16 16 14 14 14 14 16 17 23 23 22 20 19 21 31 33 36 38 40 39 42 46 45 41 40 39 39 38 38 31 33 33 31 33 33 31 34
29 24 22 19 18 19 19 18 18 18 18 19 20 22 28 23 20 19 19 28 37 33 24 29 36 30 32 35 43 45 41 39 38 38 39 35 31 36 29 41 36 36 35
34 32 32 32 30 31 28 25 24 22 23 24 23 29 26 20 17 18 17 25 34 35 21 23 33 29 29 32 38 43 48 43 39 38 40 40 36 35 34 35 36 40 38
39 35 33 33 33 32 32 31 29 27 28 28 27 31 24 18 18 14 22 31 25 18 17 22 28 24 28 28 32 39 43 46 44 41 39 41 41 37 35 40 41 40 41
42 41 39 31 29 28 30 35 35 33 32 27 25 23 21 18 18 15 25 19 16 15 22 21 23 20 24 25 28 32 38 41 44 46 43 41 41 44 41 44 48 49 46
38 37 40 39 32 30 28 31 32 31 27 26 21 19 15 13 15 17 16 14 21 23 24 23 16 18 25 22 27 32 34 37 40 45 43 44 42 42 44 42 43 43 51
31 33 38 42 41 33 29 24 26 29 25 23 20 13 10 8 14 14 14 14 17 18 21 25 20 22 22 22 24 29 32 34 36 40 42 41 42 44 42 40 44 43 44
24 26 30 32 36 38 32 25 20 20 23 20 17 14 11 8 6 8 12 16 16 15 17 23 20 23 23 22 22 25 28 32 35 36 39 40 40 40 40 40 41 43 43
19 21 23 27 28 29 32 34 23 15 15 10 9 8 5 3 2 12 17 16 16 17 18 21 19 20 21 20 20 22 23 27 30 33 34 33 36 38 38 37 38 38 40
14 15 17 17 19 22 25 25 26 27 15 9 6 6 3 1 5 10 13 14 13 14 16 18 20 23 17 16 19 19 21 24 25 28 28 28 29 32 33 32 33 35 34
10 11 11 12 14 17 20 18 19 21 20 19 19 13 5 6 8 6 8 12 13 14 16 17 19 20 19 15 17 18 20 22 24 24 28 30 29 31 29 27 28 28 32
9 8 4 5 6 10 15 15 15 15 15 16 16 16 17 18 20 17 13 11 11 13 13 14 18 19 21 19 17 19 19 20 22 26 27 28 28 28 26 24 24 23 25
6 8 7 4 4 4 3 3 5 5 7 7 7 8 12 15 19 19 19 20 18 17 19 18 16 18 19 19 19 18 16 17 20 22 24 26 27 27 27 27 24 24 22
9 7 11 10 6 8 7 3 6 5 0 6 6 6 4 8 10 11 13 13 16 19 20 15 16 16 17 18 19 19 17 16 18 20 23 24 24 23 22 26 28 27 26
17 17 15 16 18 19 16 13 10 13 8 9 10 11 10 11 13 16 19 20 21 22 21 21 22 18 14 14 17 18 20 21 17 19 18 20 23 24 20 19 22 26 27
26 25 25 25 27 29 31 29 30 19 14 13 13 14 17 15 13 15 16 21 21 22 23 23 24 24 22 16 16 18 22 24 27 22 22 19 21 21 24 24 23 20 22
34 31 32 33 37 37 36 40 37 35 25 26 26 25 23 20 21 23 23 22 21 25 26 23 24 28 28 24 26 27 28 29 27 25 27 29 28 26 26 25 23 24 24
44 41 38 38 41 41 41 41 44 41 35 34 34 33 35 32 31 32 29 29 30 30 28 26 29 28 31 33 32 33 34 30 31 32 32 35 36 34 33 33 32 27 27
56 53 51 45 46 46 45 45 46 46 45 41 41 45 43 43 44 43 45 46 40 40 38 38 36 37 38 39 35 33 36 40 41 45 47 45 43 41 40 38 39 38 38
62 67 57 55 54 51 52 50 50 54 51 48 48 50 51 51 51 52 54 53 54 57 55 50 48 50 51 48 48 47 44 42 40 44 44 50 56 55 51 50 51 48 44
72 72 71 68 66 67 64 57 57 58 60 59 58 62 61 59 61 60 60 62 64 63 63 62 59 59 56 58 58 54 55 56 54 53 53 49 47 49 53 53 57 58 57

GFSMA_250_spd_114.txt.gz
Wind_Speed
31 30 30 29 26 22 19 16 15 17 18 16 18 18 18 22 22 18 18 21 21 24 25 24 27 25 24 23 23 26 27 25 25 26 26 27 27 25 34 29 22 23 29
26 27 25 24 21 21 21 19 17 14 18 23 20 17 20 24 18 20 22 29 38 43 44 42 39 34 30 29 27 28 27 28 27 29 29 31 27 27 32 32 27 27 28
26 25 24 20 18 16 16 15 16 20 22 23 19 18 27 23 21 25 33 42 46 44 46 47 48 43 39 37 36 38 37 34 27 29 30 30 30 31 30 30 31 32 34
19 19 18 19 21 25 25 24 21 20 18 17 18 26 27 21 21 33 40 39 42 42 36 36 38 45 44 40 40 39 40 39 35 30 39 32 34 34 34 30 31 35 39
16 18 22 21 22 20 19 19 19 20 23 22 29 30 26 21 25 31 31 32 26 35 35 35 38 41 47 48 44 40 40 40 40 37 35 35 32 37 37 36 33 35 38
21 21 22 20 21 22 24 23 24 23 25 28 31 28 23 21 30 34 28 24 21 31 33 31 37 40 44 48 47 42 39 38 39 38 37 38 35 35 35 37 36 35 40
27 26 26 26 26 25 27 25 26 29 30 33 30 25 20 30 34 32 28 18 18 24 29 30 28 31 38 42 45 45 41 38 36 38 38 38 38 39 43 41 40 37 37
35 34 32 31 30 31 31 33 32 33 35 32 26 21 17 22 27 25 16 11 15 22 24 24 26 27 32 36 40 43 45 42 39 38 42 41 39 41 47 46 44 43 39
26 30 30 31 30 32 35 39 39 36 35 29 21 21 20 27 21 20 23 20 20 23 27 29 25 24 27 32 36 37 41 41 39 40 40 41 44 40 38 46 49 49 46
27 25 28 28 36 38 41 39 37 34 31 26 24 21 22 21 19 17 19 21 23 24 25 25 26 22 24 28 31 34 38 40 42 42 42 38 39 40 40 41 47 50 53
38 33 31 33 36 37 36 35 31 26 24 19 18 17 15 17 15 14 17 18 16 21 23 21 25 20 20 24 28 32 34 37 38 39 42 42 39 40 39 41 43 46 52
36 39 35 31 28 32 31 27 26 23 19 15 12 11 13 13 12 16 16 17 17 18 21 22 23 20 20 20 23 28 32 34 36 37 40 39 39 38 39 38 40 42 45
27 30 34 35 31 25 24 24 24 20 17 12 9 9 8 7 11 17 20 20 17 19 20 20 21 15 19 21 23 24 27 29 31 33 34 34 36 35 36 38 36 38 39
21 23 24 28 29 30 24 16 15 14 10 9 8 5 5 6 10 14 17 20 22 22 22 24 26 19 18 20 21 23 25 27 29 30 31 33 33 31 33 32 34 35 35
17 18 18 21 21 22 23 24 15 10 8 8 6 6 7 9 10 13 13 16 17 19 19 21 23 21 23 23 24 24 23 24 29 31 34 35 33 31 31 32 32 32 34
11 9 12 16 20 18 18 17 17 17 16 17 17 15 19 19 16 14 13 14 16 19 20 20 22 25 25 24 23 22 24 25 28 30 32 33 34 35 37 36 36 35 32
9 8 6 7 11 11 11 11 10 10 10 12 12 14 13 13 17 14 17 18 19 22 23 23 24 22 24 25 25 24 24 26 28 30 30 31 31 33 34 37 37 36 35
1 3 6 3 4 2 3 3 4 5 6 7 7 6 7 8 9 11 15 15 16 18 20 21 22 23 21 20 20 21 23 28 29 28 26 28 28 27 28 33 32 31 33
8 4 3 1 2 3 4 5 10 9 15 11 9 7 9 11 12 12 11 12 14 16 17 19 20 20 21 20 18 17 20 24 24 27 25 26 26 27 28 28 27 26 28
21 15 12 16 11 7 10 11 14 18 21 12 11 11 11 12 13 13 13 14 16 16 15 17 18 18 19 21 20 21 23 25 26 27 20 21 23 25 29 30 28 27 26
31 27 26 21 23 24 20 18 20 21 26 25 18 19 18 20 17 15 17 18 17 18 17 21 21 20 19 20 21 23 23 24 24 25 25 23 23 27 30 29 30 30 31
38 36 34 33 28 28 29 27 25 25 28 27 29 28 25 24 26 26 24 24 22 22 24 26 24 21 24 27 25 26 27 30 30 28 33 29 32 36 35 32 31 33 33
48 46 43 42 40 41 35 35 33 32 31 32 32 35 38 33 25 29 35 39 38 40 42 43 38 37 40 39 36 38 36 38 40 37 31 31 28 31 33 31 32 33 35
56 52 53 53 57 53 51 45 43 38 37 37 39 39 41 42 42 40 47 50 46 46 47 48 48 51 52 51 49 44 46 45 43 43 45 45 40 37 38 36 34 34 32
60 62 64 63 64 63 61 60 53 50 46 47 46 52 49 53 49 52 51 51 54 53 58 56 54 56 56 55 53 53 54 52 53 52 48 49 49 44 43 47 47 50 39
65 69 72 70 70 69 69 64 59 62 62 60 60 58 54 52 55 60 56 57 61 63 63 66 61 60 61 60 60 61 62 58 57 56 57 58 57 57 52 52 53 51 54

GFSMA_250_spd_117.txt.gz
Wind_Speed
33 32 29 27 25 23 25 19 19 20 21 24 26 26 23 19 24 41 43 44 42 39 32 29 28 26 25 25 25 22 22 27 23 25 22 20 22 23 26 27 29 30 25
32 30 26 22 20 21 18 19 21 20 28 23 31 26 22 27 40 41 42 38 36 36 38 39 37 34 37 36 35 29 25 31 29 25 30 26 26 24 24 27 28 35 31
25 24 27 24 23 23 19 16 18 27 27 31 29 26 26 39 40 40 39 36 36 37 42 44 43 39 37 36 35 36 33 32 33 30 32 32 31 27 27 30 32 36 37
22 20 19 22 25 26 27 27 25 24 32 33 28 26 36 36 31 34 34 31 32 38 41 44 45 44 39 34 33 33 34 35 40 37 37 36 32 32 28 29 34 39 40
22 26 27 27 26 26 25 26 30 36 38 31 27 26 33 30 25 25 32 30 29 30 32 37 39 42 43 39 33 34 30 33 34 37 39 42 40 36 33 31 34 38 42
22 24 23 23 27 29 30 30 41 40 36 30 28 32 28 28 22 22 26 27 22 22 25 30 32 35 40 40 38 37 35 36 33 32 37 43 43 45 39 36 33 37 42
21 24 27 29 35 34 35 40 41 38 34 29 35 36 31 24 17 13 19 21 20 21 20 25 30 34 35 39 40 39 39 36 35 35 35 32 33 43 43 43 41 37 40
22 22 30 33 36 36 40 44 40 35 30 26 24 29 19 15 13 17 23 27 26 24 22 21 24 29 32 35 37 38 39 39 36 36 36 37 32 37 43 48 46 43 39
25 28 30 37 42 45 43 41 36 31 25 22 23 24 19 23 24 19 21 24 23 23 23 21 21 24 28 31 34 37 36 36 37 34 34 36 37 36 40 47 49 50 45
29 34 36 40 44 42 39 36 31 26 25 24 25 20 20 18 17 15 15 18 20 23 22 18 20 21 26 29 32 35 36 38 37 34 31 37 38 38 41 44 46 51 51
32 35 38 40 41 38 35 30 27 24 23 27 18 17 16 18 15 14 14 14 17 18 19 19 19 20 23 24 28 32 35 36 35 33 31 31 35 38 40 43 44 46 49
31 30 35 34 30 27 26 23 22 19 18 16 14 12 10 13 16 18 16 15 18 21 21 17 19 21 23 25 27 29 32 35 38 37 37 38 37 36 39 40 41 43 44
30 29 24 24 22 22 21 18 17 15 10 7 9 10 6 8 13 17 21 22 21 21 23 24 20 22 23 26 28 29 32 35 37 38 39 41 42 42 40 39 40 40 40
25 27 28 22 17 17 19 16 15 11 8 6 5 4 7 10 12 12 16 17 17 18 19 19 19 19 20 22 25 29 32 33 36 37 38 39 41 43 43 43 42 40 39
20 19 20 20 21 19 13 8 6 4 6 9 9 10 12 11 10 10 13 14 20 22 25 25 26 27 25 25 25 27 31 32 33 34 34 35 37 40 40 41 42 42 41
16 17 17 16 16 16 17 17 15 17 19 18 16 17 17 16 14 16 18 20 20 22 22 24 24 24 23 22 21 25 27 29 29 29 29 30 32 33 35 37 39 39 41
11 9 12 12 10 10 9 8 10 10 11 10 9 9 8 9 13 13 13 15 17 17 18 17 19 21 21 19 19 19 22 25 26 26 24 26 27 28 30 29 31 32 33
7 8 7 9 7 3 5 7 6 6 7 5 7 8 7 8 11 11 12 13 14 16 17 18 19 18 18 19 20 21 22 23 24 24 24 22 21 22 27 27 27 28 29
10 9 9 3 5 4 2 1 4 7 11 11 9 8 8 9 7 10 11 12 14 15 15 17 18 19 18 18 16 17 20 19 20 22 24 24 24 25 27 26 26 26 26
15 15 14 12 10 12 10 9 13 11 11 8 11 12 11 12 12 10 12 14 14 16 16 18 21 22 21 20 20 24 24 26 26 25 24 26 28 28 29 29 29 29 27
21 21 21 21 23 22 22 20 21 18 17 14 12 12 16 19 20 19 20 17 15 16 18 18 23 25 22 23 25 32 32 33 30 34 28 32 28 26 26 27 26 29 31
31 30 29 29 29 29 29 30 28 28 28 26 24 22 21 22 22 24 22 24 21 17 22 24 29 28 35 35 34 34 34 37 39 36 36 35 33 33 32 30 29 28 28
35 38 39 42 40 39 39 40 38 38 37 36 34 34 33 33 27 28 32 35 38 38 37 35 34 34 37 36 39 39 44 42 44 42 44 41 39 40 40 38 38 35 36
43 46 49 46 49 51 49 48 48 49 49 49 47 45 42 41 37 41 42 40 42 46 40 43 40 43 42 47 48 42 43 44 48 47 46 45 42 44 47 46 44 44 41
48 51 51 58 56 57 54 58 59 59 59 57 56 56 56 53 53 53 50 56 58 54 48 51 52 53 55 61 53 55 56 50 55 50 51 53 51 47 46 55 55 50 50
55 55 61 60 59 60 61 62 67 68 64 65 65 64 65 60 56 61 61 65 64 60 62 62 63 62 66 63 67 59 65 63 66 70 64 66 66 60 56 55 52 54 60

GFSMA_250_spd_120.txt.gz
Wind_Speed
27 28 25 23 23 24 24 18 20 19 25 26 24 25 36 36 35 32 35 34 37 34 33 31 31 31 28 23 17 21 22 19 20 18 19 17 16 19 23 24 25 23 20
31 29 26 25 26 24 20 23 23 24 31 27 32 35 37 38 34 33 36 39 40 39 38 32 31 30 31 30 27 28 31 27 26 27 25 22 21 25 26 29 30 27 26
30 26 25 25 24 19 23 20 26 28 30 32 37 39 35 34 34 33 34 36 37 39 39 38 32 25 27 30 30 33 34 37 30 29 28 26 24 22 26 30 33 30 29
29 27 27 27 25 20 22 28 29 32 30 38 34 33 31 31 28 27 26 28 32 34 36 36 35 34 32 33 29 27 25 34 38 39 37 35 29 26 25 31 33 36 32
21 24 25 26 29 32 31 29 36 33 29 35 29 25 27 26 24 22 20 23 25 30 32 34 35 35 34 36 34 32 31 31 29 29 34 37 35 33 31 31 35 37 39
27 30 29 29 29 28 30 39 37 31 29 31 25 21 21 19 24 21 18 19 22 24 28 30 31 32 34 35 36 35 35 34 32 29 29 37 39 40 38 36 36 40 42
23 25 27 27 29 34 42 41 34 29 31 26 24 22 17 19 17 17 17 20 19 19 23 25 26 30 34 31 34 33 33 31 34 34 33 30 42 45 44 43 41 40 44
24 25 29 34 35 40 43 37 35 37 31 27 23 19 16 21 24 23 20 19 19 19 19 22 25 30 33 34 36 34 32 33 33 33 35 39 40 43 46 49 48 46 45
27 32 33 34 40 42 38 34 33 35 34 23 20 22 21 20 20 22 20 19 18 17 18 21 25 28 30 33 35 35 32 32 32 33 36 37 39 41 41 47 52 52 49
29 34 37 43 42 39 34 29 28 27 24 21 20 21 19 16 13 13 16 18 18 18 19 20 21 23 26 30 32 35 36 37 36 36 36 39 41 41 43 46 47 53 55
41 42 44 43 39 34 28 23 25 24 19 19 20 18 18 13 10 9 14 18 17 14 17 19 21 25 27 30 32 38 39 40 42 43 42 42 42 43 44 44 45 48 51
34 39 40 34 28 26 23 21 22 22 14 11 9 10 13 18 16 18 18 19 21 21 14 18 20 24 29 30 32 37 38 39 40 43 44 45 45 47 47 47 45 45 47
28 27 25 23 21 21 20 17 17 12 8 7 6 5 10 13 16 18 16 14 16 17 17 19 22 25 27 30 29 32 33 35 35 36 39 41 43 43 45 48 49 48 47
20 20 19 17 18 16 14 12 9 6 6 6 4 6 9 12 11 12 14 18 21 23 25 26 25 23 24 25 27 29 30 30 31 32 34 35 36 37 39 41 43 45 47
19 17 17 16 18 15 12 7 4 7 9 10 11 13 13 14 15 17 20 20 22 22 23 22 22 21 19 19 21 24 26 28 27 25 27 27 29 31 32 33 35 38 40
13 11 14 16 17 14 12 13 15 16 16 15 14 15 15 15 13 12 14 14 15 15 16 16 17 17 19 19 22 23 25 26 27 26 26 23 25 30 28 29 29 31 33
11 11 9 10 12 11 10 10 11 12 10 10 9 7 7 10 8 9 10 9 11 11 11 14 12 13 14 15 16 17 18 19 23 23 25 25 27 29 30 29 29 28 28
13 13 12 9 5 6 9 9 11 8 7 6 5 5 7 6 5 8 9 7 8 11 11 12 12 12 15 16 16 15 19 21 27 26 24 25 25 25 26 28 30 29 30
14 14 13 11 10 10 7 8 6 5 6 3 7 5 8 9 9 8 8 10 11 10 10 13 9 14 17 18 20 19 19 24 26 27 29 30 30 30 25 24 25 25 29
21 18 16 14 12 12 10 11 10 9 9 6 6 9 10 9 11 12 15 16 16 15 15 14 16 18 20 18 21 22 23 23 26 27 30 33 33 33 35 32 27 26 25
27 25 24 22 23 21 19 21 21 18 16 18 17 16 14 15 14 14 17 21 22 22 25 22 16 17 23 24 27 25 26 28 29 29 29 32 31 34 37 32 33 32 30
31 32 33 29 28 27 27 26 28 28 29 27 24 24 26 24 26 25 22 23 23 25 26 30 33 33 39 36 34 42 40 39 33 32 30 28 31 33 34 39 39 36 33
35 34 31 34 37 38 36 34 36 37 37 37 36 37 38 38 38 38 37 38 35 33 40 41 36 37 42 41 40 41 43 43 47 47 42 38 36 36 39 40 39 39 37
47 44 45 42 41 40 41 44 43 45 47 47 45 47 47 50 49 48 47 48 45 45 45 46 48 50 50 47 48 51 51 52 51 54 52 50 50 49 47 52 53 50 43
49 54 51 48 48 47 49 50 53 51 50 51 53 53 56 59 59 59 57 56 57 58 57 55 57 57 57 55 52 56 57 56 58 62 60 57 60 58 56 57 58 56 51
55 54 57 62 61 60 57 56 58 58 56 58 60 58 55 58 61 63 65 63 60 61 61 61 62 65 62 64 64 67 71 64 65 67 70 67 70 66 64 64 64 58 59